<?xml version="1.0" encoding="UTF-8" standalone="no" ?>
<gpx xmlns="http://www.topografix.com/GPX/1/1" xmlns:xsi="http://www.w3.org/2001/XMLSchema-instance" xsi:schemaLocation="http://www.topografix.com/GPX/1/1 http://www.topografix.com/GPX/1/1/gpx.xsd" version="1.1" creator="VisuGPX - https://www.visugpx.com">
  <metadata>
    <name>Rando de Cordemais 2016</name>
    <desc><![CDATA[randonnée vtt de cordemais sur le parcours le plus long annonce a 51 km]]></desc>
  </metadata>
  <trk>
    <name><![CDATA[Rando de Cordemais 2016_1]]></name>
    <trkseg>
      <trkpt lat="47.28437" lon="-1.88275">
        <ele>4</ele>
        <time>2016-09-25T06:22:13Z</time>
      </trkpt>
      <trkpt lat="47.28437" lon="-1.88275">
        <ele>56</ele>
        <time>2016-09-25T06:22:59Z</time>
      </trkpt>
      <trkpt lat="47.28432" lon="-1.88297">
        <ele>66</ele>
        <time>2016-09-25T06:24:37Z</time>
      </trkpt>
      <trkpt lat="47.28432" lon="-1.88345">
        <ele>66</ele>
        <time>2016-09-25T06:24:49Z</time>
      </trkpt>
      <trkpt lat="47.28417" lon="-1.88355">
        <ele>65</ele>
        <time>2016-09-25T06:24:55Z</time>
      </trkpt>
      <trkpt lat="47.28405" lon="-1.88363">
        <ele>64</ele>
        <time>2016-09-25T06:24:58Z</time>
      </trkpt>
      <trkpt lat="47.28381" lon="-1.88378">
        <ele>62</ele>
        <time>2016-09-25T06:25:04Z</time>
      </trkpt>
      <trkpt lat="47.28365" lon="-1.88387">
        <ele>61</ele>
        <time>2016-09-25T06:25:09Z</time>
      </trkpt>
      <trkpt lat="47.28379" lon="-1.88404">
        <ele>61</ele>
        <time>2016-09-25T06:25:19Z</time>
      </trkpt>
      <trkpt lat="47.28407" lon="-1.88388">
        <ele>59</ele>
        <time>2016-09-25T06:25:26Z</time>
      </trkpt>
      <trkpt lat="47.2843" lon="-1.8838">
        <ele>58</ele>
        <time>2016-09-25T06:25:31Z</time>
      </trkpt>
      <trkpt lat="47.28457" lon="-1.88364">
        <ele>58</ele>
        <time>2016-09-25T06:25:37Z</time>
      </trkpt>
      <trkpt lat="47.2848" lon="-1.88351">
        <ele>61</ele>
        <time>2016-09-25T06:25:42Z</time>
      </trkpt>
      <trkpt lat="47.28504" lon="-1.88338">
        <ele>61</ele>
        <time>2016-09-25T06:25:48Z</time>
      </trkpt>
      <trkpt lat="47.28524" lon="-1.88322">
        <ele>66</ele>
        <time>2016-09-25T06:25:54Z</time>
      </trkpt>
      <trkpt lat="47.28561" lon="-1.8831">
        <ele>62</ele>
        <time>2016-09-25T06:26:00Z</time>
      </trkpt>
      <trkpt lat="47.28569" lon="-1.88285">
        <ele>60</ele>
        <time>2016-09-25T06:26:06Z</time>
      </trkpt>
      <trkpt lat="47.28567" lon="-1.88244">
        <ele>58</ele>
        <time>2016-09-25T06:26:12Z</time>
      </trkpt>
      <trkpt lat="47.28564" lon="-1.88205">
        <ele>60</ele>
        <time>2016-09-25T06:26:18Z</time>
      </trkpt>
      <trkpt lat="47.28567" lon="-1.88169">
        <ele>61</ele>
        <time>2016-09-25T06:26:23Z</time>
      </trkpt>
      <trkpt lat="47.28571" lon="-1.88126">
        <ele>62</ele>
        <time>2016-09-25T06:26:29Z</time>
      </trkpt>
      <trkpt lat="47.28581" lon="-1.88111">
        <ele>61</ele>
        <time>2016-09-25T06:26:32Z</time>
      </trkpt>
      <trkpt lat="47.28594" lon="-1.88104">
        <ele>61</ele>
        <time>2016-09-25T06:26:35Z</time>
      </trkpt>
      <trkpt lat="47.28622" lon="-1.88094">
        <ele>61</ele>
        <time>2016-09-25T06:26:41Z</time>
      </trkpt>
      <trkpt lat="47.2865" lon="-1.88082">
        <ele>61</ele>
        <time>2016-09-25T06:26:47Z</time>
      </trkpt>
      <trkpt lat="47.28663" lon="-1.88075">
        <ele>62</ele>
        <time>2016-09-25T06:26:50Z</time>
      </trkpt>
      <trkpt lat="47.28689" lon="-1.88066">
        <ele>62</ele>
        <time>2016-09-25T06:26:57Z</time>
      </trkpt>
      <trkpt lat="47.287" lon="-1.88034">
        <ele>61</ele>
        <time>2016-09-25T06:27:04Z</time>
      </trkpt>
      <trkpt lat="47.2871" lon="-1.88006">
        <ele>63</ele>
        <time>2016-09-25T06:27:10Z</time>
      </trkpt>
      <trkpt lat="47.2873" lon="-1.87997">
        <ele>63</ele>
        <time>2016-09-25T06:27:15Z</time>
      </trkpt>
      <trkpt lat="47.28761" lon="-1.87983">
        <ele>60</ele>
        <time>2016-09-25T06:27:22Z</time>
      </trkpt>
      <trkpt lat="47.2879" lon="-1.87967">
        <ele>60</ele>
        <time>2016-09-25T06:27:29Z</time>
      </trkpt>
      <trkpt lat="47.28796" lon="-1.87946">
        <ele>56</ele>
        <time>2016-09-25T06:27:35Z</time>
      </trkpt>
      <trkpt lat="47.28775" lon="-1.87939">
        <ele>58</ele>
        <time>2016-09-25T06:27:40Z</time>
      </trkpt>
      <trkpt lat="47.28769" lon="-1.87897">
        <ele>57</ele>
        <time>2016-09-25T06:27:46Z</time>
      </trkpt>
      <trkpt lat="47.28768" lon="-1.87857">
        <ele>57</ele>
        <time>2016-09-25T06:27:51Z</time>
      </trkpt>
      <trkpt lat="47.28775" lon="-1.87836">
        <ele>58</ele>
        <time>2016-09-25T06:27:54Z</time>
      </trkpt>
      <trkpt lat="47.28791" lon="-1.87812">
        <ele>58</ele>
        <time>2016-09-25T06:27:58Z</time>
      </trkpt>
      <trkpt lat="47.28816" lon="-1.87791">
        <ele>59</ele>
        <time>2016-09-25T06:28:03Z</time>
      </trkpt>
      <trkpt lat="47.28834" lon="-1.87793">
        <ele>59</ele>
        <time>2016-09-25T06:28:06Z</time>
      </trkpt>
      <trkpt lat="47.28855" lon="-1.87798">
        <ele>58</ele>
        <time>2016-09-25T06:28:10Z</time>
      </trkpt>
      <trkpt lat="47.28879" lon="-1.87803">
        <ele>56</ele>
        <time>2016-09-25T06:28:15Z</time>
      </trkpt>
      <trkpt lat="47.28898" lon="-1.87779">
        <ele>59</ele>
        <time>2016-09-25T06:28:22Z</time>
      </trkpt>
      <trkpt lat="47.28884" lon="-1.87749">
        <ele>60</ele>
        <time>2016-09-25T06:28:27Z</time>
      </trkpt>
      <trkpt lat="47.28868" lon="-1.87715">
        <ele>59</ele>
        <time>2016-09-25T06:28:34Z</time>
      </trkpt>
      <trkpt lat="47.28846" lon="-1.87684">
        <ele>58</ele>
        <time>2016-09-25T06:28:39Z</time>
      </trkpt>
      <trkpt lat="47.28821" lon="-1.87635">
        <ele>59</ele>
        <time>2016-09-25T06:28:46Z</time>
      </trkpt>
      <trkpt lat="47.28794" lon="-1.8761">
        <ele>63</ele>
        <time>2016-09-25T06:28:52Z</time>
      </trkpt>
      <trkpt lat="47.28769" lon="-1.87587">
        <ele>63</ele>
        <time>2016-09-25T06:28:57Z</time>
      </trkpt>
      <trkpt lat="47.28753" lon="-1.87575">
        <ele>62</ele>
        <time>2016-09-25T06:29:00Z</time>
      </trkpt>
      <trkpt lat="47.28724" lon="-1.87554">
        <ele>63</ele>
        <time>2016-09-25T06:29:05Z</time>
      </trkpt>
      <trkpt lat="47.28691" lon="-1.87532">
        <ele>61</ele>
        <time>2016-09-25T06:29:11Z</time>
      </trkpt>
      <trkpt lat="47.28661" lon="-1.87518">
        <ele>61</ele>
        <time>2016-09-25T06:29:16Z</time>
      </trkpt>
      <trkpt lat="47.2863" lon="-1.87496">
        <ele>63</ele>
        <time>2016-09-25T06:29:22Z</time>
      </trkpt>
      <trkpt lat="47.28616" lon="-1.87484">
        <ele>61</ele>
        <time>2016-09-25T06:29:26Z</time>
      </trkpt>
      <trkpt lat="47.28596" lon="-1.87473">
        <ele>59</ele>
        <time>2016-09-25T06:29:33Z</time>
      </trkpt>
      <trkpt lat="47.28582" lon="-1.87474">
        <ele>59</ele>
        <time>2016-09-25T06:29:36Z</time>
      </trkpt>
      <trkpt lat="47.28565" lon="-1.87449">
        <ele>58</ele>
        <time>2016-09-25T06:29:41Z</time>
      </trkpt>
      <trkpt lat="47.28556" lon="-1.87429">
        <ele>59</ele>
        <time>2016-09-25T06:29:44Z</time>
      </trkpt>
      <trkpt lat="47.28549" lon="-1.87394">
        <ele>61</ele>
        <time>2016-09-25T06:29:49Z</time>
      </trkpt>
      <trkpt lat="47.28539" lon="-1.87357">
        <ele>63</ele>
        <time>2016-09-25T06:29:55Z</time>
      </trkpt>
      <trkpt lat="47.28533" lon="-1.87339">
        <ele>64</ele>
        <time>2016-09-25T06:29:58Z</time>
      </trkpt>
      <trkpt lat="47.28526" lon="-1.87314">
        <ele>64</ele>
        <time>2016-09-25T06:30:02Z</time>
      </trkpt>
      <trkpt lat="47.28516" lon="-1.87276">
        <ele>67</ele>
        <time>2016-09-25T06:30:09Z</time>
      </trkpt>
      <trkpt lat="47.28493" lon="-1.87261">
        <ele>67</ele>
        <time>2016-09-25T06:30:15Z</time>
      </trkpt>
      <trkpt lat="47.28474" lon="-1.8723">
        <ele>67</ele>
        <time>2016-09-25T06:30:21Z</time>
      </trkpt>
      <trkpt lat="47.28462" lon="-1.87208">
        <ele>67</ele>
        <time>2016-09-25T06:30:25Z</time>
      </trkpt>
      <trkpt lat="47.28452" lon="-1.87189">
        <ele>67</ele>
        <time>2016-09-25T06:30:28Z</time>
      </trkpt>
      <trkpt lat="47.28431" lon="-1.87159">
        <ele>64</ele>
        <time>2016-09-25T06:30:33Z</time>
      </trkpt>
      <trkpt lat="47.2841" lon="-1.8714">
        <ele>64</ele>
        <time>2016-09-25T06:30:39Z</time>
      </trkpt>
      <trkpt lat="47.28394" lon="-1.87119">
        <ele>66</ele>
        <time>2016-09-25T06:30:44Z</time>
      </trkpt>
      <trkpt lat="47.28367" lon="-1.87089">
        <ele>66</ele>
        <time>2016-09-25T06:30:50Z</time>
      </trkpt>
      <trkpt lat="47.28337" lon="-1.87056">
        <ele>64</ele>
        <time>2016-09-25T06:30:56Z</time>
      </trkpt>
      <trkpt lat="47.28301" lon="-1.87022">
        <ele>63</ele>
        <time>2016-09-25T06:31:02Z</time>
      </trkpt>
      <trkpt lat="47.2826" lon="-1.86999">
        <ele>63</ele>
        <time>2016-09-25T06:31:09Z</time>
      </trkpt>
      <trkpt lat="47.28249" lon="-1.86961">
        <ele>58</ele>
        <time>2016-09-25T06:31:15Z</time>
      </trkpt>
      <trkpt lat="47.28258" lon="-1.86903">
        <ele>55</ele>
        <time>2016-09-25T06:31:21Z</time>
      </trkpt>
      <trkpt lat="47.28268" lon="-1.86869">
        <ele>57</ele>
        <time>2016-09-25T06:31:26Z</time>
      </trkpt>
      <trkpt lat="47.28276" lon="-1.86817">
        <ele>55</ele>
        <time>2016-09-25T06:31:32Z</time>
      </trkpt>
      <trkpt lat="47.28293" lon="-1.86769">
        <ele>54</ele>
        <time>2016-09-25T06:31:38Z</time>
      </trkpt>
      <trkpt lat="47.28318" lon="-1.86731">
        <ele>54</ele>
        <time>2016-09-25T06:31:44Z</time>
      </trkpt>
      <trkpt lat="47.28347" lon="-1.86701">
        <ele>54</ele>
        <time>2016-09-25T06:31:50Z</time>
      </trkpt>
      <trkpt lat="47.28384" lon="-1.86681">
        <ele>53</ele>
        <time>2016-09-25T06:31:56Z</time>
      </trkpt>
      <trkpt lat="47.28421" lon="-1.86671">
        <ele>53</ele>
        <time>2016-09-25T06:32:02Z</time>
      </trkpt>
      <trkpt lat="47.28451" lon="-1.86666">
        <ele>54</ele>
        <time>2016-09-25T06:32:07Z</time>
      </trkpt>
      <trkpt lat="47.28487" lon="-1.86656">
        <ele>53</ele>
        <time>2016-09-25T06:32:13Z</time>
      </trkpt>
      <trkpt lat="47.28521" lon="-1.86651">
        <ele>53</ele>
        <time>2016-09-25T06:32:19Z</time>
      </trkpt>
      <trkpt lat="47.28545" lon="-1.86645">
        <ele>58</ele>
        <time>2016-09-25T06:32:24Z</time>
      </trkpt>
      <trkpt lat="47.28578" lon="-1.86631">
        <ele>57</ele>
        <time>2016-09-25T06:32:30Z</time>
      </trkpt>
      <trkpt lat="47.28605" lon="-1.86611">
        <ele>57</ele>
        <time>2016-09-25T06:32:35Z</time>
      </trkpt>
      <trkpt lat="47.28626" lon="-1.86589">
        <ele>57</ele>
        <time>2016-09-25T06:32:40Z</time>
      </trkpt>
      <trkpt lat="47.28646" lon="-1.86566">
        <ele>57</ele>
        <time>2016-09-25T06:32:45Z</time>
      </trkpt>
      <trkpt lat="47.28667" lon="-1.86544">
        <ele>58</ele>
        <time>2016-09-25T06:32:52Z</time>
      </trkpt>
      <trkpt lat="47.28693" lon="-1.86521">
        <ele>58</ele>
        <time>2016-09-25T06:32:58Z</time>
      </trkpt>
      <trkpt lat="47.28714" lon="-1.86495">
        <ele>58</ele>
        <time>2016-09-25T06:33:03Z</time>
      </trkpt>
      <trkpt lat="47.28733" lon="-1.86473">
        <ele>58</ele>
        <time>2016-09-25T06:33:08Z</time>
      </trkpt>
      <trkpt lat="47.28752" lon="-1.86452">
        <ele>62</ele>
        <time>2016-09-25T06:33:14Z</time>
      </trkpt>
      <trkpt lat="47.28786" lon="-1.86411">
        <ele>63</ele>
        <time>2016-09-25T06:33:24Z</time>
      </trkpt>
      <trkpt lat="47.28811" lon="-1.86388">
        <ele>63</ele>
        <time>2016-09-25T06:33:30Z</time>
      </trkpt>
      <trkpt lat="47.28836" lon="-1.86358">
        <ele>62</ele>
        <time>2016-09-25T06:33:37Z</time>
      </trkpt>
      <trkpt lat="47.2886" lon="-1.86333">
        <ele>63</ele>
        <time>2016-09-25T06:33:43Z</time>
      </trkpt>
      <trkpt lat="47.28873" lon="-1.86319">
        <ele>62</ele>
        <time>2016-09-25T06:33:46Z</time>
      </trkpt>
      <trkpt lat="47.28885" lon="-1.86304">
        <ele>61</ele>
        <time>2016-09-25T06:33:49Z</time>
      </trkpt>
      <trkpt lat="47.28896" lon="-1.86285">
        <ele>60</ele>
        <time>2016-09-25T06:33:52Z</time>
      </trkpt>
      <trkpt lat="47.28906" lon="-1.86267">
        <ele>60</ele>
        <time>2016-09-25T06:33:55Z</time>
      </trkpt>
      <trkpt lat="47.28925" lon="-1.86236">
        <ele>61</ele>
        <time>2016-09-25T06:34:00Z</time>
      </trkpt>
      <trkpt lat="47.28946" lon="-1.86194">
        <ele>60</ele>
        <time>2016-09-25T06:34:06Z</time>
      </trkpt>
      <trkpt lat="47.28969" lon="-1.86151">
        <ele>61</ele>
        <time>2016-09-25T06:34:12Z</time>
      </trkpt>
      <trkpt lat="47.28982" lon="-1.86124">
        <ele>61</ele>
        <time>2016-09-25T06:34:16Z</time>
      </trkpt>
      <trkpt lat="47.29013" lon="-1.8608">
        <ele>61</ele>
        <time>2016-09-25T06:34:23Z</time>
      </trkpt>
      <trkpt lat="47.29041" lon="-1.86057">
        <ele>58</ele>
        <time>2016-09-25T06:34:28Z</time>
      </trkpt>
      <trkpt lat="47.29072" lon="-1.86045">
        <ele>62</ele>
        <time>2016-09-25T06:34:33Z</time>
      </trkpt>
      <trkpt lat="47.2909" lon="-1.86034">
        <ele>61</ele>
        <time>2016-09-25T06:34:36Z</time>
      </trkpt>
      <trkpt lat="47.29122" lon="-1.86021">
        <ele>61</ele>
        <time>2016-09-25T06:34:41Z</time>
      </trkpt>
      <trkpt lat="47.29154" lon="-1.86006">
        <ele>61</ele>
        <time>2016-09-25T06:34:46Z</time>
      </trkpt>
      <trkpt lat="47.29183" lon="-1.85992">
        <ele>62</ele>
        <time>2016-09-25T06:34:51Z</time>
      </trkpt>
      <trkpt lat="47.29213" lon="-1.85984">
        <ele>60</ele>
        <time>2016-09-25T06:34:57Z</time>
      </trkpt>
      <trkpt lat="47.29252" lon="-1.85972">
        <ele>57</ele>
        <time>2016-09-25T06:35:05Z</time>
      </trkpt>
      <trkpt lat="47.29277" lon="-1.85954">
        <ele>57</ele>
        <time>2016-09-25T06:35:10Z</time>
      </trkpt>
      <trkpt lat="47.29304" lon="-1.85941">
        <ele>60</ele>
        <time>2016-09-25T06:35:16Z</time>
      </trkpt>
      <trkpt lat="47.29335" lon="-1.85922">
        <ele>58</ele>
        <time>2016-09-25T06:35:23Z</time>
      </trkpt>
      <trkpt lat="47.29359" lon="-1.85909">
        <ele>59</ele>
        <time>2016-09-25T06:35:28Z</time>
      </trkpt>
      <trkpt lat="47.29385" lon="-1.85889">
        <ele>61</ele>
        <time>2016-09-25T06:35:34Z</time>
      </trkpt>
      <trkpt lat="47.29409" lon="-1.85849">
        <ele>59</ele>
        <time>2016-09-25T06:35:41Z</time>
      </trkpt>
      <trkpt lat="47.29426" lon="-1.85825">
        <ele>60</ele>
        <time>2016-09-25T06:35:46Z</time>
      </trkpt>
      <trkpt lat="47.29433" lon="-1.85788">
        <ele>60</ele>
        <time>2016-09-25T06:35:51Z</time>
      </trkpt>
      <trkpt lat="47.29437" lon="-1.85764">
        <ele>59</ele>
        <time>2016-09-25T06:35:54Z</time>
      </trkpt>
      <trkpt lat="47.29441" lon="-1.85741">
        <ele>58</ele>
        <time>2016-09-25T06:35:57Z</time>
      </trkpt>
      <trkpt lat="47.29444" lon="-1.85719">
        <ele>58</ele>
        <time>2016-09-25T06:36:00Z</time>
      </trkpt>
      <trkpt lat="47.29446" lon="-1.85697">
        <ele>56</ele>
        <time>2016-09-25T06:36:03Z</time>
      </trkpt>
      <trkpt lat="47.29449" lon="-1.85674">
        <ele>57</ele>
        <time>2016-09-25T06:36:06Z</time>
      </trkpt>
      <trkpt lat="47.2945" lon="-1.85635">
        <ele>58</ele>
        <time>2016-09-25T06:36:11Z</time>
      </trkpt>
      <trkpt lat="47.2945" lon="-1.85613">
        <ele>58</ele>
        <time>2016-09-25T06:36:14Z</time>
      </trkpt>
      <trkpt lat="47.29455" lon="-1.85594">
        <ele>57</ele>
        <time>2016-09-25T06:36:17Z</time>
      </trkpt>
      <trkpt lat="47.29463" lon="-1.85574">
        <ele>56</ele>
        <time>2016-09-25T06:36:20Z</time>
      </trkpt>
      <trkpt lat="47.29471" lon="-1.85556">
        <ele>57</ele>
        <time>2016-09-25T06:36:23Z</time>
      </trkpt>
      <trkpt lat="47.2948" lon="-1.85536">
        <ele>58</ele>
        <time>2016-09-25T06:36:26Z</time>
      </trkpt>
      <trkpt lat="47.29503" lon="-1.85496">
        <ele>62</ele>
        <time>2016-09-25T06:36:33Z</time>
      </trkpt>
      <trkpt lat="47.29529" lon="-1.85464">
        <ele>64</ele>
        <time>2016-09-25T06:36:40Z</time>
      </trkpt>
      <trkpt lat="47.29547" lon="-1.85431">
        <ele>60</ele>
        <time>2016-09-25T06:36:45Z</time>
      </trkpt>
      <trkpt lat="47.29568" lon="-1.854">
        <ele>59</ele>
        <time>2016-09-25T06:36:51Z</time>
      </trkpt>
      <trkpt lat="47.29586" lon="-1.85375">
        <ele>57</ele>
        <time>2016-09-25T06:36:56Z</time>
      </trkpt>
      <trkpt lat="47.29609" lon="-1.85339">
        <ele>64</ele>
        <time>2016-09-25T06:37:04Z</time>
      </trkpt>
      <trkpt lat="47.29628" lon="-1.8531">
        <ele>65</ele>
        <time>2016-09-25T06:37:09Z</time>
      </trkpt>
      <trkpt lat="47.29652" lon="-1.85281">
        <ele>67</ele>
        <time>2016-09-25T06:37:15Z</time>
      </trkpt>
      <trkpt lat="47.29665" lon="-1.85262">
        <ele>70</ele>
        <time>2016-09-25T06:37:20Z</time>
      </trkpt>
      <trkpt lat="47.29687" lon="-1.85219">
        <ele>67</ele>
        <time>2016-09-25T06:37:26Z</time>
      </trkpt>
      <trkpt lat="47.2971" lon="-1.85179">
        <ele>66</ele>
        <time>2016-09-25T06:37:32Z</time>
      </trkpt>
      <trkpt lat="47.29725" lon="-1.8515">
        <ele>64</ele>
        <time>2016-09-25T06:37:37Z</time>
      </trkpt>
      <trkpt lat="47.29743" lon="-1.8514">
        <ele>63</ele>
        <time>2016-09-25T06:37:43Z</time>
      </trkpt>
      <trkpt lat="47.29756" lon="-1.85087">
        <ele>61</ele>
        <time>2016-09-25T06:37:51Z</time>
      </trkpt>
      <trkpt lat="47.2976" lon="-1.85036">
        <ele>60</ele>
        <time>2016-09-25T06:37:57Z</time>
      </trkpt>
      <trkpt lat="47.29759" lon="-1.84985">
        <ele>59</ele>
        <time>2016-09-25T06:38:03Z</time>
      </trkpt>
      <trkpt lat="47.29747" lon="-1.84926">
        <ele>60</ele>
        <time>2016-09-25T06:38:10Z</time>
      </trkpt>
      <trkpt lat="47.29739" lon="-1.84885">
        <ele>62</ele>
        <time>2016-09-25T06:38:15Z</time>
      </trkpt>
      <trkpt lat="47.29728" lon="-1.84836">
        <ele>65</ele>
        <time>2016-09-25T06:38:21Z</time>
      </trkpt>
      <trkpt lat="47.29721" lon="-1.84812">
        <ele>63</ele>
        <time>2016-09-25T06:38:24Z</time>
      </trkpt>
      <trkpt lat="47.29713" lon="-1.84761">
        <ele>62</ele>
        <time>2016-09-25T06:38:30Z</time>
      </trkpt>
      <trkpt lat="47.297" lon="-1.84711">
        <ele>57</ele>
        <time>2016-09-25T06:38:36Z</time>
      </trkpt>
      <trkpt lat="47.29692" lon="-1.84661">
        <ele>56</ele>
        <time>2016-09-25T06:38:41Z</time>
      </trkpt>
      <trkpt lat="47.29698" lon="-1.84615">
        <ele>59</ele>
        <time>2016-09-25T06:38:46Z</time>
      </trkpt>
      <trkpt lat="47.29696" lon="-1.84588">
        <ele>57</ele>
        <time>2016-09-25T06:38:49Z</time>
      </trkpt>
      <trkpt lat="47.29704" lon="-1.84546">
        <ele>59</ele>
        <time>2016-09-25T06:38:54Z</time>
      </trkpt>
      <trkpt lat="47.29723" lon="-1.84503">
        <ele>58</ele>
        <time>2016-09-25T06:39:00Z</time>
      </trkpt>
      <trkpt lat="47.29741" lon="-1.84458">
        <ele>58</ele>
        <time>2016-09-25T06:39:06Z</time>
      </trkpt>
      <trkpt lat="47.29752" lon="-1.84431">
        <ele>59</ele>
        <time>2016-09-25T06:39:10Z</time>
      </trkpt>
      <trkpt lat="47.29769" lon="-1.84392">
        <ele>59</ele>
        <time>2016-09-25T06:39:16Z</time>
      </trkpt>
      <trkpt lat="47.29775" lon="-1.84363">
        <ele>58</ele>
        <time>2016-09-25T06:39:23Z</time>
      </trkpt>
      <trkpt lat="47.29767" lon="-1.84326">
        <ele>58</ele>
        <time>2016-09-25T06:39:32Z</time>
      </trkpt>
      <trkpt lat="47.29769" lon="-1.84294">
        <ele>59</ele>
        <time>2016-09-25T06:39:37Z</time>
      </trkpt>
      <trkpt lat="47.29751" lon="-1.84258">
        <ele>57</ele>
        <time>2016-09-25T06:39:44Z</time>
      </trkpt>
      <trkpt lat="47.29732" lon="-1.84234">
        <ele>59</ele>
        <time>2016-09-25T06:39:49Z</time>
      </trkpt>
      <trkpt lat="47.29711" lon="-1.84207">
        <ele>59</ele>
        <time>2016-09-25T06:39:55Z</time>
      </trkpt>
      <trkpt lat="47.29687" lon="-1.84182">
        <ele>60</ele>
        <time>2016-09-25T06:40:02Z</time>
      </trkpt>
      <trkpt lat="47.29673" lon="-1.84158">
        <ele>60</ele>
        <time>2016-09-25T06:40:13Z</time>
      </trkpt>
      <trkpt lat="47.29673" lon="-1.84131">
        <ele>60</ele>
        <time>2016-09-25T06:40:33Z</time>
      </trkpt>
      <trkpt lat="47.29673" lon="-1.84131">
        <ele>60</ele>
        <time>2016-09-25T06:40:40Z</time>
      </trkpt>
      <trkpt lat="47.29673" lon="-1.84131">
        <ele>60</ele>
        <time>2016-09-25T06:40:41Z</time>
      </trkpt>
      <trkpt lat="47.2966" lon="-1.8411">
        <ele>56</ele>
        <time>2016-09-25T06:40:54Z</time>
      </trkpt>
      <trkpt lat="47.29645" lon="-1.841">
        <ele>55</ele>
        <time>2016-09-25T06:40:59Z</time>
      </trkpt>
      <trkpt lat="47.29627" lon="-1.84079">
        <ele>54</ele>
        <time>2016-09-25T06:41:06Z</time>
      </trkpt>
      <trkpt lat="47.29621" lon="-1.84077">
        <ele>54</ele>
        <time>2016-09-25T06:41:09Z</time>
      </trkpt>
      <trkpt lat="47.29614" lon="-1.84068">
        <ele>60</ele>
        <time>2016-09-25T06:41:18Z</time>
      </trkpt>
      <trkpt lat="47.29595" lon="-1.84062">
        <ele>61</ele>
        <time>2016-09-25T06:41:28Z</time>
      </trkpt>
      <trkpt lat="47.2958" lon="-1.84053">
        <ele>62</ele>
        <time>2016-09-25T06:41:37Z</time>
      </trkpt>
      <trkpt lat="47.29563" lon="-1.84034">
        <ele>63</ele>
        <time>2016-09-25T06:41:49Z</time>
      </trkpt>
      <trkpt lat="47.29551" lon="-1.84008">
        <ele>59</ele>
        <time>2016-09-25T06:42:01Z</time>
      </trkpt>
      <trkpt lat="47.29542" lon="-1.83976">
        <ele>61</ele>
        <time>2016-09-25T06:42:12Z</time>
      </trkpt>
      <trkpt lat="47.29525" lon="-1.83959">
        <ele>63</ele>
        <time>2016-09-25T06:42:21Z</time>
      </trkpt>
      <trkpt lat="47.29509" lon="-1.83954">
        <ele>61</ele>
        <time>2016-09-25T06:42:28Z</time>
      </trkpt>
      <trkpt lat="47.29499" lon="-1.83943">
        <ele>68</ele>
        <time>2016-09-25T06:42:38Z</time>
      </trkpt>
      <trkpt lat="47.29464" lon="-1.83936">
        <ele>63</ele>
        <time>2016-09-25T06:42:50Z</time>
      </trkpt>
      <trkpt lat="47.29455" lon="-1.83933">
        <ele>62</ele>
        <time>2016-09-25T06:42:53Z</time>
      </trkpt>
      <trkpt lat="47.29452" lon="-1.83935">
        <ele>62</ele>
        <time>2016-09-25T06:42:59Z</time>
      </trkpt>
      <trkpt lat="47.29438" lon="-1.83914">
        <ele>69</ele>
        <time>2016-09-25T06:43:23Z</time>
      </trkpt>
      <trkpt lat="47.29416" lon="-1.83876">
        <ele>69</ele>
        <time>2016-09-25T06:43:32Z</time>
      </trkpt>
      <trkpt lat="47.29396" lon="-1.83842">
        <ele>72</ele>
        <time>2016-09-25T06:43:39Z</time>
      </trkpt>
      <trkpt lat="47.29368" lon="-1.83805">
        <ele>70</ele>
        <time>2016-09-25T06:43:46Z</time>
      </trkpt>
      <trkpt lat="47.2935" lon="-1.83774">
        <ele>71</ele>
        <time>2016-09-25T06:43:53Z</time>
      </trkpt>
      <trkpt lat="47.29326" lon="-1.83735">
        <ele>69</ele>
        <time>2016-09-25T06:44:00Z</time>
      </trkpt>
      <trkpt lat="47.29309" lon="-1.83708">
        <ele>67</ele>
        <time>2016-09-25T06:44:05Z</time>
      </trkpt>
      <trkpt lat="47.29288" lon="-1.83669">
        <ele>64</ele>
        <time>2016-09-25T06:44:11Z</time>
      </trkpt>
      <trkpt lat="47.29257" lon="-1.83635">
        <ele>63</ele>
        <time>2016-09-25T06:44:16Z</time>
      </trkpt>
      <trkpt lat="47.29224" lon="-1.83593">
        <ele>62</ele>
        <time>2016-09-25T06:44:22Z</time>
      </trkpt>
      <trkpt lat="47.29214" lon="-1.83562">
        <ele>62</ele>
        <time>2016-09-25T06:44:25Z</time>
      </trkpt>
      <trkpt lat="47.2921" lon="-1.83518">
        <ele>63</ele>
        <time>2016-09-25T06:44:30Z</time>
      </trkpt>
      <trkpt lat="47.29208" lon="-1.83478">
        <ele>60</ele>
        <time>2016-09-25T06:44:35Z</time>
      </trkpt>
      <trkpt lat="47.292" lon="-1.83441">
        <ele>61</ele>
        <time>2016-09-25T06:44:40Z</time>
      </trkpt>
      <trkpt lat="47.29186" lon="-1.83413">
        <ele>61</ele>
        <time>2016-09-25T06:44:44Z</time>
      </trkpt>
      <trkpt lat="47.29165" lon="-1.83373">
        <ele>59</ele>
        <time>2016-09-25T06:44:50Z</time>
      </trkpt>
      <trkpt lat="47.2915" lon="-1.83339">
        <ele>62</ele>
        <time>2016-09-25T06:44:56Z</time>
      </trkpt>
      <trkpt lat="47.29135" lon="-1.83299">
        <ele>63</ele>
        <time>2016-09-25T06:45:03Z</time>
      </trkpt>
      <trkpt lat="47.29121" lon="-1.83263">
        <ele>65</ele>
        <time>2016-09-25T06:45:08Z</time>
      </trkpt>
      <trkpt lat="47.29113" lon="-1.83241">
        <ele>63</ele>
        <time>2016-09-25T06:45:11Z</time>
      </trkpt>
      <trkpt lat="47.29104" lon="-1.83215">
        <ele>62</ele>
        <time>2016-09-25T06:45:14Z</time>
      </trkpt>
      <trkpt lat="47.29095" lon="-1.83188">
        <ele>61</ele>
        <time>2016-09-25T06:45:17Z</time>
      </trkpt>
      <trkpt lat="47.29085" lon="-1.83145">
        <ele>59</ele>
        <time>2016-09-25T06:45:22Z</time>
      </trkpt>
      <trkpt lat="47.29081" lon="-1.83101">
        <ele>60</ele>
        <time>2016-09-25T06:45:27Z</time>
      </trkpt>
      <trkpt lat="47.29076" lon="-1.83061">
        <ele>59</ele>
        <time>2016-09-25T06:45:32Z</time>
      </trkpt>
      <trkpt lat="47.29072" lon="-1.83036">
        <ele>59</ele>
        <time>2016-09-25T06:45:35Z</time>
      </trkpt>
      <trkpt lat="47.29067" lon="-1.82988">
        <ele>59</ele>
        <time>2016-09-25T06:45:40Z</time>
      </trkpt>
      <trkpt lat="47.29053" lon="-1.82948">
        <ele>58</ele>
        <time>2016-09-25T06:45:45Z</time>
      </trkpt>
      <trkpt lat="47.2904" lon="-1.82905">
        <ele>60</ele>
        <time>2016-09-25T06:45:51Z</time>
      </trkpt>
      <trkpt lat="47.29026" lon="-1.8287">
        <ele>61</ele>
        <time>2016-09-25T06:45:56Z</time>
      </trkpt>
      <trkpt lat="47.28995" lon="-1.82841">
        <ele>60</ele>
        <time>2016-09-25T06:46:02Z</time>
      </trkpt>
      <trkpt lat="47.28972" lon="-1.82812">
        <ele>59</ele>
        <time>2016-09-25T06:46:07Z</time>
      </trkpt>
      <trkpt lat="47.2895" lon="-1.82781">
        <ele>60</ele>
        <time>2016-09-25T06:46:12Z</time>
      </trkpt>
      <trkpt lat="47.28924" lon="-1.82746">
        <ele>61</ele>
        <time>2016-09-25T06:46:18Z</time>
      </trkpt>
      <trkpt lat="47.28906" lon="-1.82715">
        <ele>63</ele>
        <time>2016-09-25T06:46:23Z</time>
      </trkpt>
      <trkpt lat="47.28895" lon="-1.82694">
        <ele>61</ele>
        <time>2016-09-25T06:46:26Z</time>
      </trkpt>
      <trkpt lat="47.28814" lon="-1.82397">
        <ele>37</ele>
        <time>2016-09-25T06:47:01Z</time>
      </trkpt>
      <trkpt lat="47.28808" lon="-1.82346">
        <ele>48</ele>
        <time>2016-09-25T06:47:08Z</time>
      </trkpt>
      <trkpt lat="47.28803" lon="-1.82307">
        <ele>50</ele>
        <time>2016-09-25T06:47:13Z</time>
      </trkpt>
      <trkpt lat="47.2878" lon="-1.82303">
        <ele>57</ele>
        <time>2016-09-25T06:47:18Z</time>
      </trkpt>
      <trkpt lat="47.28764" lon="-1.8232">
        <ele>58</ele>
        <time>2016-09-25T06:47:21Z</time>
      </trkpt>
      <trkpt lat="47.28749" lon="-1.82337">
        <ele>60</ele>
        <time>2016-09-25T06:47:24Z</time>
      </trkpt>
      <trkpt lat="47.28733" lon="-1.82305">
        <ele>61</ele>
        <time>2016-09-25T06:47:30Z</time>
      </trkpt>
      <trkpt lat="47.28724" lon="-1.82261">
        <ele>61</ele>
        <time>2016-09-25T06:47:35Z</time>
      </trkpt>
      <trkpt lat="47.28716" lon="-1.82218">
        <ele>62</ele>
        <time>2016-09-25T06:47:40Z</time>
      </trkpt>
      <trkpt lat="47.28712" lon="-1.82191">
        <ele>62</ele>
        <time>2016-09-25T06:47:43Z</time>
      </trkpt>
      <trkpt lat="47.28708" lon="-1.82134">
        <ele>62</ele>
        <time>2016-09-25T06:47:49Z</time>
      </trkpt>
      <trkpt lat="47.28705" lon="-1.82107">
        <ele>62</ele>
        <time>2016-09-25T06:47:52Z</time>
      </trkpt>
      <trkpt lat="47.28702" lon="-1.8208">
        <ele>61</ele>
        <time>2016-09-25T06:47:55Z</time>
      </trkpt>
      <trkpt lat="47.28702" lon="-1.82036">
        <ele>62</ele>
        <time>2016-09-25T06:48:00Z</time>
      </trkpt>
      <trkpt lat="47.28695" lon="-1.81999">
        <ele>64</ele>
        <time>2016-09-25T06:48:05Z</time>
      </trkpt>
      <trkpt lat="47.28668" lon="-1.81968">
        <ele>62</ele>
        <time>2016-09-25T06:48:11Z</time>
      </trkpt>
      <trkpt lat="47.2865" lon="-1.81965">
        <ele>62</ele>
        <time>2016-09-25T06:48:14Z</time>
      </trkpt>
      <trkpt lat="47.28611" lon="-1.81954">
        <ele>60</ele>
        <time>2016-09-25T06:48:20Z</time>
      </trkpt>
      <trkpt lat="47.28593" lon="-1.8195">
        <ele>60</ele>
        <time>2016-09-25T06:48:23Z</time>
      </trkpt>
      <trkpt lat="47.28566" lon="-1.81947">
        <ele>59</ele>
        <time>2016-09-25T06:48:28Z</time>
      </trkpt>
      <trkpt lat="47.28572" lon="-1.81916">
        <ele>59</ele>
        <time>2016-09-25T06:48:36Z</time>
      </trkpt>
      <trkpt lat="47.2859" lon="-1.81889">
        <ele>60</ele>
        <time>2016-09-25T06:48:41Z</time>
      </trkpt>
      <trkpt lat="47.28603" lon="-1.81872">
        <ele>60</ele>
        <time>2016-09-25T06:48:44Z</time>
      </trkpt>
      <trkpt lat="47.28615" lon="-1.81854">
        <ele>59</ele>
        <time>2016-09-25T06:48:47Z</time>
      </trkpt>
      <trkpt lat="47.28636" lon="-1.81826">
        <ele>58</ele>
        <time>2016-09-25T06:48:52Z</time>
      </trkpt>
      <trkpt lat="47.28657" lon="-1.81795">
        <ele>57</ele>
        <time>2016-09-25T06:48:58Z</time>
      </trkpt>
      <trkpt lat="47.28681" lon="-1.81761">
        <ele>57</ele>
        <time>2016-09-25T06:49:04Z</time>
      </trkpt>
      <trkpt lat="47.28697" lon="-1.81747">
        <ele>59</ele>
        <time>2016-09-25T06:49:08Z</time>
      </trkpt>
      <trkpt lat="47.28719" lon="-1.81729">
        <ele>60</ele>
        <time>2016-09-25T06:49:12Z</time>
      </trkpt>
      <trkpt lat="47.28738" lon="-1.81696">
        <ele>60</ele>
        <time>2016-09-25T06:49:17Z</time>
      </trkpt>
      <trkpt lat="47.28748" lon="-1.81677">
        <ele>59</ele>
        <time>2016-09-25T06:49:20Z</time>
      </trkpt>
      <trkpt lat="47.2876" lon="-1.81658">
        <ele>59</ele>
        <time>2016-09-25T06:49:23Z</time>
      </trkpt>
      <trkpt lat="47.2877" lon="-1.81639">
        <ele>60</ele>
        <time>2016-09-25T06:49:26Z</time>
      </trkpt>
      <trkpt lat="47.28779" lon="-1.81622">
        <ele>60</ele>
        <time>2016-09-25T06:49:29Z</time>
      </trkpt>
      <trkpt lat="47.28786" lon="-1.81595">
        <ele>61</ele>
        <time>2016-09-25T06:49:34Z</time>
      </trkpt>
      <trkpt lat="47.28766" lon="-1.81557">
        <ele>61</ele>
        <time>2016-09-25T06:49:41Z</time>
      </trkpt>
      <trkpt lat="47.28752" lon="-1.81528">
        <ele>61</ele>
        <time>2016-09-25T06:49:46Z</time>
      </trkpt>
      <trkpt lat="47.2876" lon="-1.815">
        <ele>60</ele>
        <time>2016-09-25T06:49:51Z</time>
      </trkpt>
      <trkpt lat="47.28785" lon="-1.81484">
        <ele>57</ele>
        <time>2016-09-25T06:49:56Z</time>
      </trkpt>
      <trkpt lat="47.28807" lon="-1.81466">
        <ele>59</ele>
        <time>2016-09-25T06:50:01Z</time>
      </trkpt>
      <trkpt lat="47.28822" lon="-1.81457">
        <ele>60</ele>
        <time>2016-09-25T06:50:05Z</time>
      </trkpt>
      <trkpt lat="47.28829" lon="-1.81446">
        <ele>59</ele>
        <time>2016-09-25T06:50:10Z</time>
      </trkpt>
      <trkpt lat="47.2886" lon="-1.81422">
        <ele>56</ele>
        <time>2016-09-25T06:50:19Z</time>
      </trkpt>
      <trkpt lat="47.28872" lon="-1.81412">
        <ele>56</ele>
        <time>2016-09-25T06:50:22Z</time>
      </trkpt>
      <trkpt lat="47.28886" lon="-1.81403">
        <ele>57</ele>
        <time>2016-09-25T06:50:25Z</time>
      </trkpt>
      <trkpt lat="47.28907" lon="-1.81389">
        <ele>57</ele>
        <time>2016-09-25T06:50:30Z</time>
      </trkpt>
      <trkpt lat="47.28931" lon="-1.81373">
        <ele>58</ele>
        <time>2016-09-25T06:50:36Z</time>
      </trkpt>
      <trkpt lat="47.28949" lon="-1.81358">
        <ele>58</ele>
        <time>2016-09-25T06:50:41Z</time>
      </trkpt>
      <trkpt lat="47.28957" lon="-1.81326">
        <ele>61</ele>
        <time>2016-09-25T06:50:47Z</time>
      </trkpt>
      <trkpt lat="47.28962" lon="-1.81289">
        <ele>65</ele>
        <time>2016-09-25T06:50:53Z</time>
      </trkpt>
      <trkpt lat="47.28967" lon="-1.81239">
        <ele>60</ele>
        <time>2016-09-25T06:50:59Z</time>
      </trkpt>
      <trkpt lat="47.28975" lon="-1.81188">
        <ele>61</ele>
        <time>2016-09-25T06:51:06Z</time>
      </trkpt>
      <trkpt lat="47.28984" lon="-1.81154">
        <ele>62</ele>
        <time>2016-09-25T06:51:11Z</time>
      </trkpt>
      <trkpt lat="47.28994" lon="-1.81115">
        <ele>64</ele>
        <time>2016-09-25T06:51:16Z</time>
      </trkpt>
      <trkpt lat="47.2901" lon="-1.8107">
        <ele>63</ele>
        <time>2016-09-25T06:51:22Z</time>
      </trkpt>
      <trkpt lat="47.29018" lon="-1.81049">
        <ele>63</ele>
        <time>2016-09-25T06:51:25Z</time>
      </trkpt>
      <trkpt lat="47.29029" lon="-1.81031">
        <ele>62</ele>
        <time>2016-09-25T06:51:28Z</time>
      </trkpt>
      <trkpt lat="47.29054" lon="-1.81002">
        <ele>63</ele>
        <time>2016-09-25T06:51:34Z</time>
      </trkpt>
      <trkpt lat="47.29067" lon="-1.80966">
        <ele>66</ele>
        <time>2016-09-25T06:51:40Z</time>
      </trkpt>
      <trkpt lat="47.29054" lon="-1.80934">
        <ele>64</ele>
        <time>2016-09-25T06:51:45Z</time>
      </trkpt>
      <trkpt lat="47.29027" lon="-1.809">
        <ele>64</ele>
        <time>2016-09-25T06:51:51Z</time>
      </trkpt>
      <trkpt lat="47.29" lon="-1.80875">
        <ele>64</ele>
        <time>2016-09-25T06:51:56Z</time>
      </trkpt>
      <trkpt lat="47.28971" lon="-1.80842">
        <ele>64</ele>
        <time>2016-09-25T06:52:02Z</time>
      </trkpt>
      <trkpt lat="47.28956" lon="-1.80822">
        <ele>65</ele>
        <time>2016-09-25T06:52:05Z</time>
      </trkpt>
      <trkpt lat="47.28935" lon="-1.80789">
        <ele>66</ele>
        <time>2016-09-25T06:52:10Z</time>
      </trkpt>
      <trkpt lat="47.28911" lon="-1.80758">
        <ele>66</ele>
        <time>2016-09-25T06:52:16Z</time>
      </trkpt>
      <trkpt lat="47.28888" lon="-1.80721">
        <ele>63</ele>
        <time>2016-09-25T06:52:22Z</time>
      </trkpt>
      <trkpt lat="47.28872" lon="-1.80678">
        <ele>62</ele>
        <time>2016-09-25T06:52:28Z</time>
      </trkpt>
      <trkpt lat="47.28858" lon="-1.80646">
        <ele>70</ele>
        <time>2016-09-25T06:52:34Z</time>
      </trkpt>
      <trkpt lat="47.2885" lon="-1.8061">
        <ele>67</ele>
        <time>2016-09-25T06:52:39Z</time>
      </trkpt>
      <trkpt lat="47.28841" lon="-1.80568">
        <ele>66</ele>
        <time>2016-09-25T06:52:46Z</time>
      </trkpt>
      <trkpt lat="47.28834" lon="-1.80536">
        <ele>66</ele>
        <time>2016-09-25T06:52:52Z</time>
      </trkpt>
      <trkpt lat="47.28832" lon="-1.80512">
        <ele>76</ele>
        <time>2016-09-25T06:52:58Z</time>
      </trkpt>
      <trkpt lat="47.28824" lon="-1.80484">
        <ele>79</ele>
        <time>2016-09-25T06:53:04Z</time>
      </trkpt>
      <trkpt lat="47.28822" lon="-1.80455">
        <ele>76</ele>
        <time>2016-09-25T06:53:12Z</time>
      </trkpt>
      <trkpt lat="47.28813" lon="-1.80422">
        <ele>83</ele>
        <time>2016-09-25T06:53:21Z</time>
      </trkpt>
      <trkpt lat="47.28802" lon="-1.80383">
        <ele>82</ele>
        <time>2016-09-25T06:53:27Z</time>
      </trkpt>
      <trkpt lat="47.28791" lon="-1.80356">
        <ele>78</ele>
        <time>2016-09-25T06:53:31Z</time>
      </trkpt>
      <trkpt lat="47.28777" lon="-1.80326">
        <ele>77</ele>
        <time>2016-09-25T06:53:37Z</time>
      </trkpt>
      <trkpt lat="47.28764" lon="-1.8029">
        <ele>81</ele>
        <time>2016-09-25T06:53:44Z</time>
      </trkpt>
      <trkpt lat="47.28753" lon="-1.80261">
        <ele>79</ele>
        <time>2016-09-25T06:53:49Z</time>
      </trkpt>
      <trkpt lat="47.28735" lon="-1.80239">
        <ele>79</ele>
        <time>2016-09-25T06:53:54Z</time>
      </trkpt>
      <trkpt lat="47.28719" lon="-1.80221">
        <ele>80</ele>
        <time>2016-09-25T06:53:59Z</time>
      </trkpt>
      <trkpt lat="47.28699" lon="-1.80184">
        <ele>77</ele>
        <time>2016-09-25T06:54:05Z</time>
      </trkpt>
      <trkpt lat="47.28688" lon="-1.80162">
        <ele>80</ele>
        <time>2016-09-25T06:54:10Z</time>
      </trkpt>
      <trkpt lat="47.28673" lon="-1.80129">
        <ele>83</ele>
        <time>2016-09-25T06:54:17Z</time>
      </trkpt>
      <trkpt lat="47.28658" lon="-1.80097">
        <ele>83</ele>
        <time>2016-09-25T06:54:24Z</time>
      </trkpt>
      <trkpt lat="47.28645" lon="-1.8007">
        <ele>82</ele>
        <time>2016-09-25T06:54:29Z</time>
      </trkpt>
      <trkpt lat="47.28627" lon="-1.80032">
        <ele>80</ele>
        <time>2016-09-25T06:54:36Z</time>
      </trkpt>
      <trkpt lat="47.28611" lon="-1.7999">
        <ele>80</ele>
        <time>2016-09-25T06:54:42Z</time>
      </trkpt>
      <trkpt lat="47.28585" lon="-1.79945">
        <ele>81</ele>
        <time>2016-09-25T06:54:49Z</time>
      </trkpt>
      <trkpt lat="47.28565" lon="-1.79909">
        <ele>79</ele>
        <time>2016-09-25T06:54:54Z</time>
      </trkpt>
      <trkpt lat="47.28542" lon="-1.79873">
        <ele>79</ele>
        <time>2016-09-25T06:55:00Z</time>
      </trkpt>
      <trkpt lat="47.28522" lon="-1.79845">
        <ele>81</ele>
        <time>2016-09-25T06:55:05Z</time>
      </trkpt>
      <trkpt lat="47.28502" lon="-1.79808">
        <ele>80</ele>
        <time>2016-09-25T06:55:11Z</time>
      </trkpt>
      <trkpt lat="47.28487" lon="-1.79773">
        <ele>83</ele>
        <time>2016-09-25T06:55:16Z</time>
      </trkpt>
      <trkpt lat="47.28474" lon="-1.7972">
        <ele>80</ele>
        <time>2016-09-25T06:55:22Z</time>
      </trkpt>
      <trkpt lat="47.2846" lon="-1.79676">
        <ele>82</ele>
        <time>2016-09-25T06:55:28Z</time>
      </trkpt>
      <trkpt lat="47.28445" lon="-1.79626">
        <ele>78</ele>
        <time>2016-09-25T06:55:34Z</time>
      </trkpt>
      <trkpt lat="47.28436" lon="-1.796">
        <ele>77</ele>
        <time>2016-09-25T06:55:37Z</time>
      </trkpt>
      <trkpt lat="47.28431" lon="-1.79576">
        <ele>77</ele>
        <time>2016-09-25T06:55:40Z</time>
      </trkpt>
      <trkpt lat="47.28426" lon="-1.79552">
        <ele>77</ele>
        <time>2016-09-25T06:55:43Z</time>
      </trkpt>
      <trkpt lat="47.28418" lon="-1.79498">
        <ele>74</ele>
        <time>2016-09-25T06:55:49Z</time>
      </trkpt>
      <trkpt lat="47.28411" lon="-1.79447">
        <ele>73</ele>
        <time>2016-09-25T06:55:55Z</time>
      </trkpt>
      <trkpt lat="47.28409" lon="-1.79402">
        <ele>74</ele>
        <time>2016-09-25T06:56:00Z</time>
      </trkpt>
      <trkpt lat="47.28407" lon="-1.7935">
        <ele>74</ele>
        <time>2016-09-25T06:56:06Z</time>
      </trkpt>
      <trkpt lat="47.28405" lon="-1.79312">
        <ele>78</ele>
        <time>2016-09-25T06:56:11Z</time>
      </trkpt>
      <trkpt lat="47.284" lon="-1.79285">
        <ele>75</ele>
        <time>2016-09-25T06:56:14Z</time>
      </trkpt>
      <trkpt lat="47.28406" lon="-1.79242">
        <ele>78</ele>
        <time>2016-09-25T06:56:20Z</time>
      </trkpt>
      <trkpt lat="47.28414" lon="-1.79212">
        <ele>77</ele>
        <time>2016-09-25T06:56:25Z</time>
      </trkpt>
      <trkpt lat="47.28411" lon="-1.7916">
        <ele>77</ele>
        <time>2016-09-25T06:56:32Z</time>
      </trkpt>
      <trkpt lat="47.28398" lon="-1.7913">
        <ele>78</ele>
        <time>2016-09-25T06:56:37Z</time>
      </trkpt>
      <trkpt lat="47.28389" lon="-1.79109">
        <ele>77</ele>
        <time>2016-09-25T06:56:41Z</time>
      </trkpt>
      <trkpt lat="47.28378" lon="-1.79069">
        <ele>78</ele>
        <time>2016-09-25T06:56:47Z</time>
      </trkpt>
      <trkpt lat="47.2837" lon="-1.79036">
        <ele>79</ele>
        <time>2016-09-25T06:56:52Z</time>
      </trkpt>
      <trkpt lat="47.28365" lon="-1.78994">
        <ele>82</ele>
        <time>2016-09-25T06:56:59Z</time>
      </trkpt>
      <trkpt lat="47.28372" lon="-1.78966">
        <ele>85</ele>
        <time>2016-09-25T06:57:05Z</time>
      </trkpt>
      <trkpt lat="47.28373" lon="-1.78939">
        <ele>86</ele>
        <time>2016-09-25T06:57:11Z</time>
      </trkpt>
      <trkpt lat="47.28374" lon="-1.78911">
        <ele>86</ele>
        <time>2016-09-25T06:57:17Z</time>
      </trkpt>
      <trkpt lat="47.28382" lon="-1.78881">
        <ele>89</ele>
        <time>2016-09-25T06:57:23Z</time>
      </trkpt>
      <trkpt lat="47.28388" lon="-1.78863">
        <ele>92</ele>
        <time>2016-09-25T06:57:29Z</time>
      </trkpt>
      <trkpt lat="47.284" lon="-1.78851">
        <ele>94</ele>
        <time>2016-09-25T06:57:36Z</time>
      </trkpt>
      <trkpt lat="47.28406" lon="-1.78865">
        <ele>98</ele>
        <time>2016-09-25T06:57:44Z</time>
      </trkpt>
      <trkpt lat="47.28416" lon="-1.78893">
        <ele>98</ele>
        <time>2016-09-25T06:57:49Z</time>
      </trkpt>
      <trkpt lat="47.28431" lon="-1.78928">
        <ele>97</ele>
        <time>2016-09-25T06:57:54Z</time>
      </trkpt>
      <trkpt lat="47.28445" lon="-1.7897">
        <ele>96</ele>
        <time>2016-09-25T06:58:00Z</time>
      </trkpt>
      <trkpt lat="47.28471" lon="-1.79002">
        <ele>94</ele>
        <time>2016-09-25T06:58:07Z</time>
      </trkpt>
      <trkpt lat="47.28502" lon="-1.78995">
        <ele>91</ele>
        <time>2016-09-25T06:58:12Z</time>
      </trkpt>
      <trkpt lat="47.28516" lon="-1.78986">
        <ele>91</ele>
        <time>2016-09-25T06:58:15Z</time>
      </trkpt>
      <trkpt lat="47.28528" lon="-1.79003">
        <ele>94</ele>
        <time>2016-09-25T06:58:21Z</time>
      </trkpt>
      <trkpt lat="47.28532" lon="-1.79034">
        <ele>97</ele>
        <time>2016-09-25T06:58:26Z</time>
      </trkpt>
      <trkpt lat="47.28535" lon="-1.79073">
        <ele>100</ele>
        <time>2016-09-25T06:58:32Z</time>
      </trkpt>
      <trkpt lat="47.28538" lon="-1.79108">
        <ele>98</ele>
        <time>2016-09-25T06:58:36Z</time>
      </trkpt>
      <trkpt lat="47.28544" lon="-1.79147">
        <ele>99</ele>
        <time>2016-09-25T06:58:41Z</time>
      </trkpt>
      <trkpt lat="47.28563" lon="-1.79182">
        <ele>93</ele>
        <time>2016-09-25T06:58:46Z</time>
      </trkpt>
      <trkpt lat="47.28579" lon="-1.79212">
        <ele>89</ele>
        <time>2016-09-25T06:58:52Z</time>
      </trkpt>
      <trkpt lat="47.28598" lon="-1.79247">
        <ele>89</ele>
        <time>2016-09-25T06:58:59Z</time>
      </trkpt>
      <trkpt lat="47.28611" lon="-1.79268">
        <ele>89</ele>
        <time>2016-09-25T06:59:04Z</time>
      </trkpt>
      <trkpt lat="47.28631" lon="-1.79285">
        <ele>92</ele>
        <time>2016-09-25T06:59:09Z</time>
      </trkpt>
      <trkpt lat="47.28642" lon="-1.79285">
        <ele>95</ele>
        <time>2016-09-25T06:59:14Z</time>
      </trkpt>
      <trkpt lat="47.28659" lon="-1.79285">
        <ele>101</ele>
        <time>2016-09-25T06:59:27Z</time>
      </trkpt>
      <trkpt lat="47.28684" lon="-1.79274">
        <ele>102</ele>
        <time>2016-09-25T06:59:43Z</time>
      </trkpt>
      <trkpt lat="47.287" lon="-1.79254">
        <ele>104</ele>
        <time>2016-09-25T06:59:54Z</time>
      </trkpt>
      <trkpt lat="47.28709" lon="-1.7928">
        <ele>110</ele>
        <time>2016-09-25T07:00:04Z</time>
      </trkpt>
      <trkpt lat="47.28721" lon="-1.79333">
        <ele>107</ele>
        <time>2016-09-25T07:00:10Z</time>
      </trkpt>
      <trkpt lat="47.28733" lon="-1.7939">
        <ele>106</ele>
        <time>2016-09-25T07:00:15Z</time>
      </trkpt>
      <trkpt lat="47.28742" lon="-1.79447">
        <ele>104</ele>
        <time>2016-09-25T07:00:20Z</time>
      </trkpt>
      <trkpt lat="47.28742" lon="-1.79518">
        <ele>102</ele>
        <time>2016-09-25T07:00:27Z</time>
      </trkpt>
      <trkpt lat="47.28754" lon="-1.79546">
        <ele>100</ele>
        <time>2016-09-25T07:00:32Z</time>
      </trkpt>
      <trkpt lat="47.28775" lon="-1.79602">
        <ele>98</ele>
        <time>2016-09-25T07:00:41Z</time>
      </trkpt>
      <trkpt lat="47.28795" lon="-1.79637">
        <ele>97</ele>
        <time>2016-09-25T07:00:48Z</time>
      </trkpt>
      <trkpt lat="47.28813" lon="-1.79657">
        <ele>98</ele>
        <time>2016-09-25T07:00:54Z</time>
      </trkpt>
      <trkpt lat="47.28844" lon="-1.79689">
        <ele>97</ele>
        <time>2016-09-25T07:01:02Z</time>
      </trkpt>
      <trkpt lat="47.28868" lon="-1.79721">
        <ele>92</ele>
        <time>2016-09-25T07:01:08Z</time>
      </trkpt>
      <trkpt lat="47.2889" lon="-1.79741">
        <ele>95</ele>
        <time>2016-09-25T07:01:16Z</time>
      </trkpt>
      <trkpt lat="47.28914" lon="-1.79791">
        <ele>98</ele>
        <time>2016-09-25T07:01:29Z</time>
      </trkpt>
      <trkpt lat="47.28926" lon="-1.79819">
        <ele>102</ele>
        <time>2016-09-25T07:01:36Z</time>
      </trkpt>
      <trkpt lat="47.28942" lon="-1.79846">
        <ele>102</ele>
        <time>2016-09-25T07:01:41Z</time>
      </trkpt>
      <trkpt lat="47.2896" lon="-1.7989">
        <ele>109</ele>
        <time>2016-09-25T07:01:47Z</time>
      </trkpt>
      <trkpt lat="47.28964" lon="-1.79928">
        <ele>114</ele>
        <time>2016-09-25T07:01:51Z</time>
      </trkpt>
      <trkpt lat="47.28968" lon="-1.7995">
        <ele>112</ele>
        <time>2016-09-25T07:01:54Z</time>
      </trkpt>
      <trkpt lat="47.28977" lon="-1.80007">
        <ele>112</ele>
        <time>2016-09-25T07:01:59Z</time>
      </trkpt>
      <trkpt lat="47.28993" lon="-1.80058">
        <ele>114</ele>
        <time>2016-09-25T07:02:05Z</time>
      </trkpt>
      <trkpt lat="47.28995" lon="-1.80099">
        <ele>104</ele>
        <time>2016-09-25T07:02:12Z</time>
      </trkpt>
      <trkpt lat="47.28998" lon="-1.80122">
        <ele>103</ele>
        <time>2016-09-25T07:02:17Z</time>
      </trkpt>
      <trkpt lat="47.29015" lon="-1.8014">
        <ele>100</ele>
        <time>2016-09-25T07:02:23Z</time>
      </trkpt>
      <trkpt lat="47.29022" lon="-1.80159">
        <ele>93</ele>
        <time>2016-09-25T07:02:30Z</time>
      </trkpt>
      <trkpt lat="47.29048" lon="-1.80208">
        <ele>88</ele>
        <time>2016-09-25T07:02:38Z</time>
      </trkpt>
      <trkpt lat="47.29046" lon="-1.8023">
        <ele>91</ele>
        <time>2016-09-25T07:02:44Z</time>
      </trkpt>
      <trkpt lat="47.29069" lon="-1.80271">
        <ele>83</ele>
        <time>2016-09-25T07:02:56Z</time>
      </trkpt>
      <trkpt lat="47.29078" lon="-1.80291">
        <ele>87</ele>
        <time>2016-09-25T07:03:11Z</time>
      </trkpt>
      <trkpt lat="47.29093" lon="-1.80312">
        <ele>87</ele>
        <time>2016-09-25T07:03:20Z</time>
      </trkpt>
      <trkpt lat="47.29096" lon="-1.80316">
        <ele>90</ele>
        <time>2016-09-25T07:03:29Z</time>
      </trkpt>
      <trkpt lat="47.29108" lon="-1.80337">
        <ele>92</ele>
        <time>2016-09-25T07:03:47Z</time>
      </trkpt>
      <trkpt lat="47.29108" lon="-1.80337">
        <ele>92</ele>
        <time>2016-09-25T07:03:55Z</time>
      </trkpt>
      <trkpt lat="47.29112" lon="-1.8035">
        <ele>94</ele>
        <time>2016-09-25T07:04:02Z</time>
      </trkpt>
      <trkpt lat="47.29121" lon="-1.80364">
        <ele>95</ele>
        <time>2016-09-25T07:04:17Z</time>
      </trkpt>
      <trkpt lat="47.29124" lon="-1.80376">
        <ele>89</ele>
        <time>2016-09-25T07:04:28Z</time>
      </trkpt>
      <trkpt lat="47.29121" lon="-1.80382">
        <ele>89</ele>
        <time>2016-09-25T07:04:42Z</time>
      </trkpt>
      <trkpt lat="47.29128" lon="-1.80402">
        <ele>92</ele>
        <time>2016-09-25T07:04:51Z</time>
      </trkpt>
      <trkpt lat="47.29128" lon="-1.80402">
        <ele>92</ele>
        <time>2016-09-25T07:04:56Z</time>
      </trkpt>
      <trkpt lat="47.29135" lon="-1.80416">
        <ele>95</ele>
        <time>2016-09-25T07:05:00Z</time>
      </trkpt>
      <trkpt lat="47.29148" lon="-1.80442">
        <ele>100</ele>
        <time>2016-09-25T07:05:07Z</time>
      </trkpt>
      <trkpt lat="47.29161" lon="-1.80487">
        <ele>100</ele>
        <time>2016-09-25T07:05:15Z</time>
      </trkpt>
      <trkpt lat="47.29171" lon="-1.8052">
        <ele>100</ele>
        <time>2016-09-25T07:05:21Z</time>
      </trkpt>
      <trkpt lat="47.29183" lon="-1.80548">
        <ele>95</ele>
        <time>2016-09-25T07:05:26Z</time>
      </trkpt>
      <trkpt lat="47.29199" lon="-1.80596">
        <ele>91</ele>
        <time>2016-09-25T07:05:33Z</time>
      </trkpt>
      <trkpt lat="47.29212" lon="-1.80644">
        <ele>89</ele>
        <time>2016-09-25T07:05:39Z</time>
      </trkpt>
      <trkpt lat="47.29221" lon="-1.80681">
        <ele>91</ele>
        <time>2016-09-25T07:05:44Z</time>
      </trkpt>
      <trkpt lat="47.29229" lon="-1.80733">
        <ele>95</ele>
        <time>2016-09-25T07:05:50Z</time>
      </trkpt>
      <trkpt lat="47.29232" lon="-1.80784">
        <ele>94</ele>
        <time>2016-09-25T07:05:56Z</time>
      </trkpt>
      <trkpt lat="47.29245" lon="-1.80848">
        <ele>88</ele>
        <time>2016-09-25T07:06:02Z</time>
      </trkpt>
      <trkpt lat="47.29254" lon="-1.80894">
        <ele>90</ele>
        <time>2016-09-25T07:06:08Z</time>
      </trkpt>
      <trkpt lat="47.2926" lon="-1.80926">
        <ele>92</ele>
        <time>2016-09-25T07:06:13Z</time>
      </trkpt>
      <trkpt lat="47.29277" lon="-1.80923">
        <ele>84</ele>
        <time>2016-09-25T07:06:20Z</time>
      </trkpt>
      <trkpt lat="47.29297" lon="-1.8091">
        <ele>85</ele>
        <time>2016-09-25T07:06:25Z</time>
      </trkpt>
      <trkpt lat="47.29384" lon="-1.80817">
        <ele>117</ele>
        <time>2016-09-25T07:07:01Z</time>
      </trkpt>
      <trkpt lat="47.29391" lon="-1.80812">
        <ele>108</ele>
        <time>2016-09-25T07:07:06Z</time>
      </trkpt>
      <trkpt lat="47.29391" lon="-1.80811">
        <ele>102</ele>
        <time>2016-09-25T07:07:12Z</time>
      </trkpt>
      <trkpt lat="47.29413" lon="-1.80781">
        <ele>99</ele>
        <time>2016-09-25T07:08:03Z</time>
      </trkpt>
      <trkpt lat="47.29437" lon="-1.80741">
        <ele>110</ele>
        <time>2016-09-25T07:08:20Z</time>
      </trkpt>
      <trkpt lat="47.2945" lon="-1.80736">
        <ele>113</ele>
        <time>2016-09-25T07:08:32Z</time>
      </trkpt>
      <trkpt lat="47.29467" lon="-1.8072">
        <ele>109</ele>
        <time>2016-09-25T07:08:48Z</time>
      </trkpt>
      <trkpt lat="47.29484" lon="-1.80705">
        <ele>109</ele>
        <time>2016-09-25T07:09:04Z</time>
      </trkpt>
      <trkpt lat="47.29499" lon="-1.80704">
        <ele>108</ele>
        <time>2016-09-25T07:09:17Z</time>
      </trkpt>
      <trkpt lat="47.29521" lon="-1.80697">
        <ele>111</ele>
        <time>2016-09-25T07:09:31Z</time>
      </trkpt>
      <trkpt lat="47.29536" lon="-1.80683">
        <ele>111</ele>
        <time>2016-09-25T07:09:42Z</time>
      </trkpt>
      <trkpt lat="47.29554" lon="-1.8066">
        <ele>111</ele>
        <time>2016-09-25T07:09:55Z</time>
      </trkpt>
      <trkpt lat="47.29564" lon="-1.80652">
        <ele>114</ele>
        <time>2016-09-25T07:10:00Z</time>
      </trkpt>
      <trkpt lat="47.29574" lon="-1.80633">
        <ele>115</ele>
        <time>2016-09-25T07:10:06Z</time>
      </trkpt>
      <trkpt lat="47.29585" lon="-1.80618">
        <ele>117</ele>
        <time>2016-09-25T07:10:11Z</time>
      </trkpt>
      <trkpt lat="47.29597" lon="-1.80605">
        <ele>117</ele>
        <time>2016-09-25T07:10:18Z</time>
      </trkpt>
      <trkpt lat="47.29647" lon="-1.8057">
        <ele>120</ele>
        <time>2016-09-25T07:10:33Z</time>
      </trkpt>
      <trkpt lat="47.29678" lon="-1.80557">
        <ele>121</ele>
        <time>2016-09-25T07:10:40Z</time>
      </trkpt>
      <trkpt lat="47.29705" lon="-1.80539">
        <ele>119</ele>
        <time>2016-09-25T07:10:46Z</time>
      </trkpt>
      <trkpt lat="47.2974" lon="-1.80514">
        <ele>118</ele>
        <time>2016-09-25T07:10:53Z</time>
      </trkpt>
      <trkpt lat="47.29748" lon="-1.80539">
        <ele>117</ele>
        <time>2016-09-25T07:11:00Z</time>
      </trkpt>
      <trkpt lat="47.29743" lon="-1.80586">
        <ele>115</ele>
        <time>2016-09-25T07:11:08Z</time>
      </trkpt>
      <trkpt lat="47.29739" lon="-1.80622">
        <ele>119</ele>
        <time>2016-09-25T07:11:14Z</time>
      </trkpt>
      <trkpt lat="47.29736" lon="-1.80658">
        <ele>118</ele>
        <time>2016-09-25T07:11:20Z</time>
      </trkpt>
      <trkpt lat="47.29731" lon="-1.80697">
        <ele>117</ele>
        <time>2016-09-25T07:11:26Z</time>
      </trkpt>
      <trkpt lat="47.29727" lon="-1.80721">
        <ele>116</ele>
        <time>2016-09-25T07:11:29Z</time>
      </trkpt>
      <trkpt lat="47.2972" lon="-1.80771">
        <ele>117</ele>
        <time>2016-09-25T07:11:35Z</time>
      </trkpt>
      <trkpt lat="47.29712" lon="-1.80831">
        <ele>115</ele>
        <time>2016-09-25T07:11:41Z</time>
      </trkpt>
      <trkpt lat="47.29707" lon="-1.80863">
        <ele>113</ele>
        <time>2016-09-25T07:11:44Z</time>
      </trkpt>
      <trkpt lat="47.297" lon="-1.80915">
        <ele>114</ele>
        <time>2016-09-25T07:11:49Z</time>
      </trkpt>
      <trkpt lat="47.29691" lon="-1.80985">
        <ele>110</ele>
        <time>2016-09-25T07:11:55Z</time>
      </trkpt>
      <trkpt lat="47.29684" lon="-1.8104">
        <ele>107</ele>
        <time>2016-09-25T07:12:00Z</time>
      </trkpt>
      <trkpt lat="47.29669" lon="-1.8111">
        <ele>106</ele>
        <time>2016-09-25T07:12:06Z</time>
      </trkpt>
      <trkpt lat="47.29659" lon="-1.81184">
        <ele>105</ele>
        <time>2016-09-25T07:12:12Z</time>
      </trkpt>
      <trkpt lat="47.29652" lon="-1.81258">
        <ele>101</ele>
        <time>2016-09-25T07:12:18Z</time>
      </trkpt>
      <trkpt lat="47.29648" lon="-1.81306">
        <ele>102</ele>
        <time>2016-09-25T07:12:22Z</time>
      </trkpt>
      <trkpt lat="47.29642" lon="-1.81362">
        <ele>104</ele>
        <time>2016-09-25T07:12:27Z</time>
      </trkpt>
      <trkpt lat="47.29639" lon="-1.81394">
        <ele>100</ele>
        <time>2016-09-25T07:12:33Z</time>
      </trkpt>
      <trkpt lat="47.29639" lon="-1.81394">
        <ele>100</ele>
        <time>2016-09-25T07:12:38Z</time>
      </trkpt>
      <trkpt lat="47.29639" lon="-1.81394">
        <ele>100</ele>
        <time>2016-09-25T07:12:39Z</time>
      </trkpt>
      <trkpt lat="47.2966" lon="-1.8136">
        <ele>95</ele>
        <time>2016-09-25T07:12:45Z</time>
      </trkpt>
      <trkpt lat="47.29674" lon="-1.8134">
        <ele>95</ele>
        <time>2016-09-25T07:12:50Z</time>
      </trkpt>
      <trkpt lat="47.29694" lon="-1.8132">
        <ele>96</ele>
        <time>2016-09-25T07:13:00Z</time>
      </trkpt>
      <trkpt lat="47.29715" lon="-1.81315">
        <ele>99</ele>
        <time>2016-09-25T07:13:11Z</time>
      </trkpt>
      <trkpt lat="47.29737" lon="-1.81318">
        <ele>102</ele>
        <time>2016-09-25T07:13:22Z</time>
      </trkpt>
      <trkpt lat="47.29753" lon="-1.81314">
        <ele>105</ele>
        <time>2016-09-25T07:13:33Z</time>
      </trkpt>
      <trkpt lat="47.29772" lon="-1.81317">
        <ele>106</ele>
        <time>2016-09-25T07:13:44Z</time>
      </trkpt>
      <trkpt lat="47.29786" lon="-1.81317">
        <ele>112</ele>
        <time>2016-09-25T07:13:58Z</time>
      </trkpt>
      <trkpt lat="47.298" lon="-1.81326">
        <ele>114</ele>
        <time>2016-09-25T07:14:08Z</time>
      </trkpt>
      <trkpt lat="47.29816" lon="-1.81337">
        <ele>119</ele>
        <time>2016-09-25T07:14:19Z</time>
      </trkpt>
      <trkpt lat="47.29825" lon="-1.81352">
        <ele>122</ele>
        <time>2016-09-25T07:14:27Z</time>
      </trkpt>
      <trkpt lat="47.29839" lon="-1.81379">
        <ele>122</ele>
        <time>2016-09-25T07:14:39Z</time>
      </trkpt>
      <trkpt lat="47.29845" lon="-1.81407">
        <ele>118</ele>
        <time>2016-09-25T07:14:47Z</time>
      </trkpt>
      <trkpt lat="47.29842" lon="-1.81437">
        <ele>115</ele>
        <time>2016-09-25T07:15:01Z</time>
      </trkpt>
      <trkpt lat="47.29831" lon="-1.81462">
        <ele>118</ele>
        <time>2016-09-25T07:15:11Z</time>
      </trkpt>
      <trkpt lat="47.29832" lon="-1.81476">
        <ele>120</ele>
        <time>2016-09-25T07:15:20Z</time>
      </trkpt>
      <trkpt lat="47.29827" lon="-1.81489">
        <ele>114</ele>
        <time>2016-09-25T07:15:35Z</time>
      </trkpt>
      <trkpt lat="47.29831" lon="-1.81533">
        <ele>115</ele>
        <time>2016-09-25T07:15:49Z</time>
      </trkpt>
      <trkpt lat="47.29826" lon="-1.8155">
        <ele>112</ele>
        <time>2016-09-25T07:15:59Z</time>
      </trkpt>
      <trkpt lat="47.2981" lon="-1.81543">
        <ele>108</ele>
        <time>2016-09-25T07:16:06Z</time>
      </trkpt>
      <trkpt lat="47.29803" lon="-1.81559">
        <ele>110</ele>
        <time>2016-09-25T07:16:14Z</time>
      </trkpt>
      <trkpt lat="47.29803" lon="-1.81559">
        <ele>110</ele>
        <time>2016-09-25T07:16:21Z</time>
      </trkpt>
      <trkpt lat="47.29803" lon="-1.81559">
        <ele>110</ele>
        <time>2016-09-25T07:16:22Z</time>
      </trkpt>
      <trkpt lat="47.29818" lon="-1.8158">
        <ele>110</ele>
        <time>2016-09-25T07:16:30Z</time>
      </trkpt>
      <trkpt lat="47.2982" lon="-1.81588">
        <ele>108</ele>
        <time>2016-09-25T07:16:33Z</time>
      </trkpt>
      <trkpt lat="47.29818" lon="-1.81587">
        <ele>106</ele>
        <time>2016-09-25T07:16:39Z</time>
      </trkpt>
      <trkpt lat="47.29804" lon="-1.816">
        <ele>107</ele>
        <time>2016-09-25T07:16:54Z</time>
      </trkpt>
      <trkpt lat="47.29802" lon="-1.81627">
        <ele>106</ele>
        <time>2016-09-25T07:17:03Z</time>
      </trkpt>
      <trkpt lat="47.29809" lon="-1.81644">
        <ele>102</ele>
        <time>2016-09-25T07:17:08Z</time>
      </trkpt>
      <trkpt lat="47.29809" lon="-1.81644">
        <ele>102</ele>
        <time>2016-09-25T07:17:13Z</time>
      </trkpt>
      <trkpt lat="47.29809" lon="-1.81644">
        <ele>102</ele>
        <time>2016-09-25T07:17:14Z</time>
      </trkpt>
      <trkpt lat="47.29818" lon="-1.81622">
        <ele>101</ele>
        <time>2016-09-25T07:17:26Z</time>
      </trkpt>
      <trkpt lat="47.29824" lon="-1.81607">
        <ele>95</ele>
        <time>2016-09-25T07:17:32Z</time>
      </trkpt>
      <trkpt lat="47.29829" lon="-1.81594">
        <ele>102</ele>
        <time>2016-09-25T07:17:40Z</time>
      </trkpt>
      <trkpt lat="47.29854" lon="-1.81554">
        <ele>105</ele>
        <time>2016-09-25T07:17:56Z</time>
      </trkpt>
      <trkpt lat="47.29864" lon="-1.81549">
        <ele>108</ele>
        <time>2016-09-25T07:18:00Z</time>
      </trkpt>
      <trkpt lat="47.29869" lon="-1.81567">
        <ele>118</ele>
        <time>2016-09-25T07:18:13Z</time>
      </trkpt>
      <trkpt lat="47.29864" lon="-1.81599">
        <ele>112</ele>
        <time>2016-09-25T07:18:26Z</time>
      </trkpt>
      <trkpt lat="47.29856" lon="-1.81611">
        <ele>110</ele>
        <time>2016-09-25T07:18:32Z</time>
      </trkpt>
      <trkpt lat="47.29844" lon="-1.81641">
        <ele>105</ele>
        <time>2016-09-25T07:18:40Z</time>
      </trkpt>
      <trkpt lat="47.29838" lon="-1.8167">
        <ele>106</ele>
        <time>2016-09-25T07:18:48Z</time>
      </trkpt>
      <trkpt lat="47.2984" lon="-1.81694">
        <ele>103</ele>
        <time>2016-09-25T07:18:59Z</time>
      </trkpt>
      <trkpt lat="47.29852" lon="-1.81686">
        <ele>101</ele>
        <time>2016-09-25T07:19:16Z</time>
      </trkpt>
      <trkpt lat="47.29853" lon="-1.81665">
        <ele>101</ele>
        <time>2016-09-25T07:19:25Z</time>
      </trkpt>
      <trkpt lat="47.2986" lon="-1.81646">
        <ele>102</ele>
        <time>2016-09-25T07:19:33Z</time>
      </trkpt>
      <trkpt lat="47.29876" lon="-1.81628">
        <ele>106</ele>
        <time>2016-09-25T07:19:44Z</time>
      </trkpt>
      <trkpt lat="47.29876" lon="-1.81628">
        <ele>106</ele>
        <time>2016-09-25T07:19:49Z</time>
      </trkpt>
      <trkpt lat="47.29876" lon="-1.81628">
        <ele>106</ele>
        <time>2016-09-25T07:19:50Z</time>
      </trkpt>
      <trkpt lat="47.29888" lon="-1.8161">
        <ele>109</ele>
        <time>2016-09-25T07:20:00Z</time>
      </trkpt>
      <trkpt lat="47.29889" lon="-1.81588">
        <ele>113</ele>
        <time>2016-09-25T07:20:07Z</time>
      </trkpt>
      <trkpt lat="47.29889" lon="-1.8156">
        <ele>115</ele>
        <time>2016-09-25T07:20:15Z</time>
      </trkpt>
      <trkpt lat="47.29879" lon="-1.81538">
        <ele>115</ele>
        <time>2016-09-25T07:20:24Z</time>
      </trkpt>
      <trkpt lat="47.29877" lon="-1.81508">
        <ele>114</ele>
        <time>2016-09-25T07:20:33Z</time>
      </trkpt>
      <trkpt lat="47.29865" lon="-1.81487">
        <ele>112</ele>
        <time>2016-09-25T07:20:42Z</time>
      </trkpt>
      <trkpt lat="47.29862" lon="-1.81462">
        <ele>113</ele>
        <time>2016-09-25T07:20:49Z</time>
      </trkpt>
      <trkpt lat="47.29867" lon="-1.8143">
        <ele>107</ele>
        <time>2016-09-25T07:20:57Z</time>
      </trkpt>
      <trkpt lat="47.29878" lon="-1.81412">
        <ele>102</ele>
        <time>2016-09-25T07:21:04Z</time>
      </trkpt>
      <trkpt lat="47.29894" lon="-1.8139">
        <ele>105</ele>
        <time>2016-09-25T07:21:11Z</time>
      </trkpt>
      <trkpt lat="47.29907" lon="-1.81374">
        <ele>108</ele>
        <time>2016-09-25T07:21:16Z</time>
      </trkpt>
      <trkpt lat="47.29921" lon="-1.81348">
        <ele>109</ele>
        <time>2016-09-25T07:21:24Z</time>
      </trkpt>
      <trkpt lat="47.29932" lon="-1.81323">
        <ele>109</ele>
        <time>2016-09-25T07:21:32Z</time>
      </trkpt>
      <trkpt lat="47.29919" lon="-1.81297">
        <ele>113</ele>
        <time>2016-09-25T07:21:40Z</time>
      </trkpt>
      <trkpt lat="47.29909" lon="-1.81278">
        <ele>112</ele>
        <time>2016-09-25T07:21:47Z</time>
      </trkpt>
      <trkpt lat="47.29907" lon="-1.81252">
        <ele>114</ele>
        <time>2016-09-25T07:21:56Z</time>
      </trkpt>
      <trkpt lat="47.29916" lon="-1.81219">
        <ele>118</ele>
        <time>2016-09-25T07:22:08Z</time>
      </trkpt>
      <trkpt lat="47.29916" lon="-1.81219">
        <ele>118</ele>
        <time>2016-09-25T07:22:15Z</time>
      </trkpt>
      <trkpt lat="47.29916" lon="-1.81219">
        <ele>118</ele>
        <time>2016-09-25T07:22:16Z</time>
      </trkpt>
      <trkpt lat="47.29921" lon="-1.81253">
        <ele>119</ele>
        <time>2016-09-25T07:27:36Z</time>
      </trkpt>
      <trkpt lat="47.29938" lon="-1.81272">
        <ele>122</ele>
        <time>2016-09-25T07:27:45Z</time>
      </trkpt>
      <trkpt lat="47.29954" lon="-1.81282">
        <ele>117</ele>
        <time>2016-09-25T07:27:50Z</time>
      </trkpt>
      <trkpt lat="47.29967" lon="-1.81287">
        <ele>114</ele>
        <time>2016-09-25T07:27:57Z</time>
      </trkpt>
      <trkpt lat="47.29974" lon="-1.81279">
        <ele>114</ele>
        <time>2016-09-25T07:28:04Z</time>
      </trkpt>
      <trkpt lat="47.29959" lon="-1.81243">
        <ele>112</ele>
        <time>2016-09-25T07:28:14Z</time>
      </trkpt>
      <trkpt lat="47.2995" lon="-1.8125">
        <ele>116</ele>
        <time>2016-09-25T07:28:21Z</time>
      </trkpt>
      <trkpt lat="47.29943" lon="-1.81235">
        <ele>116</ele>
        <time>2016-09-25T07:28:32Z</time>
      </trkpt>
      <trkpt lat="47.29943" lon="-1.81235">
        <ele>116</ele>
        <time>2016-09-25T07:28:39Z</time>
      </trkpt>
      <trkpt lat="47.29943" lon="-1.81235">
        <ele>116</ele>
        <time>2016-09-25T07:28:40Z</time>
      </trkpt>
      <trkpt lat="47.29956" lon="-1.81226">
        <ele>112</ele>
        <time>2016-09-25T07:28:52Z</time>
      </trkpt>
      <trkpt lat="47.29981" lon="-1.81202">
        <ele>118</ele>
        <time>2016-09-25T07:29:00Z</time>
      </trkpt>
      <trkpt lat="47.30003" lon="-1.81193">
        <ele>111</ele>
        <time>2016-09-25T07:29:09Z</time>
      </trkpt>
      <trkpt lat="47.30016" lon="-1.81199">
        <ele>114</ele>
        <time>2016-09-25T07:29:16Z</time>
      </trkpt>
      <trkpt lat="47.30016" lon="-1.81199">
        <ele>114</ele>
        <time>2016-09-25T07:29:24Z</time>
      </trkpt>
      <trkpt lat="47.30016" lon="-1.81199">
        <ele>114</ele>
        <time>2016-09-25T07:29:25Z</time>
      </trkpt>
      <trkpt lat="47.29991" lon="-1.81215">
        <ele>113</ele>
        <time>2016-09-25T07:30:26Z</time>
      </trkpt>
      <trkpt lat="47.29991" lon="-1.81215">
        <ele>113</ele>
        <time>2016-09-25T07:30:32Z</time>
      </trkpt>
      <trkpt lat="47.29991" lon="-1.81215">
        <ele>113</ele>
        <time>2016-09-25T07:30:33Z</time>
      </trkpt>
      <trkpt lat="47.30019" lon="-1.81227">
        <ele>115</ele>
        <time>2016-09-25T07:30:41Z</time>
      </trkpt>
      <trkpt lat="47.30022" lon="-1.81228">
        <ele>115</ele>
        <time>2016-09-25T07:30:47Z</time>
      </trkpt>
      <trkpt lat="47.30024" lon="-1.81226">
        <ele>112</ele>
        <time>2016-09-25T07:30:53Z</time>
      </trkpt>
      <trkpt lat="47.30008" lon="-1.81257">
        <ele>119</ele>
        <time>2016-09-25T07:31:52Z</time>
      </trkpt>
      <trkpt lat="47.30013" lon="-1.81309">
        <ele>120</ele>
        <time>2016-09-25T07:32:08Z</time>
      </trkpt>
      <trkpt lat="47.30032" lon="-1.81351">
        <ele>118</ele>
        <time>2016-09-25T07:32:20Z</time>
      </trkpt>
      <trkpt lat="47.30032" lon="-1.81351">
        <ele>118</ele>
        <time>2016-09-25T07:32:26Z</time>
      </trkpt>
      <trkpt lat="47.30032" lon="-1.81351">
        <ele>118</ele>
        <time>2016-09-25T07:32:27Z</time>
      </trkpt>
      <trkpt lat="47.30033" lon="-1.81329">
        <ele>114</ele>
        <time>2016-09-25T07:32:37Z</time>
      </trkpt>
      <trkpt lat="47.30027" lon="-1.81302">
        <ele>114</ele>
        <time>2016-09-25T07:32:48Z</time>
      </trkpt>
      <trkpt lat="47.30027" lon="-1.81276">
        <ele>113</ele>
        <time>2016-09-25T07:33:02Z</time>
      </trkpt>
      <trkpt lat="47.30028" lon="-1.81269">
        <ele>110</ele>
        <time>2016-09-25T07:33:07Z</time>
      </trkpt>
      <trkpt lat="47.30025" lon="-1.81266">
        <ele>111</ele>
        <time>2016-09-25T07:33:15Z</time>
      </trkpt>
      <trkpt lat="47.30041" lon="-1.81283">
        <ele>110</ele>
        <time>2016-09-25T07:33:36Z</time>
      </trkpt>
      <trkpt lat="47.30054" lon="-1.813">
        <ele>120</ele>
        <time>2016-09-25T07:33:43Z</time>
      </trkpt>
      <trkpt lat="47.30065" lon="-1.81327">
        <ele>112</ele>
        <time>2016-09-25T07:33:52Z</time>
      </trkpt>
      <trkpt lat="47.30076" lon="-1.81352">
        <ele>116</ele>
        <time>2016-09-25T07:34:00Z</time>
      </trkpt>
      <trkpt lat="47.30084" lon="-1.81372">
        <ele>115</ele>
        <time>2016-09-25T07:34:06Z</time>
      </trkpt>
      <trkpt lat="47.30097" lon="-1.81408">
        <ele>109</ele>
        <time>2016-09-25T07:34:13Z</time>
      </trkpt>
      <trkpt lat="47.30097" lon="-1.81451">
        <ele>103</ele>
        <time>2016-09-25T07:34:20Z</time>
      </trkpt>
      <trkpt lat="47.30098" lon="-1.81479">
        <ele>97</ele>
        <time>2016-09-25T07:34:25Z</time>
      </trkpt>
      <trkpt lat="47.30085" lon="-1.81528">
        <ele>88</ele>
        <time>2016-09-25T07:34:33Z</time>
      </trkpt>
      <trkpt lat="47.30081" lon="-1.81558">
        <ele>85</ele>
        <time>2016-09-25T07:34:38Z</time>
      </trkpt>
      <trkpt lat="47.30071" lon="-1.81591">
        <ele>83</ele>
        <time>2016-09-25T07:34:45Z</time>
      </trkpt>
      <trkpt lat="47.30067" lon="-1.81606">
        <ele>83</ele>
        <time>2016-09-25T07:34:54Z</time>
      </trkpt>
      <trkpt lat="47.30064" lon="-1.81634">
        <ele>90</ele>
        <time>2016-09-25T07:35:05Z</time>
      </trkpt>
      <trkpt lat="47.30058" lon="-1.81657">
        <ele>92</ele>
        <time>2016-09-25T07:35:11Z</time>
      </trkpt>
      <trkpt lat="47.30051" lon="-1.81676">
        <ele>93</ele>
        <time>2016-09-25T07:35:17Z</time>
      </trkpt>
      <trkpt lat="47.30051" lon="-1.81702">
        <ele>79</ele>
        <time>2016-09-25T07:35:23Z</time>
      </trkpt>
      <trkpt lat="47.30053" lon="-1.81719">
        <ele>86</ele>
        <time>2016-09-25T07:35:31Z</time>
      </trkpt>
      <trkpt lat="47.30064" lon="-1.81733">
        <ele>97</ele>
        <time>2016-09-25T07:35:46Z</time>
      </trkpt>
      <trkpt lat="47.30072" lon="-1.8175">
        <ele>98</ele>
        <time>2016-09-25T07:35:55Z</time>
      </trkpt>
      <trkpt lat="47.30082" lon="-1.81776">
        <ele>95</ele>
        <time>2016-09-25T07:36:06Z</time>
      </trkpt>
      <trkpt lat="47.3009" lon="-1.81798">
        <ele>91</ele>
        <time>2016-09-25T07:36:18Z</time>
      </trkpt>
      <trkpt lat="47.30101" lon="-1.81828">
        <ele>96</ele>
        <time>2016-09-25T07:36:34Z</time>
      </trkpt>
      <trkpt lat="47.30109" lon="-1.81843">
        <ele>96</ele>
        <time>2016-09-25T07:36:43Z</time>
      </trkpt>
      <trkpt lat="47.30122" lon="-1.81861">
        <ele>97</ele>
        <time>2016-09-25T07:36:54Z</time>
      </trkpt>
      <trkpt lat="47.3015" lon="-1.81896">
        <ele>102</ele>
        <time>2016-09-25T07:37:10Z</time>
      </trkpt>
      <trkpt lat="47.30154" lon="-1.81903">
        <ele>104</ele>
        <time>2016-09-25T07:37:13Z</time>
      </trkpt>
      <trkpt lat="47.3015" lon="-1.81896">
        <ele>102</ele>
        <time>2016-09-25T07:37:19Z</time>
      </trkpt>
      <trkpt lat="47.30133" lon="-1.81885">
        <ele>99</ele>
        <time>2016-09-25T07:37:26Z</time>
      </trkpt>
      <trkpt lat="47.30113" lon="-1.81879">
        <ele>97</ele>
        <time>2016-09-25T07:37:34Z</time>
      </trkpt>
      <trkpt lat="47.30096" lon="-1.81839">
        <ele>97</ele>
        <time>2016-09-25T07:37:46Z</time>
      </trkpt>
      <trkpt lat="47.30081" lon="-1.81797">
        <ele>99</ele>
        <time>2016-09-25T07:37:55Z</time>
      </trkpt>
      <trkpt lat="47.30068" lon="-1.81779">
        <ele>99</ele>
        <time>2016-09-25T07:38:01Z</time>
      </trkpt>
      <trkpt lat="47.3006" lon="-1.81764">
        <ele>98</ele>
        <time>2016-09-25T07:38:12Z</time>
      </trkpt>
      <trkpt lat="47.30067" lon="-1.81802">
        <ele>98</ele>
        <time>2016-09-25T07:38:43Z</time>
      </trkpt>
      <trkpt lat="47.30078" lon="-1.81823">
        <ele>97</ele>
        <time>2016-09-25T07:38:50Z</time>
      </trkpt>
      <trkpt lat="47.30087" lon="-1.8185">
        <ele>99</ele>
        <time>2016-09-25T07:38:58Z</time>
      </trkpt>
      <trkpt lat="47.30092" lon="-1.81872">
        <ele>97</ele>
        <time>2016-09-25T07:39:04Z</time>
      </trkpt>
      <trkpt lat="47.30099" lon="-1.81882">
        <ele>98</ele>
        <time>2016-09-25T07:39:09Z</time>
      </trkpt>
      <trkpt lat="47.30108" lon="-1.81925">
        <ele>100</ele>
        <time>2016-09-25T07:39:24Z</time>
      </trkpt>
      <trkpt lat="47.30129" lon="-1.8194">
        <ele>100</ele>
        <time>2016-09-25T07:39:35Z</time>
      </trkpt>
      <trkpt lat="47.30149" lon="-1.81948">
        <ele>101</ele>
        <time>2016-09-25T07:39:46Z</time>
      </trkpt>
      <trkpt lat="47.30175" lon="-1.8195">
        <ele>97</ele>
        <time>2016-09-25T07:39:57Z</time>
      </trkpt>
      <trkpt lat="47.30192" lon="-1.81934">
        <ele>97</ele>
        <time>2016-09-25T07:40:03Z</time>
      </trkpt>
      <trkpt lat="47.30207" lon="-1.81918">
        <ele>98</ele>
        <time>2016-09-25T07:40:09Z</time>
      </trkpt>
      <trkpt lat="47.30221" lon="-1.81907">
        <ele>98</ele>
        <time>2016-09-25T07:40:18Z</time>
      </trkpt>
      <trkpt lat="47.30242" lon="-1.81889">
        <ele>96</ele>
        <time>2016-09-25T07:40:31Z</time>
      </trkpt>
      <trkpt lat="47.30267" lon="-1.8187">
        <ele>99</ele>
        <time>2016-09-25T07:40:42Z</time>
      </trkpt>
      <trkpt lat="47.30285" lon="-1.81859">
        <ele>104</ele>
        <time>2016-09-25T07:40:51Z</time>
      </trkpt>
      <trkpt lat="47.30309" lon="-1.8183">
        <ele>107</ele>
        <time>2016-09-25T07:41:03Z</time>
      </trkpt>
      <trkpt lat="47.30321" lon="-1.81808">
        <ele>105</ele>
        <time>2016-09-25T07:41:11Z</time>
      </trkpt>
      <trkpt lat="47.30347" lon="-1.81816">
        <ele>108</ele>
        <time>2016-09-25T07:41:23Z</time>
      </trkpt>
      <trkpt lat="47.30365" lon="-1.81804">
        <ele>109</ele>
        <time>2016-09-25T07:41:31Z</time>
      </trkpt>
      <trkpt lat="47.30369" lon="-1.81773">
        <ele>108</ele>
        <time>2016-09-25T07:41:41Z</time>
      </trkpt>
      <trkpt lat="47.30366" lon="-1.81751">
        <ele>110</ele>
        <time>2016-09-25T07:41:47Z</time>
      </trkpt>
      <trkpt lat="47.30383" lon="-1.81722">
        <ele>108</ele>
        <time>2016-09-25T07:41:57Z</time>
      </trkpt>
      <trkpt lat="47.30397" lon="-1.81703">
        <ele>108</ele>
        <time>2016-09-25T07:42:03Z</time>
      </trkpt>
      <trkpt lat="47.30408" lon="-1.81687">
        <ele>107</ele>
        <time>2016-09-25T07:42:08Z</time>
      </trkpt>
      <trkpt lat="47.30415" lon="-1.81665">
        <ele>112</ele>
        <time>2016-09-25T07:42:16Z</time>
      </trkpt>
      <trkpt lat="47.30403" lon="-1.81629">
        <ele>107</ele>
        <time>2016-09-25T07:42:25Z</time>
      </trkpt>
      <trkpt lat="47.30387" lon="-1.816">
        <ele>108</ele>
        <time>2016-09-25T07:42:32Z</time>
      </trkpt>
      <trkpt lat="47.30373" lon="-1.81569">
        <ele>109</ele>
        <time>2016-09-25T07:42:38Z</time>
      </trkpt>
      <trkpt lat="47.30366" lon="-1.81546">
        <ele>111</ele>
        <time>2016-09-25T07:42:43Z</time>
      </trkpt>
      <trkpt lat="47.30353" lon="-1.8152">
        <ele>109</ele>
        <time>2016-09-25T07:42:48Z</time>
      </trkpt>
      <trkpt lat="47.30343" lon="-1.81502">
        <ele>105</ele>
        <time>2016-09-25T07:42:53Z</time>
      </trkpt>
      <trkpt lat="47.30332" lon="-1.81481">
        <ele>104</ele>
        <time>2016-09-25T07:43:01Z</time>
      </trkpt>
      <trkpt lat="47.30312" lon="-1.81459">
        <ele>98</ele>
        <time>2016-09-25T07:43:12Z</time>
      </trkpt>
      <trkpt lat="47.30308" lon="-1.81463">
        <ele>99</ele>
        <time>2016-09-25T07:43:14Z</time>
      </trkpt>
      <trkpt lat="47.30304" lon="-1.81463">
        <ele>101</ele>
        <time>2016-09-25T07:43:21Z</time>
      </trkpt>
      <trkpt lat="47.30275" lon="-1.81465">
        <ele>103</ele>
        <time>2016-09-25T07:43:58Z</time>
      </trkpt>
      <trkpt lat="47.30267" lon="-1.81467">
        <ele>104</ele>
        <time>2016-09-25T07:44:03Z</time>
      </trkpt>
      <trkpt lat="47.30253" lon="-1.81483">
        <ele>103</ele>
        <time>2016-09-25T07:44:13Z</time>
      </trkpt>
      <trkpt lat="47.30241" lon="-1.81495">
        <ele>106</ele>
        <time>2016-09-25T07:44:20Z</time>
      </trkpt>
      <trkpt lat="47.30219" lon="-1.81509">
        <ele>106</ele>
        <time>2016-09-25T07:44:32Z</time>
      </trkpt>
      <trkpt lat="47.30202" lon="-1.81525">
        <ele>108</ele>
        <time>2016-09-25T07:44:41Z</time>
      </trkpt>
      <trkpt lat="47.30193" lon="-1.81534">
        <ele>106</ele>
        <time>2016-09-25T07:44:47Z</time>
      </trkpt>
      <trkpt lat="47.30194" lon="-1.81551">
        <ele>106</ele>
        <time>2016-09-25T07:44:54Z</time>
      </trkpt>
      <trkpt lat="47.30193" lon="-1.81579">
        <ele>105</ele>
        <time>2016-09-25T07:45:04Z</time>
      </trkpt>
      <trkpt lat="47.30193" lon="-1.81579">
        <ele>105</ele>
        <time>2016-09-25T07:45:11Z</time>
      </trkpt>
      <trkpt lat="47.30193" lon="-1.81579">
        <ele>105</ele>
        <time>2016-09-25T07:45:12Z</time>
      </trkpt>
      <trkpt lat="47.30183" lon="-1.81547">
        <ele>109</ele>
        <time>2016-09-25T07:45:25Z</time>
      </trkpt>
      <trkpt lat="47.30181" lon="-1.81536">
        <ele>111</ele>
        <time>2016-09-25T07:45:30Z</time>
      </trkpt>
      <trkpt lat="47.30181" lon="-1.81534">
        <ele>108</ele>
        <time>2016-09-25T07:45:39Z</time>
      </trkpt>
      <trkpt lat="47.30176" lon="-1.81554">
        <ele>103</ele>
        <time>2016-09-25T07:45:51Z</time>
      </trkpt>
      <trkpt lat="47.30164" lon="-1.81603">
        <ele>103</ele>
        <time>2016-09-25T07:46:03Z</time>
      </trkpt>
      <trkpt lat="47.30154" lon="-1.81616">
        <ele>99</ele>
        <time>2016-09-25T07:46:09Z</time>
      </trkpt>
      <trkpt lat="47.30134" lon="-1.81618">
        <ele>98</ele>
        <time>2016-09-25T07:46:19Z</time>
      </trkpt>
      <trkpt lat="47.30134" lon="-1.81618">
        <ele>98</ele>
        <time>2016-09-25T07:46:24Z</time>
      </trkpt>
      <trkpt lat="47.30134" lon="-1.81618">
        <ele>98</ele>
        <time>2016-09-25T07:46:25Z</time>
      </trkpt>
      <trkpt lat="47.30141" lon="-1.816">
        <ele>96</ele>
        <time>2016-09-25T07:46:34Z</time>
      </trkpt>
      <trkpt lat="47.30145" lon="-1.8157">
        <ele>101</ele>
        <time>2016-09-25T07:46:46Z</time>
      </trkpt>
      <trkpt lat="47.30152" lon="-1.8155">
        <ele>98</ele>
        <time>2016-09-25T07:46:57Z</time>
      </trkpt>
      <trkpt lat="47.30171" lon="-1.81526">
        <ele>97</ele>
        <time>2016-09-25T07:47:13Z</time>
      </trkpt>
      <trkpt lat="47.30187" lon="-1.81507">
        <ele>101</ele>
        <time>2016-09-25T07:47:26Z</time>
      </trkpt>
      <trkpt lat="47.30201" lon="-1.81485">
        <ele>101</ele>
        <time>2016-09-25T07:47:34Z</time>
      </trkpt>
      <trkpt lat="47.30221" lon="-1.8146">
        <ele>101</ele>
        <time>2016-09-25T07:47:43Z</time>
      </trkpt>
      <trkpt lat="47.30238" lon="-1.8145">
        <ele>100</ele>
        <time>2016-09-25T07:47:56Z</time>
      </trkpt>
      <trkpt lat="47.30238" lon="-1.8145">
        <ele>100</ele>
        <time>2016-09-25T07:48:03Z</time>
      </trkpt>
      <trkpt lat="47.30238" lon="-1.8145">
        <ele>100</ele>
        <time>2016-09-25T07:48:04Z</time>
      </trkpt>
      <trkpt lat="47.30236" lon="-1.81428">
        <ele>96</ele>
        <time>2016-09-25T07:48:52Z</time>
      </trkpt>
      <trkpt lat="47.30219" lon="-1.81403">
        <ele>97</ele>
        <time>2016-09-25T07:49:01Z</time>
      </trkpt>
      <trkpt lat="47.30196" lon="-1.81382">
        <ele>94</ele>
        <time>2016-09-25T07:49:08Z</time>
      </trkpt>
      <trkpt lat="47.30175" lon="-1.81376">
        <ele>93</ele>
        <time>2016-09-25T07:49:17Z</time>
      </trkpt>
      <trkpt lat="47.3015" lon="-1.81382">
        <ele>77</ele>
        <time>2016-09-25T07:49:28Z</time>
      </trkpt>
      <trkpt lat="47.30135" lon="-1.8139">
        <ele>75</ele>
        <time>2016-09-25T07:49:33Z</time>
      </trkpt>
      <trkpt lat="47.30136" lon="-1.81388">
        <ele>75</ele>
        <time>2016-09-25T07:49:40Z</time>
      </trkpt>
      <trkpt lat="47.30114" lon="-1.81385">
        <ele>73</ele>
        <time>2016-09-25T07:51:05Z</time>
      </trkpt>
      <trkpt lat="47.30102" lon="-1.81391">
        <ele>79</ele>
        <time>2016-09-25T07:51:12Z</time>
      </trkpt>
      <trkpt lat="47.30102" lon="-1.81391">
        <ele>79</ele>
        <time>2016-09-25T07:51:18Z</time>
      </trkpt>
      <trkpt lat="47.30095" lon="-1.8138">
        <ele>90</ele>
        <time>2016-09-25T07:51:25Z</time>
      </trkpt>
      <trkpt lat="47.30089" lon="-1.81361">
        <ele>95</ele>
        <time>2016-09-25T07:51:40Z</time>
      </trkpt>
      <trkpt lat="47.30077" lon="-1.81335">
        <ele>95</ele>
        <time>2016-09-25T07:51:56Z</time>
      </trkpt>
      <trkpt lat="47.30075" lon="-1.81322">
        <ele>100</ele>
        <time>2016-09-25T07:52:07Z</time>
      </trkpt>
      <trkpt lat="47.30072" lon="-1.81295">
        <ele>101</ele>
        <time>2016-09-25T07:52:22Z</time>
      </trkpt>
      <trkpt lat="47.30072" lon="-1.81292">
        <ele>99</ele>
        <time>2016-09-25T07:52:30Z</time>
      </trkpt>
      <trkpt lat="47.3006" lon="-1.81272">
        <ele>99</ele>
        <time>2016-09-25T07:52:46Z</time>
      </trkpt>
      <trkpt lat="47.30052" lon="-1.81251">
        <ele>100</ele>
        <time>2016-09-25T07:52:53Z</time>
      </trkpt>
      <trkpt lat="47.3004" lon="-1.8123">
        <ele>104</ele>
        <time>2016-09-25T07:53:02Z</time>
      </trkpt>
      <trkpt lat="47.30038" lon="-1.81214">
        <ele>104</ele>
        <time>2016-09-25T07:53:10Z</time>
      </trkpt>
      <trkpt lat="47.30026" lon="-1.81185">
        <ele>103</ele>
        <time>2016-09-25T07:53:22Z</time>
      </trkpt>
      <trkpt lat="47.30015" lon="-1.8116">
        <ele>107</ele>
        <time>2016-09-25T07:53:31Z</time>
      </trkpt>
      <trkpt lat="47.30006" lon="-1.8114">
        <ele>111</ele>
        <time>2016-09-25T07:53:40Z</time>
      </trkpt>
      <trkpt lat="47.30002" lon="-1.81116">
        <ele>111</ele>
        <time>2016-09-25T07:53:47Z</time>
      </trkpt>
      <trkpt lat="47.29995" lon="-1.81097">
        <ele>113</ele>
        <time>2016-09-25T07:53:57Z</time>
      </trkpt>
      <trkpt lat="47.29984" lon="-1.81057">
        <ele>110</ele>
        <time>2016-09-25T07:54:11Z</time>
      </trkpt>
      <trkpt lat="47.29981" lon="-1.81041">
        <ele>112</ele>
        <time>2016-09-25T07:54:17Z</time>
      </trkpt>
      <trkpt lat="47.29974" lon="-1.81016">
        <ele>109</ele>
        <time>2016-09-25T07:54:24Z</time>
      </trkpt>
      <trkpt lat="47.29963" lon="-1.80988">
        <ele>112</ele>
        <time>2016-09-25T07:54:31Z</time>
      </trkpt>
      <trkpt lat="47.29951" lon="-1.80954">
        <ele>114</ele>
        <time>2016-09-25T07:54:38Z</time>
      </trkpt>
      <trkpt lat="47.29941" lon="-1.80922">
        <ele>114</ele>
        <time>2016-09-25T07:54:45Z</time>
      </trkpt>
      <trkpt lat="47.29932" lon="-1.80895">
        <ele>113</ele>
        <time>2016-09-25T07:54:51Z</time>
      </trkpt>
      <trkpt lat="47.2992" lon="-1.80866">
        <ele>113</ele>
        <time>2016-09-25T07:54:58Z</time>
      </trkpt>
      <trkpt lat="47.29913" lon="-1.8084">
        <ele>111</ele>
        <time>2016-09-25T07:55:04Z</time>
      </trkpt>
      <trkpt lat="47.29905" lon="-1.80815">
        <ele>113</ele>
        <time>2016-09-25T07:55:09Z</time>
      </trkpt>
      <trkpt lat="47.29895" lon="-1.8078">
        <ele>113</ele>
        <time>2016-09-25T07:55:17Z</time>
      </trkpt>
      <trkpt lat="47.29881" lon="-1.80739">
        <ele>112</ele>
        <time>2016-09-25T07:55:25Z</time>
      </trkpt>
      <trkpt lat="47.29875" lon="-1.80709">
        <ele>112</ele>
        <time>2016-09-25T07:55:30Z</time>
      </trkpt>
      <trkpt lat="47.29863" lon="-1.80665">
        <ele>114</ele>
        <time>2016-09-25T07:55:37Z</time>
      </trkpt>
      <trkpt lat="47.29853" lon="-1.80626">
        <ele>114</ele>
        <time>2016-09-25T07:55:43Z</time>
      </trkpt>
      <trkpt lat="47.29843" lon="-1.80592">
        <ele>113</ele>
        <time>2016-09-25T07:55:49Z</time>
      </trkpt>
      <trkpt lat="47.29835" lon="-1.80557">
        <ele>113</ele>
        <time>2016-09-25T07:55:55Z</time>
      </trkpt>
      <trkpt lat="47.29856" lon="-1.80533">
        <ele>113</ele>
        <time>2016-09-25T07:56:02Z</time>
      </trkpt>
      <trkpt lat="47.29874" lon="-1.80522">
        <ele>113</ele>
        <time>2016-09-25T07:56:07Z</time>
      </trkpt>
      <trkpt lat="47.29899" lon="-1.80504">
        <ele>115</ele>
        <time>2016-09-25T07:56:14Z</time>
      </trkpt>
      <trkpt lat="47.29923" lon="-1.80484">
        <ele>115</ele>
        <time>2016-09-25T07:56:21Z</time>
      </trkpt>
      <trkpt lat="47.29941" lon="-1.8047">
        <ele>116</ele>
        <time>2016-09-25T07:56:26Z</time>
      </trkpt>
      <trkpt lat="47.2996" lon="-1.80453">
        <ele>118</ele>
        <time>2016-09-25T07:56:32Z</time>
      </trkpt>
      <trkpt lat="47.29977" lon="-1.80439">
        <ele>118</ele>
        <time>2016-09-25T07:56:37Z</time>
      </trkpt>
      <trkpt lat="47.29993" lon="-1.80423">
        <ele>118</ele>
        <time>2016-09-25T07:56:42Z</time>
      </trkpt>
      <trkpt lat="47.3001" lon="-1.80409">
        <ele>117</ele>
        <time>2016-09-25T07:56:47Z</time>
      </trkpt>
      <trkpt lat="47.30029" lon="-1.80384">
        <ele>119</ele>
        <time>2016-09-25T07:56:54Z</time>
      </trkpt>
      <trkpt lat="47.30054" lon="-1.80397">
        <ele>120</ele>
        <time>2016-09-25T07:57:02Z</time>
      </trkpt>
      <trkpt lat="47.30068" lon="-1.80427">
        <ele>122</ele>
        <time>2016-09-25T07:57:08Z</time>
      </trkpt>
      <trkpt lat="47.30086" lon="-1.80464">
        <ele>121</ele>
        <time>2016-09-25T07:57:14Z</time>
      </trkpt>
      <trkpt lat="47.30104" lon="-1.80494">
        <ele>123</ele>
        <time>2016-09-25T07:57:20Z</time>
      </trkpt>
      <trkpt lat="47.30116" lon="-1.80514">
        <ele>120</ele>
        <time>2016-09-25T07:57:23Z</time>
      </trkpt>
      <trkpt lat="47.30129" lon="-1.80542">
        <ele>121</ele>
        <time>2016-09-25T07:57:28Z</time>
      </trkpt>
      <trkpt lat="47.30146" lon="-1.80578">
        <ele>123</ele>
        <time>2016-09-25T07:57:34Z</time>
      </trkpt>
      <trkpt lat="47.30167" lon="-1.80614">
        <ele>124</ele>
        <time>2016-09-25T07:57:40Z</time>
      </trkpt>
      <trkpt lat="47.30193" lon="-1.80647">
        <ele>118</ele>
        <time>2016-09-25T07:57:45Z</time>
      </trkpt>
      <trkpt lat="47.30211" lon="-1.80658">
        <ele>116</ele>
        <time>2016-09-25T07:57:50Z</time>
      </trkpt>
      <trkpt lat="47.30226" lon="-1.80671">
        <ele>120</ele>
        <time>2016-09-25T07:57:57Z</time>
      </trkpt>
      <trkpt lat="47.3023" lon="-1.80689">
        <ele>120</ele>
        <time>2016-09-25T07:58:03Z</time>
      </trkpt>
      <trkpt lat="47.30235" lon="-1.80716">
        <ele>121</ele>
        <time>2016-09-25T07:58:10Z</time>
      </trkpt>
      <trkpt lat="47.30228" lon="-1.80734">
        <ele>120</ele>
        <time>2016-09-25T07:58:16Z</time>
      </trkpt>
      <trkpt lat="47.302" lon="-1.80752">
        <ele>116</ele>
        <time>2016-09-25T07:58:25Z</time>
      </trkpt>
      <trkpt lat="47.30181" lon="-1.80765">
        <ele>120</ele>
        <time>2016-09-25T07:58:32Z</time>
      </trkpt>
      <trkpt lat="47.30173" lon="-1.80783">
        <ele>119</ele>
        <time>2016-09-25T07:58:39Z</time>
      </trkpt>
      <trkpt lat="47.30164" lon="-1.80808">
        <ele>121</ele>
        <time>2016-09-25T07:58:52Z</time>
      </trkpt>
      <trkpt lat="47.30158" lon="-1.80812">
        <ele>120</ele>
        <time>2016-09-25T07:58:56Z</time>
      </trkpt>
      <trkpt lat="47.30152" lon="-1.80823">
        <ele>122</ele>
        <time>2016-09-25T07:59:06Z</time>
      </trkpt>
      <trkpt lat="47.30147" lon="-1.8084">
        <ele>122</ele>
        <time>2016-09-25T07:59:12Z</time>
      </trkpt>
      <trkpt lat="47.30128" lon="-1.80872">
        <ele>118</ele>
        <time>2016-09-25T07:59:21Z</time>
      </trkpt>
      <trkpt lat="47.30125" lon="-1.80894">
        <ele>118</ele>
        <time>2016-09-25T07:59:27Z</time>
      </trkpt>
      <trkpt lat="47.30123" lon="-1.80925">
        <ele>118</ele>
        <time>2016-09-25T07:59:34Z</time>
      </trkpt>
      <trkpt lat="47.30114" lon="-1.80952">
        <ele>126</ele>
        <time>2016-09-25T07:59:41Z</time>
      </trkpt>
      <trkpt lat="47.30113" lon="-1.80977">
        <ele>129</ele>
        <time>2016-09-25T07:59:50Z</time>
      </trkpt>
      <trkpt lat="47.30125" lon="-1.81002">
        <ele>125</ele>
        <time>2016-09-25T07:59:58Z</time>
      </trkpt>
      <trkpt lat="47.30123" lon="-1.81021">
        <ele>122</ele>
        <time>2016-09-25T08:00:03Z</time>
      </trkpt>
      <trkpt lat="47.30115" lon="-1.81047">
        <ele>122</ele>
        <time>2016-09-25T08:00:10Z</time>
      </trkpt>
      <trkpt lat="47.301" lon="-1.81069">
        <ele>118</ele>
        <time>2016-09-25T08:00:19Z</time>
      </trkpt>
      <trkpt lat="47.30098" lon="-1.81093">
        <ele>116</ele>
        <time>2016-09-25T08:00:23Z</time>
      </trkpt>
      <trkpt lat="47.30115" lon="-1.81076">
        <ele>116</ele>
        <time>2016-09-25T08:00:35Z</time>
      </trkpt>
      <trkpt lat="47.30131" lon="-1.81045">
        <ele>118</ele>
        <time>2016-09-25T08:00:47Z</time>
      </trkpt>
      <trkpt lat="47.30134" lon="-1.81024">
        <ele>122</ele>
        <time>2016-09-25T08:00:59Z</time>
      </trkpt>
      <trkpt lat="47.30137" lon="-1.81003">
        <ele>117</ele>
        <time>2016-09-25T08:01:06Z</time>
      </trkpt>
      <trkpt lat="47.30136" lon="-1.81001">
        <ele>116</ele>
        <time>2016-09-25T08:01:15Z</time>
      </trkpt>
      <trkpt lat="47.30135" lon="-1.80958">
        <ele>116</ele>
        <time>2016-09-25T08:01:53Z</time>
      </trkpt>
      <trkpt lat="47.30144" lon="-1.80944">
        <ele>114</ele>
        <time>2016-09-25T08:02:01Z</time>
      </trkpt>
      <trkpt lat="47.30152" lon="-1.80922">
        <ele>112</ele>
        <time>2016-09-25T08:02:10Z</time>
      </trkpt>
      <trkpt lat="47.30151" lon="-1.80895">
        <ele>112</ele>
        <time>2016-09-25T08:02:21Z</time>
      </trkpt>
      <trkpt lat="47.30158" lon="-1.80864">
        <ele>114</ele>
        <time>2016-09-25T08:02:30Z</time>
      </trkpt>
      <trkpt lat="47.30169" lon="-1.80835">
        <ele>115</ele>
        <time>2016-09-25T08:02:39Z</time>
      </trkpt>
      <trkpt lat="47.30181" lon="-1.80813">
        <ele>117</ele>
        <time>2016-09-25T08:02:50Z</time>
      </trkpt>
      <trkpt lat="47.30181" lon="-1.80803">
        <ele>114</ele>
        <time>2016-09-25T08:02:58Z</time>
      </trkpt>
      <trkpt lat="47.30181" lon="-1.80803">
        <ele>117</ele>
        <time>2016-09-25T08:03:06Z</time>
      </trkpt>
      <trkpt lat="47.30179" lon="-1.80784">
        <ele>120</ele>
        <time>2016-09-25T08:03:24Z</time>
      </trkpt>
      <trkpt lat="47.30196" lon="-1.8076">
        <ele>116</ele>
        <time>2016-09-25T08:03:31Z</time>
      </trkpt>
      <trkpt lat="47.30218" lon="-1.80744">
        <ele>108</ele>
        <time>2016-09-25T08:03:37Z</time>
      </trkpt>
      <trkpt lat="47.3023" lon="-1.80734">
        <ele>109</ele>
        <time>2016-09-25T08:03:43Z</time>
      </trkpt>
      <trkpt lat="47.30243" lon="-1.80716">
        <ele>109</ele>
        <time>2016-09-25T08:03:53Z</time>
      </trkpt>
      <trkpt lat="47.30252" lon="-1.8069">
        <ele>111</ele>
        <time>2016-09-25T08:04:03Z</time>
      </trkpt>
      <trkpt lat="47.30256" lon="-1.80688">
        <ele>109</ele>
        <time>2016-09-25T08:04:06Z</time>
      </trkpt>
      <trkpt lat="47.30263" lon="-1.80693">
        <ele>118</ele>
        <time>2016-09-25T08:04:19Z</time>
      </trkpt>
      <trkpt lat="47.3028" lon="-1.8074">
        <ele>109</ele>
        <time>2016-09-25T08:04:53Z</time>
      </trkpt>
      <trkpt lat="47.30297" lon="-1.80791">
        <ele>110</ele>
        <time>2016-09-25T08:05:00Z</time>
      </trkpt>
      <trkpt lat="47.30303" lon="-1.80841">
        <ele>106</ele>
        <time>2016-09-25T08:05:07Z</time>
      </trkpt>
      <trkpt lat="47.30305" lon="-1.80882">
        <ele>107</ele>
        <time>2016-09-25T08:05:13Z</time>
      </trkpt>
      <trkpt lat="47.3031" lon="-1.80896">
        <ele>104</ele>
        <time>2016-09-25T08:05:18Z</time>
      </trkpt>
      <trkpt lat="47.30325" lon="-1.8092">
        <ele>103</ele>
        <time>2016-09-25T08:05:24Z</time>
      </trkpt>
      <trkpt lat="47.30345" lon="-1.8096">
        <ele>96</ele>
        <time>2016-09-25T08:05:30Z</time>
      </trkpt>
      <trkpt lat="47.30365" lon="-1.80972">
        <ele>92</ele>
        <time>2016-09-25T08:05:38Z</time>
      </trkpt>
      <trkpt lat="47.3038" lon="-1.80966">
        <ele>91</ele>
        <time>2016-09-25T08:05:44Z</time>
      </trkpt>
      <trkpt lat="47.30406" lon="-1.80952">
        <ele>94</ele>
        <time>2016-09-25T08:05:54Z</time>
      </trkpt>
      <trkpt lat="47.30418" lon="-1.80939">
        <ele>92</ele>
        <time>2016-09-25T08:05:59Z</time>
      </trkpt>
      <trkpt lat="47.30427" lon="-1.80918">
        <ele>94</ele>
        <time>2016-09-25T08:06:06Z</time>
      </trkpt>
      <trkpt lat="47.30436" lon="-1.80899">
        <ele>94</ele>
        <time>2016-09-25T08:06:15Z</time>
      </trkpt>
      <trkpt lat="47.30458" lon="-1.80894">
        <ele>94</ele>
        <time>2016-09-25T08:06:25Z</time>
      </trkpt>
      <trkpt lat="47.30475" lon="-1.80875">
        <ele>99</ele>
        <time>2016-09-25T08:06:42Z</time>
      </trkpt>
      <trkpt lat="47.30493" lon="-1.80866">
        <ele>103</ele>
        <time>2016-09-25T08:07:02Z</time>
      </trkpt>
      <trkpt lat="47.30512" lon="-1.80874">
        <ele>104</ele>
        <time>2016-09-25T08:07:12Z</time>
      </trkpt>
      <trkpt lat="47.30528" lon="-1.80854">
        <ele>106</ele>
        <time>2016-09-25T08:07:22Z</time>
      </trkpt>
      <trkpt lat="47.30539" lon="-1.80843">
        <ele>105</ele>
        <time>2016-09-25T08:07:27Z</time>
      </trkpt>
      <trkpt lat="47.30546" lon="-1.80835">
        <ele>103</ele>
        <time>2016-09-25T08:07:32Z</time>
      </trkpt>
      <trkpt lat="47.30569" lon="-1.80797">
        <ele>111</ele>
        <time>2016-09-25T08:07:47Z</time>
      </trkpt>
      <trkpt lat="47.30588" lon="-1.80755">
        <ele>104</ele>
        <time>2016-09-25T08:07:56Z</time>
      </trkpt>
      <trkpt lat="47.30597" lon="-1.80736">
        <ele>99</ele>
        <time>2016-09-25T08:08:01Z</time>
      </trkpt>
      <trkpt lat="47.3062" lon="-1.80704">
        <ele>101</ele>
        <time>2016-09-25T08:08:08Z</time>
      </trkpt>
      <trkpt lat="47.30639" lon="-1.80697">
        <ele>96</ele>
        <time>2016-09-25T08:08:14Z</time>
      </trkpt>
      <trkpt lat="47.30656" lon="-1.80696">
        <ele>92</ele>
        <time>2016-09-25T08:08:21Z</time>
      </trkpt>
      <trkpt lat="47.30666" lon="-1.80673">
        <ele>95</ele>
        <time>2016-09-25T08:08:30Z</time>
      </trkpt>
      <trkpt lat="47.30677" lon="-1.80645">
        <ele>101</ele>
        <time>2016-09-25T08:08:38Z</time>
      </trkpt>
      <trkpt lat="47.30678" lon="-1.80637">
        <ele>102</ele>
        <time>2016-09-25T08:08:43Z</time>
      </trkpt>
      <trkpt lat="47.30679" lon="-1.80633">
        <ele>104</ele>
        <time>2016-09-25T08:08:49Z</time>
      </trkpt>
      <trkpt lat="47.30686" lon="-1.80616">
        <ele>95</ele>
        <time>2016-09-25T08:09:04Z</time>
      </trkpt>
      <trkpt lat="47.30686" lon="-1.806">
        <ele>91</ele>
        <time>2016-09-25T08:09:10Z</time>
      </trkpt>
      <trkpt lat="47.30682" lon="-1.80606">
        <ele>94</ele>
        <time>2016-09-25T08:09:18Z</time>
      </trkpt>
      <trkpt lat="47.30695" lon="-1.80565">
        <ele>102</ele>
        <time>2016-09-25T08:10:12Z</time>
      </trkpt>
      <trkpt lat="47.30705" lon="-1.8055">
        <ele>104</ele>
        <time>2016-09-25T08:10:23Z</time>
      </trkpt>
      <trkpt lat="47.30711" lon="-1.8054">
        <ele>103</ele>
        <time>2016-09-25T08:10:31Z</time>
      </trkpt>
      <trkpt lat="47.30722" lon="-1.80556">
        <ele>105</ele>
        <time>2016-09-25T08:10:45Z</time>
      </trkpt>
      <trkpt lat="47.30741" lon="-1.80545">
        <ele>110</ele>
        <time>2016-09-25T08:10:59Z</time>
      </trkpt>
      <trkpt lat="47.30759" lon="-1.80553">
        <ele>108</ele>
        <time>2016-09-25T08:11:11Z</time>
      </trkpt>
      <trkpt lat="47.30797" lon="-1.80536">
        <ele>115</ele>
        <time>2016-09-25T08:11:30Z</time>
      </trkpt>
      <trkpt lat="47.30815" lon="-1.80509">
        <ele>114</ele>
        <time>2016-09-25T08:11:40Z</time>
      </trkpt>
      <trkpt lat="47.30839" lon="-1.80489">
        <ele>114</ele>
        <time>2016-09-25T08:11:52Z</time>
      </trkpt>
      <trkpt lat="47.30854" lon="-1.80475">
        <ele>115</ele>
        <time>2016-09-25T08:12:00Z</time>
      </trkpt>
      <trkpt lat="47.30865" lon="-1.80438">
        <ele>113</ele>
        <time>2016-09-25T08:12:10Z</time>
      </trkpt>
      <trkpt lat="47.30874" lon="-1.80407">
        <ele>116</ele>
        <time>2016-09-25T08:12:20Z</time>
      </trkpt>
      <trkpt lat="47.30891" lon="-1.80378">
        <ele>124</ele>
        <time>2016-09-25T08:12:32Z</time>
      </trkpt>
      <trkpt lat="47.309" lon="-1.8034">
        <ele>125</ele>
        <time>2016-09-25T08:12:44Z</time>
      </trkpt>
      <trkpt lat="47.3092" lon="-1.80296">
        <ele>115</ele>
        <time>2016-09-25T08:12:55Z</time>
      </trkpt>
      <trkpt lat="47.30932" lon="-1.8028">
        <ele>113</ele>
        <time>2016-09-25T08:13:00Z</time>
      </trkpt>
      <trkpt lat="47.30959" lon="-1.80278">
        <ele>111</ele>
        <time>2016-09-25T08:13:07Z</time>
      </trkpt>
      <trkpt lat="47.3098" lon="-1.80272">
        <ele>108</ele>
        <time>2016-09-25T08:13:13Z</time>
      </trkpt>
      <trkpt lat="47.30998" lon="-1.80273">
        <ele>110</ele>
        <time>2016-09-25T08:13:20Z</time>
      </trkpt>
      <trkpt lat="47.30996" lon="-1.80318">
        <ele>115</ele>
        <time>2016-09-25T08:13:30Z</time>
      </trkpt>
      <trkpt lat="47.30993" lon="-1.80341">
        <ele>116</ele>
        <time>2016-09-25T08:13:37Z</time>
      </trkpt>
      <trkpt lat="47.31012" lon="-1.8038">
        <ele>114</ele>
        <time>2016-09-25T08:13:46Z</time>
      </trkpt>
      <trkpt lat="47.3103" lon="-1.80409">
        <ele>119</ele>
        <time>2016-09-25T08:13:54Z</time>
      </trkpt>
      <trkpt lat="47.31039" lon="-1.80424">
        <ele>120</ele>
        <time>2016-09-25T08:13:58Z</time>
      </trkpt>
      <trkpt lat="47.3104" lon="-1.80423">
        <ele>122</ele>
        <time>2016-09-25T08:14:04Z</time>
      </trkpt>
      <trkpt lat="47.31053" lon="-1.80407">
        <ele>122</ele>
        <time>2016-09-25T08:14:25Z</time>
      </trkpt>
      <trkpt lat="47.31063" lon="-1.80391">
        <ele>125</ele>
        <time>2016-09-25T08:14:29Z</time>
      </trkpt>
      <trkpt lat="47.31079" lon="-1.80368">
        <ele>126</ele>
        <time>2016-09-25T08:14:34Z</time>
      </trkpt>
      <trkpt lat="47.311" lon="-1.80336">
        <ele>121</ele>
        <time>2016-09-25T08:14:40Z</time>
      </trkpt>
      <trkpt lat="47.31117" lon="-1.80307">
        <ele>121</ele>
        <time>2016-09-25T08:14:46Z</time>
      </trkpt>
      <trkpt lat="47.31127" lon="-1.80281">
        <ele>119</ele>
        <time>2016-09-25T08:14:51Z</time>
      </trkpt>
      <trkpt lat="47.31143" lon="-1.80248">
        <ele>122</ele>
        <time>2016-09-25T08:14:57Z</time>
      </trkpt>
      <trkpt lat="47.31164" lon="-1.80232">
        <ele>123</ele>
        <time>2016-09-25T08:15:03Z</time>
      </trkpt>
      <trkpt lat="47.3119" lon="-1.80228">
        <ele>125</ele>
        <time>2016-09-25T08:15:09Z</time>
      </trkpt>
      <trkpt lat="47.31211" lon="-1.80224">
        <ele>124</ele>
        <time>2016-09-25T08:15:14Z</time>
      </trkpt>
      <trkpt lat="47.31233" lon="-1.80222">
        <ele>125</ele>
        <time>2016-09-25T08:15:20Z</time>
      </trkpt>
      <trkpt lat="47.3124" lon="-1.80251">
        <ele>127</ele>
        <time>2016-09-25T08:15:26Z</time>
      </trkpt>
      <trkpt lat="47.31248" lon="-1.80284">
        <ele>129</ele>
        <time>2016-09-25T08:15:32Z</time>
      </trkpt>
      <trkpt lat="47.31258" lon="-1.80324">
        <ele>132</ele>
        <time>2016-09-25T08:15:39Z</time>
      </trkpt>
      <trkpt lat="47.31265" lon="-1.80372">
        <ele>129</ele>
        <time>2016-09-25T08:15:46Z</time>
      </trkpt>
      <trkpt lat="47.31274" lon="-1.80412">
        <ele>126</ele>
        <time>2016-09-25T08:15:52Z</time>
      </trkpt>
      <trkpt lat="47.31287" lon="-1.8045">
        <ele>127</ele>
        <time>2016-09-25T08:15:58Z</time>
      </trkpt>
      <trkpt lat="47.31299" lon="-1.80483">
        <ele>129</ele>
        <time>2016-09-25T08:16:04Z</time>
      </trkpt>
      <trkpt lat="47.31309" lon="-1.80525">
        <ele>126</ele>
        <time>2016-09-25T08:16:10Z</time>
      </trkpt>
      <trkpt lat="47.31316" lon="-1.8056">
        <ele>124</ele>
        <time>2016-09-25T08:16:15Z</time>
      </trkpt>
      <trkpt lat="47.31327" lon="-1.80593">
        <ele>126</ele>
        <time>2016-09-25T08:16:21Z</time>
      </trkpt>
      <trkpt lat="47.31342" lon="-1.80626">
        <ele>128</ele>
        <time>2016-09-25T08:16:27Z</time>
      </trkpt>
      <trkpt lat="47.31358" lon="-1.8064">
        <ele>129</ele>
        <time>2016-09-25T08:16:33Z</time>
      </trkpt>
      <trkpt lat="47.31376" lon="-1.80614">
        <ele>125</ele>
        <time>2016-09-25T08:16:40Z</time>
      </trkpt>
      <trkpt lat="47.31391" lon="-1.80596">
        <ele>125</ele>
        <time>2016-09-25T08:16:45Z</time>
      </trkpt>
      <trkpt lat="47.31409" lon="-1.80573">
        <ele>128</ele>
        <time>2016-09-25T08:16:52Z</time>
      </trkpt>
      <trkpt lat="47.31427" lon="-1.80548">
        <ele>130</ele>
        <time>2016-09-25T08:16:59Z</time>
      </trkpt>
      <trkpt lat="47.31445" lon="-1.80527">
        <ele>131</ele>
        <time>2016-09-25T08:17:05Z</time>
      </trkpt>
      <trkpt lat="47.31463" lon="-1.80507">
        <ele>128</ele>
        <time>2016-09-25T08:17:11Z</time>
      </trkpt>
      <trkpt lat="47.31473" lon="-1.80506">
        <ele>129</ele>
        <time>2016-09-25T08:17:16Z</time>
      </trkpt>
      <trkpt lat="47.31499" lon="-1.8055">
        <ele>131</ele>
        <time>2016-09-25T08:17:27Z</time>
      </trkpt>
      <trkpt lat="47.31513" lon="-1.8057">
        <ele>133</ele>
        <time>2016-09-25T08:17:32Z</time>
      </trkpt>
      <trkpt lat="47.3154" lon="-1.80596">
        <ele>133</ele>
        <time>2016-09-25T08:17:39Z</time>
      </trkpt>
      <trkpt lat="47.31556" lon="-1.80617">
        <ele>130</ele>
        <time>2016-09-25T08:17:45Z</time>
      </trkpt>
      <trkpt lat="47.31575" lon="-1.80626">
        <ele>131</ele>
        <time>2016-09-25T08:17:51Z</time>
      </trkpt>
      <trkpt lat="47.31601" lon="-1.80606">
        <ele>131</ele>
        <time>2016-09-25T08:17:57Z</time>
      </trkpt>
      <trkpt lat="47.31626" lon="-1.80579">
        <ele>129</ele>
        <time>2016-09-25T08:18:03Z</time>
      </trkpt>
      <trkpt lat="47.31646" lon="-1.80555">
        <ele>129</ele>
        <time>2016-09-25T08:18:08Z</time>
      </trkpt>
      <trkpt lat="47.31665" lon="-1.80529">
        <ele>131</ele>
        <time>2016-09-25T08:18:13Z</time>
      </trkpt>
      <trkpt lat="47.31684" lon="-1.80493">
        <ele>130</ele>
        <time>2016-09-25T08:18:20Z</time>
      </trkpt>
      <trkpt lat="47.31713" lon="-1.80444">
        <ele>129</ele>
        <time>2016-09-25T08:18:26Z</time>
      </trkpt>
      <trkpt lat="47.31734" lon="-1.80411">
        <ele>127</ele>
        <time>2016-09-25T08:18:31Z</time>
      </trkpt>
      <trkpt lat="47.31756" lon="-1.80381">
        <ele>131</ele>
        <time>2016-09-25T08:18:36Z</time>
      </trkpt>
      <trkpt lat="47.31783" lon="-1.80367">
        <ele>130</ele>
        <time>2016-09-25T08:18:42Z</time>
      </trkpt>
      <trkpt lat="47.31806" lon="-1.80377">
        <ele>129</ele>
        <time>2016-09-25T08:18:49Z</time>
      </trkpt>
      <trkpt lat="47.31831" lon="-1.80383">
        <ele>131</ele>
        <time>2016-09-25T08:18:55Z</time>
      </trkpt>
      <trkpt lat="47.3185" lon="-1.8039">
        <ele>133</ele>
        <time>2016-09-25T08:19:00Z</time>
      </trkpt>
      <trkpt lat="47.3187" lon="-1.80399">
        <ele>131</ele>
        <time>2016-09-25T08:19:05Z</time>
      </trkpt>
      <trkpt lat="47.31894" lon="-1.80416">
        <ele>133</ele>
        <time>2016-09-25T08:19:11Z</time>
      </trkpt>
      <trkpt lat="47.31913" lon="-1.80428">
        <ele>132</ele>
        <time>2016-09-25T08:19:15Z</time>
      </trkpt>
      <trkpt lat="47.31931" lon="-1.80444">
        <ele>130</ele>
        <time>2016-09-25T08:19:20Z</time>
      </trkpt>
      <trkpt lat="47.31952" lon="-1.80469">
        <ele>129</ele>
        <time>2016-09-25T08:19:27Z</time>
      </trkpt>
      <trkpt lat="47.31966" lon="-1.80496">
        <ele>132</ele>
        <time>2016-09-25T08:19:34Z</time>
      </trkpt>
      <trkpt lat="47.31986" lon="-1.80506">
        <ele>134</ele>
        <time>2016-09-25T08:19:40Z</time>
      </trkpt>
      <trkpt lat="47.32011" lon="-1.80491">
        <ele>137</ele>
        <time>2016-09-25T08:19:46Z</time>
      </trkpt>
      <trkpt lat="47.32029" lon="-1.8048">
        <ele>138</ele>
        <time>2016-09-25T08:19:51Z</time>
      </trkpt>
      <trkpt lat="47.32058" lon="-1.8046">
        <ele>134</ele>
        <time>2016-09-25T08:19:57Z</time>
      </trkpt>
      <trkpt lat="47.32079" lon="-1.80445">
        <ele>134</ele>
        <time>2016-09-25T08:20:02Z</time>
      </trkpt>
      <trkpt lat="47.32078" lon="-1.80481">
        <ele>132</ele>
        <time>2016-09-25T08:20:09Z</time>
      </trkpt>
      <trkpt lat="47.32071" lon="-1.80519">
        <ele>135</ele>
        <time>2016-09-25T08:20:15Z</time>
      </trkpt>
      <trkpt lat="47.32063" lon="-1.80555">
        <ele>137</ele>
        <time>2016-09-25T08:20:21Z</time>
      </trkpt>
      <trkpt lat="47.32052" lon="-1.80602">
        <ele>138</ele>
        <time>2016-09-25T08:20:29Z</time>
      </trkpt>
      <trkpt lat="47.32048" lon="-1.80642">
        <ele>139</ele>
        <time>2016-09-25T08:20:35Z</time>
      </trkpt>
      <trkpt lat="47.3204" lon="-1.80678">
        <ele>139</ele>
        <time>2016-09-25T08:20:42Z</time>
      </trkpt>
      <trkpt lat="47.32045" lon="-1.80718">
        <ele>137</ele>
        <time>2016-09-25T08:20:49Z</time>
      </trkpt>
      <trkpt lat="47.32061" lon="-1.80761">
        <ele>137</ele>
        <time>2016-09-25T08:20:55Z</time>
      </trkpt>
      <trkpt lat="47.32075" lon="-1.80796">
        <ele>138</ele>
        <time>2016-09-25T08:21:00Z</time>
      </trkpt>
      <trkpt lat="47.32083" lon="-1.80818">
        <ele>137</ele>
        <time>2016-09-25T08:21:03Z</time>
      </trkpt>
      <trkpt lat="47.32095" lon="-1.80856">
        <ele>135</ele>
        <time>2016-09-25T08:21:08Z</time>
      </trkpt>
      <trkpt lat="47.32103" lon="-1.80883">
        <ele>134</ele>
        <time>2016-09-25T08:21:12Z</time>
      </trkpt>
      <trkpt lat="47.32095" lon="-1.80928">
        <ele>136</ele>
        <time>2016-09-25T08:21:18Z</time>
      </trkpt>
      <trkpt lat="47.32081" lon="-1.80976">
        <ele>134</ele>
        <time>2016-09-25T08:21:24Z</time>
      </trkpt>
      <trkpt lat="47.32067" lon="-1.81026">
        <ele>132</ele>
        <time>2016-09-25T08:21:30Z</time>
      </trkpt>
      <trkpt lat="47.32055" lon="-1.81068">
        <ele>133</ele>
        <time>2016-09-25T08:21:35Z</time>
      </trkpt>
      <trkpt lat="47.3204" lon="-1.8111">
        <ele>132</ele>
        <time>2016-09-25T08:21:40Z</time>
      </trkpt>
      <trkpt lat="47.3202" lon="-1.81138">
        <ele>137</ele>
        <time>2016-09-25T08:21:45Z</time>
      </trkpt>
      <trkpt lat="47.31987" lon="-1.81176">
        <ele>133</ele>
        <time>2016-09-25T08:21:51Z</time>
      </trkpt>
      <trkpt lat="47.31956" lon="-1.81211">
        <ele>133</ele>
        <time>2016-09-25T08:21:57Z</time>
      </trkpt>
      <trkpt lat="47.3195" lon="-1.81248">
        <ele>133</ele>
        <time>2016-09-25T08:22:02Z</time>
      </trkpt>
      <trkpt lat="47.31953" lon="-1.81275">
        <ele>131</ele>
        <time>2016-09-25T08:22:05Z</time>
      </trkpt>
      <trkpt lat="47.31963" lon="-1.81314">
        <ele>131</ele>
        <time>2016-09-25T08:22:10Z</time>
      </trkpt>
      <trkpt lat="47.31973" lon="-1.81348">
        <ele>133</ele>
        <time>2016-09-25T08:22:15Z</time>
      </trkpt>
      <trkpt lat="47.31977" lon="-1.81372">
        <ele>135</ele>
        <time>2016-09-25T08:22:19Z</time>
      </trkpt>
      <trkpt lat="47.31985" lon="-1.81411">
        <ele>137</ele>
        <time>2016-09-25T08:22:24Z</time>
      </trkpt>
      <trkpt lat="47.31995" lon="-1.81445">
        <ele>133</ele>
        <time>2016-09-25T08:22:28Z</time>
      </trkpt>
      <trkpt lat="47.32006" lon="-1.81488">
        <ele>133</ele>
        <time>2016-09-25T08:22:33Z</time>
      </trkpt>
      <trkpt lat="47.32017" lon="-1.81546">
        <ele>131</ele>
        <time>2016-09-25T08:22:39Z</time>
      </trkpt>
      <trkpt lat="47.32026" lon="-1.81604">
        <ele>130</ele>
        <time>2016-09-25T08:22:45Z</time>
      </trkpt>
      <trkpt lat="47.32023" lon="-1.81652">
        <ele>128</ele>
        <time>2016-09-25T08:22:50Z</time>
      </trkpt>
      <trkpt lat="47.32003" lon="-1.81688">
        <ele>127</ele>
        <time>2016-09-25T08:22:55Z</time>
      </trkpt>
      <trkpt lat="47.31973" lon="-1.81723">
        <ele>127</ele>
        <time>2016-09-25T08:23:01Z</time>
      </trkpt>
      <trkpt lat="47.31941" lon="-1.81753">
        <ele>126</ele>
        <time>2016-09-25T08:23:07Z</time>
      </trkpt>
      <trkpt lat="47.31913" lon="-1.81771">
        <ele>126</ele>
        <time>2016-09-25T08:23:12Z</time>
      </trkpt>
      <trkpt lat="47.31887" lon="-1.81794">
        <ele>125</ele>
        <time>2016-09-25T08:23:17Z</time>
      </trkpt>
      <trkpt lat="47.31859" lon="-1.81831">
        <ele>125</ele>
        <time>2016-09-25T08:23:23Z</time>
      </trkpt>
      <trkpt lat="47.31847" lon="-1.81853">
        <ele>125</ele>
        <time>2016-09-25T08:23:26Z</time>
      </trkpt>
      <trkpt lat="47.31836" lon="-1.81893">
        <ele>125</ele>
        <time>2016-09-25T08:23:31Z</time>
      </trkpt>
      <trkpt lat="47.31835" lon="-1.81918">
        <ele>126</ele>
        <time>2016-09-25T08:23:34Z</time>
      </trkpt>
      <trkpt lat="47.31834" lon="-1.81957">
        <ele>123</ele>
        <time>2016-09-25T08:23:38Z</time>
      </trkpt>
      <trkpt lat="47.31843" lon="-1.82032">
        <ele>120</ele>
        <time>2016-09-25T08:23:45Z</time>
      </trkpt>
      <trkpt lat="47.31831" lon="-1.82074">
        <ele>119</ele>
        <time>2016-09-25T08:23:50Z</time>
      </trkpt>
      <trkpt lat="47.31818" lon="-1.82108">
        <ele>120</ele>
        <time>2016-09-25T08:23:56Z</time>
      </trkpt>
      <trkpt lat="47.31839" lon="-1.82173">
        <ele>121</ele>
        <time>2016-09-25T08:24:03Z</time>
      </trkpt>
      <trkpt lat="47.31851" lon="-1.82206">
        <ele>117</ele>
        <time>2016-09-25T08:24:06Z</time>
      </trkpt>
      <trkpt lat="47.31879" lon="-1.82253">
        <ele>115</ele>
        <time>2016-09-25T08:24:12Z</time>
      </trkpt>
      <trkpt lat="47.319" lon="-1.82276">
        <ele>116</ele>
        <time>2016-09-25T08:24:17Z</time>
      </trkpt>
      <trkpt lat="47.31916" lon="-1.82306">
        <ele>118</ele>
        <time>2016-09-25T08:24:24Z</time>
      </trkpt>
      <trkpt lat="47.31934" lon="-1.82303">
        <ele>118</ele>
        <time>2016-09-25T08:24:29Z</time>
      </trkpt>
      <trkpt lat="47.31959" lon="-1.82275">
        <ele>116</ele>
        <time>2016-09-25T08:24:37Z</time>
      </trkpt>
      <trkpt lat="47.31984" lon="-1.8226">
        <ele>118</ele>
        <time>2016-09-25T08:24:43Z</time>
      </trkpt>
      <trkpt lat="47.32006" lon="-1.82264">
        <ele>119</ele>
        <time>2016-09-25T08:24:49Z</time>
      </trkpt>
      <trkpt lat="47.32031" lon="-1.82284">
        <ele>119</ele>
        <time>2016-09-25T08:24:56Z</time>
      </trkpt>
      <trkpt lat="47.32054" lon="-1.82296">
        <ele>118</ele>
        <time>2016-09-25T08:25:03Z</time>
      </trkpt>
      <trkpt lat="47.32073" lon="-1.82297">
        <ele>121</ele>
        <time>2016-09-25T08:25:09Z</time>
      </trkpt>
      <trkpt lat="47.32094" lon="-1.82303">
        <ele>122</ele>
        <time>2016-09-25T08:25:16Z</time>
      </trkpt>
      <trkpt lat="47.32122" lon="-1.82302">
        <ele>120</ele>
        <time>2016-09-25T08:25:23Z</time>
      </trkpt>
      <trkpt lat="47.32137" lon="-1.82313">
        <ele>120</ele>
        <time>2016-09-25T08:25:29Z</time>
      </trkpt>
      <trkpt lat="47.32138" lon="-1.82313">
        <ele>121</ele>
        <time>2016-09-25T08:25:36Z</time>
      </trkpt>
      <trkpt lat="47.32151" lon="-1.82342">
        <ele>124</ele>
        <time>2016-09-25T08:25:58Z</time>
      </trkpt>
      <trkpt lat="47.32165" lon="-1.82372">
        <ele>124</ele>
        <time>2016-09-25T08:26:05Z</time>
      </trkpt>
      <trkpt lat="47.32179" lon="-1.82402">
        <ele>124</ele>
        <time>2016-09-25T08:26:11Z</time>
      </trkpt>
      <trkpt lat="47.3219" lon="-1.82434">
        <ele>129</ele>
        <time>2016-09-25T08:26:18Z</time>
      </trkpt>
      <trkpt lat="47.32201" lon="-1.8246">
        <ele>127</ele>
        <time>2016-09-25T08:26:23Z</time>
      </trkpt>
      <trkpt lat="47.32224" lon="-1.82465">
        <ele>126</ele>
        <time>2016-09-25T08:26:29Z</time>
      </trkpt>
      <trkpt lat="47.32257" lon="-1.82447">
        <ele>126</ele>
        <time>2016-09-25T08:26:36Z</time>
      </trkpt>
      <trkpt lat="47.32286" lon="-1.82435">
        <ele>128</ele>
        <time>2016-09-25T08:26:42Z</time>
      </trkpt>
      <trkpt lat="47.32299" lon="-1.82427">
        <ele>127</ele>
        <time>2016-09-25T08:26:45Z</time>
      </trkpt>
      <trkpt lat="47.32326" lon="-1.82413">
        <ele>127</ele>
        <time>2016-09-25T08:26:51Z</time>
      </trkpt>
      <trkpt lat="47.3234" lon="-1.82405">
        <ele>127</ele>
        <time>2016-09-25T08:26:54Z</time>
      </trkpt>
      <trkpt lat="47.32369" lon="-1.82389">
        <ele>128</ele>
        <time>2016-09-25T08:27:00Z</time>
      </trkpt>
      <trkpt lat="47.32391" lon="-1.8237">
        <ele>127</ele>
        <time>2016-09-25T08:27:05Z</time>
      </trkpt>
      <trkpt lat="47.32404" lon="-1.82358">
        <ele>128</ele>
        <time>2016-09-25T08:27:08Z</time>
      </trkpt>
      <trkpt lat="47.32426" lon="-1.82337">
        <ele>128</ele>
        <time>2016-09-25T08:27:13Z</time>
      </trkpt>
      <trkpt lat="47.32451" lon="-1.82314">
        <ele>128</ele>
        <time>2016-09-25T08:27:19Z</time>
      </trkpt>
      <trkpt lat="47.32472" lon="-1.82308">
        <ele>130</ele>
        <time>2016-09-25T08:27:25Z</time>
      </trkpt>
      <trkpt lat="47.32482" lon="-1.82345">
        <ele>129</ele>
        <time>2016-09-25T08:27:32Z</time>
      </trkpt>
      <trkpt lat="47.32497" lon="-1.82392">
        <ele>133</ele>
        <time>2016-09-25T08:27:38Z</time>
      </trkpt>
      <trkpt lat="47.3251" lon="-1.82425">
        <ele>126</ele>
        <time>2016-09-25T08:27:43Z</time>
      </trkpt>
      <trkpt lat="47.3252" lon="-1.82461">
        <ele>126</ele>
        <time>2016-09-25T08:27:50Z</time>
      </trkpt>
      <trkpt lat="47.3252" lon="-1.82481">
        <ele>126</ele>
        <time>2016-09-25T08:27:56Z</time>
      </trkpt>
      <trkpt lat="47.32531" lon="-1.82503">
        <ele>123</ele>
        <time>2016-09-25T08:28:08Z</time>
      </trkpt>
      <trkpt lat="47.32544" lon="-1.82536">
        <ele>132</ele>
        <time>2016-09-25T08:28:20Z</time>
      </trkpt>
      <trkpt lat="47.32541" lon="-1.82559">
        <ele>128</ele>
        <time>2016-09-25T08:28:28Z</time>
      </trkpt>
      <trkpt lat="47.32541" lon="-1.82584">
        <ele>129</ele>
        <time>2016-09-25T08:28:40Z</time>
      </trkpt>
      <trkpt lat="47.32555" lon="-1.82593">
        <ele>128</ele>
        <time>2016-09-25T08:28:47Z</time>
      </trkpt>
      <trkpt lat="47.32553" lon="-1.82621">
        <ele>126</ele>
        <time>2016-09-25T08:28:57Z</time>
      </trkpt>
      <trkpt lat="47.32561" lon="-1.82639">
        <ele>127</ele>
        <time>2016-09-25T08:29:05Z</time>
      </trkpt>
      <trkpt lat="47.32574" lon="-1.82664">
        <ele>123</ele>
        <time>2016-09-25T08:29:16Z</time>
      </trkpt>
      <trkpt lat="47.32578" lon="-1.82697">
        <ele>121</ele>
        <time>2016-09-25T08:29:27Z</time>
      </trkpt>
      <trkpt lat="47.32582" lon="-1.82719">
        <ele>116</ele>
        <time>2016-09-25T08:29:34Z</time>
      </trkpt>
      <trkpt lat="47.32582" lon="-1.82719">
        <ele>116</ele>
        <time>2016-09-25T08:29:40Z</time>
      </trkpt>
      <trkpt lat="47.32582" lon="-1.82719">
        <ele>116</ele>
        <time>2016-09-25T08:29:42Z</time>
      </trkpt>
      <trkpt lat="47.32568" lon="-1.82691">
        <ele>121</ele>
        <time>2016-09-25T08:30:23Z</time>
      </trkpt>
      <trkpt lat="47.32562" lon="-1.82665">
        <ele>118</ele>
        <time>2016-09-25T08:30:30Z</time>
      </trkpt>
      <trkpt lat="47.32554" lon="-1.82641">
        <ele>124</ele>
        <time>2016-09-25T08:30:36Z</time>
      </trkpt>
      <trkpt lat="47.32551" lon="-1.82627">
        <ele>124</ele>
        <time>2016-09-25T08:30:41Z</time>
      </trkpt>
      <trkpt lat="47.3254" lon="-1.82628">
        <ele>125</ele>
        <time>2016-09-25T08:30:50Z</time>
      </trkpt>
      <trkpt lat="47.32543" lon="-1.82658">
        <ele>130</ele>
        <time>2016-09-25T08:31:01Z</time>
      </trkpt>
      <trkpt lat="47.3255" lon="-1.82686">
        <ele>127</ele>
        <time>2016-09-25T08:31:08Z</time>
      </trkpt>
      <trkpt lat="47.3255" lon="-1.82686">
        <ele>127</ele>
        <time>2016-09-25T08:31:15Z</time>
      </trkpt>
      <trkpt lat="47.3255" lon="-1.82686">
        <ele>127</ele>
        <time>2016-09-25T08:31:16Z</time>
      </trkpt>
      <trkpt lat="47.32522" lon="-1.82706">
        <ele>127</ele>
        <time>2016-09-25T08:31:25Z</time>
      </trkpt>
      <trkpt lat="47.32513" lon="-1.82717">
        <ele>131</ele>
        <time>2016-09-25T08:31:30Z</time>
      </trkpt>
      <trkpt lat="47.32505" lon="-1.82746">
        <ele>134</ele>
        <time>2016-09-25T08:31:38Z</time>
      </trkpt>
      <trkpt lat="47.32501" lon="-1.8277">
        <ele>138</ele>
        <time>2016-09-25T08:31:45Z</time>
      </trkpt>
      <trkpt lat="47.32499" lon="-1.82773">
        <ele>137</ele>
        <time>2016-09-25T08:31:55Z</time>
      </trkpt>
      <trkpt lat="47.32502" lon="-1.82795">
        <ele>124</ele>
        <time>2016-09-25T08:32:09Z</time>
      </trkpt>
      <trkpt lat="47.32501" lon="-1.82804">
        <ele>124</ele>
        <time>2016-09-25T08:32:16Z</time>
      </trkpt>
      <trkpt lat="47.32503" lon="-1.82805">
        <ele>123</ele>
        <time>2016-09-25T08:32:25Z</time>
      </trkpt>
      <trkpt lat="47.32524" lon="-1.82779">
        <ele>128</ele>
        <time>2016-09-25T08:33:01Z</time>
      </trkpt>
      <trkpt lat="47.32532" lon="-1.82767">
        <ele>125</ele>
        <time>2016-09-25T08:33:07Z</time>
      </trkpt>
      <trkpt lat="47.32533" lon="-1.82762">
        <ele>121</ele>
        <time>2016-09-25T08:33:14Z</time>
      </trkpt>
      <trkpt lat="47.32522" lon="-1.82742">
        <ele>129</ele>
        <time>2016-09-25T08:33:28Z</time>
      </trkpt>
      <trkpt lat="47.32531" lon="-1.82723">
        <ele>133</ele>
        <time>2016-09-25T08:33:37Z</time>
      </trkpt>
      <trkpt lat="47.32555" lon="-1.82708">
        <ele>129</ele>
        <time>2016-09-25T08:33:46Z</time>
      </trkpt>
      <trkpt lat="47.32549" lon="-1.82736">
        <ele>128</ele>
        <time>2016-09-25T08:33:55Z</time>
      </trkpt>
      <trkpt lat="47.32556" lon="-1.82766">
        <ele>124</ele>
        <time>2016-09-25T08:34:04Z</time>
      </trkpt>
      <trkpt lat="47.32561" lon="-1.82782">
        <ele>122</ele>
        <time>2016-09-25T08:34:09Z</time>
      </trkpt>
      <trkpt lat="47.3257" lon="-1.82792">
        <ele>116</ele>
        <time>2016-09-25T08:34:14Z</time>
      </trkpt>
      <trkpt lat="47.32572" lon="-1.82774">
        <ele>120</ele>
        <time>2016-09-25T08:34:26Z</time>
      </trkpt>
      <trkpt lat="47.32592" lon="-1.8276">
        <ele>118</ele>
        <time>2016-09-25T08:34:44Z</time>
      </trkpt>
      <trkpt lat="47.3262" lon="-1.82736">
        <ele>114</ele>
        <time>2016-09-25T08:35:01Z</time>
      </trkpt>
      <trkpt lat="47.32638" lon="-1.82734">
        <ele>114</ele>
        <time>2016-09-25T08:35:08Z</time>
      </trkpt>
      <trkpt lat="47.32652" lon="-1.82724">
        <ele>116</ele>
        <time>2016-09-25T08:35:14Z</time>
      </trkpt>
      <trkpt lat="47.3268" lon="-1.82703">
        <ele>118</ele>
        <time>2016-09-25T08:35:27Z</time>
      </trkpt>
      <trkpt lat="47.32689" lon="-1.8271">
        <ele>118</ele>
        <time>2016-09-25T08:35:34Z</time>
      </trkpt>
      <trkpt lat="47.32718" lon="-1.82701">
        <ele>116</ele>
        <time>2016-09-25T08:35:44Z</time>
      </trkpt>
      <trkpt lat="47.32734" lon="-1.82699">
        <ele>116</ele>
        <time>2016-09-25T08:35:49Z</time>
      </trkpt>
      <trkpt lat="47.32747" lon="-1.82694">
        <ele>120</ele>
        <time>2016-09-25T08:35:55Z</time>
      </trkpt>
      <trkpt lat="47.32767" lon="-1.82684">
        <ele>123</ele>
        <time>2016-09-25T08:36:03Z</time>
      </trkpt>
      <trkpt lat="47.32785" lon="-1.82676">
        <ele>120</ele>
        <time>2016-09-25T08:36:09Z</time>
      </trkpt>
      <trkpt lat="47.328" lon="-1.82676">
        <ele>122</ele>
        <time>2016-09-25T08:36:15Z</time>
      </trkpt>
      <trkpt lat="47.32802" lon="-1.82656">
        <ele>129</ele>
        <time>2016-09-25T08:36:25Z</time>
      </trkpt>
      <trkpt lat="47.328" lon="-1.82611">
        <ele>128</ele>
        <time>2016-09-25T08:36:38Z</time>
      </trkpt>
      <trkpt lat="47.32823" lon="-1.8259">
        <ele>122</ele>
        <time>2016-09-25T08:36:46Z</time>
      </trkpt>
      <trkpt lat="47.32835" lon="-1.82592">
        <ele>122</ele>
        <time>2016-09-25T08:36:53Z</time>
      </trkpt>
      <trkpt lat="47.3284" lon="-1.82589">
        <ele>121</ele>
        <time>2016-09-25T08:36:56Z</time>
      </trkpt>
      <trkpt lat="47.32824" lon="-1.82608">
        <ele>121</ele>
        <time>2016-09-25T08:37:07Z</time>
      </trkpt>
      <trkpt lat="47.32815" lon="-1.82628">
        <ele>122</ele>
        <time>2016-09-25T08:37:17Z</time>
      </trkpt>
      <trkpt lat="47.32811" lon="-1.82662">
        <ele>117</ele>
        <time>2016-09-25T08:37:27Z</time>
      </trkpt>
      <trkpt lat="47.32797" lon="-1.82679">
        <ele>119</ele>
        <time>2016-09-25T08:37:43Z</time>
      </trkpt>
      <trkpt lat="47.32776" lon="-1.82709">
        <ele>115</ele>
        <time>2016-09-25T08:37:54Z</time>
      </trkpt>
      <trkpt lat="47.32764" lon="-1.82719">
        <ele>111</ele>
        <time>2016-09-25T08:38:02Z</time>
      </trkpt>
      <trkpt lat="47.32736" lon="-1.82723">
        <ele>112</ele>
        <time>2016-09-25T08:38:08Z</time>
      </trkpt>
      <trkpt lat="47.32722" lon="-1.82724">
        <ele>113</ele>
        <time>2016-09-25T08:38:21Z</time>
      </trkpt>
      <trkpt lat="47.32681" lon="-1.82734">
        <ele>108</ele>
        <time>2016-09-25T08:38:40Z</time>
      </trkpt>
      <trkpt lat="47.32666" lon="-1.82742">
        <ele>112</ele>
        <time>2016-09-25T08:38:48Z</time>
      </trkpt>
      <trkpt lat="47.32654" lon="-1.82745">
        <ele>113</ele>
        <time>2016-09-25T08:38:56Z</time>
      </trkpt>
      <trkpt lat="47.32624" lon="-1.82756">
        <ele>112</ele>
        <time>2016-09-25T08:39:05Z</time>
      </trkpt>
      <trkpt lat="47.32597" lon="-1.8278">
        <ele>111</ele>
        <time>2016-09-25T08:39:12Z</time>
      </trkpt>
      <trkpt lat="47.32591" lon="-1.82805">
        <ele>109</ele>
        <time>2016-09-25T08:39:17Z</time>
      </trkpt>
      <trkpt lat="47.32565" lon="-1.82824">
        <ele>109</ele>
        <time>2016-09-25T08:39:24Z</time>
      </trkpt>
      <trkpt lat="47.3254" lon="-1.82833">
        <ele>107</ele>
        <time>2016-09-25T08:39:30Z</time>
      </trkpt>
      <trkpt lat="47.32527" lon="-1.82853">
        <ele>106</ele>
        <time>2016-09-25T08:39:37Z</time>
      </trkpt>
      <trkpt lat="47.32491" lon="-1.82877">
        <ele>113</ele>
        <time>2016-09-25T08:39:49Z</time>
      </trkpt>
      <trkpt lat="47.32472" lon="-1.82901">
        <ele>114</ele>
        <time>2016-09-25T08:39:59Z</time>
      </trkpt>
      <trkpt lat="47.32452" lon="-1.82922">
        <ele>109</ele>
        <time>2016-09-25T08:40:07Z</time>
      </trkpt>
      <trkpt lat="47.32421" lon="-1.82946">
        <ele>107</ele>
        <time>2016-09-25T08:40:17Z</time>
      </trkpt>
      <trkpt lat="47.32392" lon="-1.82956">
        <ele>106</ele>
        <time>2016-09-25T08:40:23Z</time>
      </trkpt>
      <trkpt lat="47.32384" lon="-1.82947">
        <ele>104</ele>
        <time>2016-09-25T08:40:30Z</time>
      </trkpt>
      <trkpt lat="47.32374" lon="-1.82938">
        <ele>113</ele>
        <time>2016-09-25T08:40:38Z</time>
      </trkpt>
      <trkpt lat="47.32367" lon="-1.82932">
        <ele>115</ele>
        <time>2016-09-25T08:40:41Z</time>
      </trkpt>
      <trkpt lat="47.32365" lon="-1.82933">
        <ele>118</ele>
        <time>2016-09-25T08:40:48Z</time>
      </trkpt>
      <trkpt lat="47.32356" lon="-1.82889">
        <ele>116</ele>
        <time>2016-09-25T08:41:36Z</time>
      </trkpt>
      <trkpt lat="47.32358" lon="-1.82867">
        <ele>117</ele>
        <time>2016-09-25T08:41:45Z</time>
      </trkpt>
      <trkpt lat="47.32355" lon="-1.82853">
        <ele>123</ele>
        <time>2016-09-25T08:41:55Z</time>
      </trkpt>
      <trkpt lat="47.32355" lon="-1.82853">
        <ele>123</ele>
        <time>2016-09-25T08:42:02Z</time>
      </trkpt>
      <trkpt lat="47.32345" lon="-1.8283">
        <ele>121</ele>
        <time>2016-09-25T08:42:11Z</time>
      </trkpt>
      <trkpt lat="47.32337" lon="-1.82804">
        <ele>122</ele>
        <time>2016-09-25T08:42:20Z</time>
      </trkpt>
      <trkpt lat="47.32327" lon="-1.82799">
        <ele>120</ele>
        <time>2016-09-25T08:42:25Z</time>
      </trkpt>
      <trkpt lat="47.3231" lon="-1.82822">
        <ele>121</ele>
        <time>2016-09-25T08:42:34Z</time>
      </trkpt>
      <trkpt lat="47.32297" lon="-1.82853">
        <ele>123</ele>
        <time>2016-09-25T08:42:42Z</time>
      </trkpt>
      <trkpt lat="47.32289" lon="-1.82889">
        <ele>119</ele>
        <time>2016-09-25T08:42:49Z</time>
      </trkpt>
      <trkpt lat="47.32277" lon="-1.82923">
        <ele>120</ele>
        <time>2016-09-25T08:42:55Z</time>
      </trkpt>
      <trkpt lat="47.32268" lon="-1.82962">
        <ele>117</ele>
        <time>2016-09-25T08:43:00Z</time>
      </trkpt>
      <trkpt lat="47.32255" lon="-1.83012">
        <ele>119</ele>
        <time>2016-09-25T08:43:06Z</time>
      </trkpt>
      <trkpt lat="47.32252" lon="-1.83032">
        <ele>118</ele>
        <time>2016-09-25T08:43:10Z</time>
      </trkpt>
      <trkpt lat="47.32253" lon="-1.83033">
        <ele>118</ele>
        <time>2016-09-25T08:43:16Z</time>
      </trkpt>
      <trkpt lat="47.32251" lon="-1.83055">
        <ele>117</ele>
        <time>2016-09-25T08:48:18Z</time>
      </trkpt>
      <trkpt lat="47.32294" lon="-1.83043">
        <ele>115</ele>
        <time>2016-09-25T08:48:28Z</time>
      </trkpt>
      <trkpt lat="47.32317" lon="-1.83036">
        <ele>113</ele>
        <time>2016-09-25T08:48:31Z</time>
      </trkpt>
      <trkpt lat="47.32342" lon="-1.8303">
        <ele>112</ele>
        <time>2016-09-25T08:48:34Z</time>
      </trkpt>
      <trkpt lat="47.32385" lon="-1.83022">
        <ele>110</ele>
        <time>2016-09-25T08:48:40Z</time>
      </trkpt>
      <trkpt lat="47.32391" lon="-1.83036">
        <ele>113</ele>
        <time>2016-09-25T08:48:46Z</time>
      </trkpt>
      <trkpt lat="47.32389" lon="-1.83073">
        <ele>112</ele>
        <time>2016-09-25T08:48:53Z</time>
      </trkpt>
      <trkpt lat="47.32382" lon="-1.83103">
        <ele>111</ele>
        <time>2016-09-25T08:48:59Z</time>
      </trkpt>
      <trkpt lat="47.32381" lon="-1.83137">
        <ele>109</ele>
        <time>2016-09-25T08:49:04Z</time>
      </trkpt>
      <trkpt lat="47.32367" lon="-1.83173">
        <ele>108</ele>
        <time>2016-09-25T08:49:09Z</time>
      </trkpt>
      <trkpt lat="47.32344" lon="-1.83226">
        <ele>108</ele>
        <time>2016-09-25T08:49:15Z</time>
      </trkpt>
      <trkpt lat="47.32327" lon="-1.8326">
        <ele>109</ele>
        <time>2016-09-25T08:49:21Z</time>
      </trkpt>
      <trkpt lat="47.32316" lon="-1.83279">
        <ele>110</ele>
        <time>2016-09-25T08:49:24Z</time>
      </trkpt>
      <trkpt lat="47.32303" lon="-1.83308">
        <ele>109</ele>
        <time>2016-09-25T08:49:30Z</time>
      </trkpt>
      <trkpt lat="47.32289" lon="-1.83347">
        <ele>108</ele>
        <time>2016-09-25T08:49:37Z</time>
      </trkpt>
      <trkpt lat="47.3228" lon="-1.83382">
        <ele>105</ele>
        <time>2016-09-25T08:49:42Z</time>
      </trkpt>
      <trkpt lat="47.32265" lon="-1.83403">
        <ele>103</ele>
        <time>2016-09-25T08:49:47Z</time>
      </trkpt>
      <trkpt lat="47.32258" lon="-1.83433">
        <ele>101</ele>
        <time>2016-09-25T08:49:52Z</time>
      </trkpt>
      <trkpt lat="47.32252" lon="-1.83474">
        <ele>100</ele>
        <time>2016-09-25T08:49:57Z</time>
      </trkpt>
      <trkpt lat="47.32248" lon="-1.83529">
        <ele>96</ele>
        <time>2016-09-25T08:50:02Z</time>
      </trkpt>
      <trkpt lat="47.32235" lon="-1.8357">
        <ele>96</ele>
        <time>2016-09-25T08:50:07Z</time>
      </trkpt>
      <trkpt lat="47.32219" lon="-1.83597">
        <ele>95</ele>
        <time>2016-09-25T08:50:13Z</time>
      </trkpt>
      <trkpt lat="47.32197" lon="-1.83613">
        <ele>96</ele>
        <time>2016-09-25T08:50:19Z</time>
      </trkpt>
      <trkpt lat="47.32177" lon="-1.8362">
        <ele>95</ele>
        <time>2016-09-25T08:50:24Z</time>
      </trkpt>
      <trkpt lat="47.32151" lon="-1.83622">
        <ele>94</ele>
        <time>2016-09-25T08:50:29Z</time>
      </trkpt>
      <trkpt lat="47.32126" lon="-1.83643">
        <ele>94</ele>
        <time>2016-09-25T08:50:34Z</time>
      </trkpt>
      <trkpt lat="47.32118" lon="-1.8366">
        <ele>93</ele>
        <time>2016-09-25T08:50:37Z</time>
      </trkpt>
      <trkpt lat="47.32103" lon="-1.83687">
        <ele>92</ele>
        <time>2016-09-25T08:50:43Z</time>
      </trkpt>
      <trkpt lat="47.32087" lon="-1.83709">
        <ele>93</ele>
        <time>2016-09-25T08:50:51Z</time>
      </trkpt>
      <trkpt lat="47.32049" lon="-1.83759">
        <ele>88</ele>
        <time>2016-09-25T08:51:03Z</time>
      </trkpt>
      <trkpt lat="47.3202" lon="-1.83789">
        <ele>90</ele>
        <time>2016-09-25T08:51:11Z</time>
      </trkpt>
      <trkpt lat="47.31996" lon="-1.83824">
        <ele>88</ele>
        <time>2016-09-25T08:51:17Z</time>
      </trkpt>
      <trkpt lat="47.31973" lon="-1.83851">
        <ele>89</ele>
        <time>2016-09-25T08:51:23Z</time>
      </trkpt>
      <trkpt lat="47.31965" lon="-1.83867">
        <ele>87</ele>
        <time>2016-09-25T08:51:27Z</time>
      </trkpt>
      <trkpt lat="47.31973" lon="-1.83895">
        <ele>91</ele>
        <time>2016-09-25T08:51:39Z</time>
      </trkpt>
      <trkpt lat="47.3199" lon="-1.83905">
        <ele>95</ele>
        <time>2016-09-25T08:51:50Z</time>
      </trkpt>
      <trkpt lat="47.32003" lon="-1.83918">
        <ele>103</ele>
        <time>2016-09-25T08:52:03Z</time>
      </trkpt>
      <trkpt lat="47.32023" lon="-1.83949">
        <ele>101</ele>
        <time>2016-09-25T08:52:15Z</time>
      </trkpt>
      <trkpt lat="47.32024" lon="-1.83953">
        <ele>100</ele>
        <time>2016-09-25T08:52:19Z</time>
      </trkpt>
      <trkpt lat="47.32023" lon="-1.83957">
        <ele>102</ele>
        <time>2016-09-25T08:52:25Z</time>
      </trkpt>
      <trkpt lat="47.32016" lon="-1.83997">
        <ele>109</ele>
        <time>2016-09-25T08:53:16Z</time>
      </trkpt>
      <trkpt lat="47.31997" lon="-1.84018">
        <ele>109</ele>
        <time>2016-09-25T08:53:31Z</time>
      </trkpt>
      <trkpt lat="47.32004" lon="-1.84044">
        <ele>109</ele>
        <time>2016-09-25T08:53:40Z</time>
      </trkpt>
      <trkpt lat="47.32014" lon="-1.84077">
        <ele>108</ele>
        <time>2016-09-25T08:53:48Z</time>
      </trkpt>
      <trkpt lat="47.3202" lon="-1.84109">
        <ele>107</ele>
        <time>2016-09-25T08:53:57Z</time>
      </trkpt>
      <trkpt lat="47.3202" lon="-1.84126">
        <ele>109</ele>
        <time>2016-09-25T08:54:02Z</time>
      </trkpt>
      <trkpt lat="47.32027" lon="-1.8415">
        <ele>109</ele>
        <time>2016-09-25T08:54:08Z</time>
      </trkpt>
      <trkpt lat="47.32032" lon="-1.84165">
        <ele>110</ele>
        <time>2016-09-25T08:54:12Z</time>
      </trkpt>
      <trkpt lat="47.32047" lon="-1.84193">
        <ele>112</ele>
        <time>2016-09-25T08:54:21Z</time>
      </trkpt>
      <trkpt lat="47.32062" lon="-1.84224">
        <ele>113</ele>
        <time>2016-09-25T08:54:30Z</time>
      </trkpt>
      <trkpt lat="47.32074" lon="-1.84252">
        <ele>114</ele>
        <time>2016-09-25T08:54:37Z</time>
      </trkpt>
      <trkpt lat="47.3208" lon="-1.84263">
        <ele>113</ele>
        <time>2016-09-25T08:54:40Z</time>
      </trkpt>
      <trkpt lat="47.32091" lon="-1.84288">
        <ele>114</ele>
        <time>2016-09-25T08:54:46Z</time>
      </trkpt>
      <trkpt lat="47.32108" lon="-1.84313">
        <ele>115</ele>
        <time>2016-09-25T08:54:54Z</time>
      </trkpt>
      <trkpt lat="47.32131" lon="-1.84325">
        <ele>117</ele>
        <time>2016-09-25T08:55:02Z</time>
      </trkpt>
      <trkpt lat="47.32144" lon="-1.84358">
        <ele>117</ele>
        <time>2016-09-25T08:55:09Z</time>
      </trkpt>
      <trkpt lat="47.32156" lon="-1.84391">
        <ele>118</ele>
        <time>2016-09-25T08:55:15Z</time>
      </trkpt>
      <trkpt lat="47.32161" lon="-1.84414">
        <ele>118</ele>
        <time>2016-09-25T08:55:19Z</time>
      </trkpt>
      <trkpt lat="47.32172" lon="-1.84452">
        <ele>120</ele>
        <time>2016-09-25T08:55:26Z</time>
      </trkpt>
      <trkpt lat="47.32179" lon="-1.84481">
        <ele>119</ele>
        <time>2016-09-25T08:55:31Z</time>
      </trkpt>
      <trkpt lat="47.32184" lon="-1.84499">
        <ele>119</ele>
        <time>2016-09-25T08:55:34Z</time>
      </trkpt>
      <trkpt lat="47.32189" lon="-1.84518">
        <ele>119</ele>
        <time>2016-09-25T08:55:37Z</time>
      </trkpt>
      <trkpt lat="47.32204" lon="-1.84559">
        <ele>116</ele>
        <time>2016-09-25T08:55:43Z</time>
      </trkpt>
      <trkpt lat="47.32215" lon="-1.84595">
        <ele>116</ele>
        <time>2016-09-25T08:55:48Z</time>
      </trkpt>
      <trkpt lat="47.32221" lon="-1.84642">
        <ele>117</ele>
        <time>2016-09-25T08:55:54Z</time>
      </trkpt>
      <trkpt lat="47.32227" lon="-1.84682">
        <ele>115</ele>
        <time>2016-09-25T08:56:00Z</time>
      </trkpt>
      <trkpt lat="47.32259" lon="-1.84685">
        <ele>113</ele>
        <time>2016-09-25T08:56:07Z</time>
      </trkpt>
      <trkpt lat="47.32289" lon="-1.84712">
        <ele>110</ele>
        <time>2016-09-25T08:56:13Z</time>
      </trkpt>
      <trkpt lat="47.32321" lon="-1.84748">
        <ele>108</ele>
        <time>2016-09-25T08:56:18Z</time>
      </trkpt>
      <trkpt lat="47.32371" lon="-1.84754">
        <ele>105</ele>
        <time>2016-09-25T08:56:24Z</time>
      </trkpt>
      <trkpt lat="47.32405" lon="-1.84765">
        <ele>101</ele>
        <time>2016-09-25T08:56:29Z</time>
      </trkpt>
      <trkpt lat="47.32424" lon="-1.84788">
        <ele>99</ele>
        <time>2016-09-25T08:56:33Z</time>
      </trkpt>
      <trkpt lat="47.32433" lon="-1.8482">
        <ele>98</ele>
        <time>2016-09-25T08:56:39Z</time>
      </trkpt>
      <trkpt lat="47.32431" lon="-1.84877">
        <ele>96</ele>
        <time>2016-09-25T08:56:46Z</time>
      </trkpt>
      <trkpt lat="47.32398" lon="-1.84907">
        <ele>91</ele>
        <time>2016-09-25T08:56:53Z</time>
      </trkpt>
      <trkpt lat="47.32367" lon="-1.84943">
        <ele>89</ele>
        <time>2016-09-25T08:57:00Z</time>
      </trkpt>
      <trkpt lat="47.32338" lon="-1.84988">
        <ele>90</ele>
        <time>2016-09-25T08:57:06Z</time>
      </trkpt>
      <trkpt lat="47.3232" lon="-1.85023">
        <ele>92</ele>
        <time>2016-09-25T08:57:12Z</time>
      </trkpt>
      <trkpt lat="47.32304" lon="-1.85049">
        <ele>91</ele>
        <time>2016-09-25T08:57:18Z</time>
      </trkpt>
      <trkpt lat="47.32272" lon="-1.8508">
        <ele>90</ele>
        <time>2016-09-25T08:57:27Z</time>
      </trkpt>
      <trkpt lat="47.32236" lon="-1.85103">
        <ele>89</ele>
        <time>2016-09-25T08:57:32Z</time>
      </trkpt>
      <trkpt lat="47.32205" lon="-1.85133">
        <ele>88</ele>
        <time>2016-09-25T08:57:37Z</time>
      </trkpt>
      <trkpt lat="47.32165" lon="-1.85163">
        <ele>89</ele>
        <time>2016-09-25T08:57:43Z</time>
      </trkpt>
      <trkpt lat="47.32141" lon="-1.85194">
        <ele>86</ele>
        <time>2016-09-25T08:57:49Z</time>
      </trkpt>
      <trkpt lat="47.32125" lon="-1.85225">
        <ele>86</ele>
        <time>2016-09-25T08:57:54Z</time>
      </trkpt>
      <trkpt lat="47.32101" lon="-1.85271">
        <ele>84</ele>
        <time>2016-09-25T08:58:00Z</time>
      </trkpt>
      <trkpt lat="47.32084" lon="-1.8531">
        <ele>82</ele>
        <time>2016-09-25T08:58:06Z</time>
      </trkpt>
      <trkpt lat="47.32055" lon="-1.85349">
        <ele>78</ele>
        <time>2016-09-25T08:58:12Z</time>
      </trkpt>
      <trkpt lat="47.32029" lon="-1.85376">
        <ele>78</ele>
        <time>2016-09-25T08:58:17Z</time>
      </trkpt>
      <trkpt lat="47.31983" lon="-1.85397">
        <ele>78</ele>
        <time>2016-09-25T08:58:27Z</time>
      </trkpt>
      <trkpt lat="47.31949" lon="-1.85415">
        <ele>76</ele>
        <time>2016-09-25T08:58:33Z</time>
      </trkpt>
      <trkpt lat="47.31926" lon="-1.85456">
        <ele>78</ele>
        <time>2016-09-25T08:58:41Z</time>
      </trkpt>
      <trkpt lat="47.31928" lon="-1.85494">
        <ele>80</ele>
        <time>2016-09-25T08:58:46Z</time>
      </trkpt>
      <trkpt lat="47.31921" lon="-1.85536">
        <ele>83</ele>
        <time>2016-09-25T08:58:51Z</time>
      </trkpt>
      <trkpt lat="47.3189" lon="-1.85577">
        <ele>79</ele>
        <time>2016-09-25T08:58:57Z</time>
      </trkpt>
      <trkpt lat="47.31868" lon="-1.85609">
        <ele>82</ele>
        <time>2016-09-25T08:59:03Z</time>
      </trkpt>
      <trkpt lat="47.31828" lon="-1.85639">
        <ele>81</ele>
        <time>2016-09-25T08:59:10Z</time>
      </trkpt>
      <trkpt lat="47.318" lon="-1.85676">
        <ele>82</ele>
        <time>2016-09-25T08:59:16Z</time>
      </trkpt>
      <trkpt lat="47.31768" lon="-1.85716">
        <ele>80</ele>
        <time>2016-09-25T08:59:21Z</time>
      </trkpt>
      <trkpt lat="47.31738" lon="-1.8575">
        <ele>73</ele>
        <time>2016-09-25T08:59:25Z</time>
      </trkpt>
      <trkpt lat="47.3172" lon="-1.85779">
        <ele>73</ele>
        <time>2016-09-25T08:59:28Z</time>
      </trkpt>
      <trkpt lat="47.31685" lon="-1.85817">
        <ele>69</ele>
        <time>2016-09-25T08:59:34Z</time>
      </trkpt>
      <trkpt lat="47.31649" lon="-1.85848">
        <ele>67</ele>
        <time>2016-09-25T08:59:40Z</time>
      </trkpt>
      <trkpt lat="47.31599" lon="-1.8588">
        <ele>67</ele>
        <time>2016-09-25T08:59:47Z</time>
      </trkpt>
      <trkpt lat="47.31567" lon="-1.85904">
        <ele>67</ele>
        <time>2016-09-25T08:59:52Z</time>
      </trkpt>
      <trkpt lat="47.3154" lon="-1.85928">
        <ele>66</ele>
        <time>2016-09-25T08:59:57Z</time>
      </trkpt>
      <trkpt lat="47.31544" lon="-1.85956">
        <ele>66</ele>
        <time>2016-09-25T09:00:03Z</time>
      </trkpt>
      <trkpt lat="47.31557" lon="-1.85968">
        <ele>66</ele>
        <time>2016-09-25T09:00:06Z</time>
      </trkpt>
      <trkpt lat="47.31583" lon="-1.86008">
        <ele>66</ele>
        <time>2016-09-25T09:00:12Z</time>
      </trkpt>
      <trkpt lat="47.31611" lon="-1.86064">
        <ele>63</ele>
        <time>2016-09-25T09:00:18Z</time>
      </trkpt>
      <trkpt lat="47.31649" lon="-1.86112">
        <ele>62</ele>
        <time>2016-09-25T09:00:24Z</time>
      </trkpt>
      <trkpt lat="47.31664" lon="-1.8616">
        <ele>62</ele>
        <time>2016-09-25T09:00:30Z</time>
      </trkpt>
      <trkpt lat="47.31677" lon="-1.86215">
        <ele>60</ele>
        <time>2016-09-25T09:00:37Z</time>
      </trkpt>
      <trkpt lat="47.31692" lon="-1.86247">
        <ele>59</ele>
        <time>2016-09-25T09:00:42Z</time>
      </trkpt>
      <trkpt lat="47.31705" lon="-1.86254">
        <ele>59</ele>
        <time>2016-09-25T09:00:45Z</time>
      </trkpt>
      <trkpt lat="47.31718" lon="-1.86227">
        <ele>63</ele>
        <time>2016-09-25T09:00:53Z</time>
      </trkpt>
      <trkpt lat="47.31739" lon="-1.86203">
        <ele>63</ele>
        <time>2016-09-25T09:00:59Z</time>
      </trkpt>
      <trkpt lat="47.3175" lon="-1.86184">
        <ele>60</ele>
        <time>2016-09-25T09:01:05Z</time>
      </trkpt>
      <trkpt lat="47.31771" lon="-1.86165">
        <ele>61</ele>
        <time>2016-09-25T09:01:13Z</time>
      </trkpt>
      <trkpt lat="47.31772" lon="-1.86144">
        <ele>65</ele>
        <time>2016-09-25T09:01:21Z</time>
      </trkpt>
      <trkpt lat="47.31782" lon="-1.86125">
        <ele>68</ele>
        <time>2016-09-25T09:01:29Z</time>
      </trkpt>
      <trkpt lat="47.318" lon="-1.86108">
        <ele>64</ele>
        <time>2016-09-25T09:01:35Z</time>
      </trkpt>
      <trkpt lat="47.31809" lon="-1.861">
        <ele>65</ele>
        <time>2016-09-25T09:01:40Z</time>
      </trkpt>
      <trkpt lat="47.31822" lon="-1.86089">
        <ele>67</ele>
        <time>2016-09-25T09:01:47Z</time>
      </trkpt>
      <trkpt lat="47.31832" lon="-1.86078">
        <ele>72</ele>
        <time>2016-09-25T09:01:55Z</time>
      </trkpt>
      <trkpt lat="47.31856" lon="-1.86055">
        <ele>71</ele>
        <time>2016-09-25T09:02:06Z</time>
      </trkpt>
      <trkpt lat="47.31868" lon="-1.86047">
        <ele>73</ele>
        <time>2016-09-25T09:02:14Z</time>
      </trkpt>
      <trkpt lat="47.31879" lon="-1.86029">
        <ele>79</ele>
        <time>2016-09-25T09:02:26Z</time>
      </trkpt>
      <trkpt lat="47.31898" lon="-1.8603">
        <ele>86</ele>
        <time>2016-09-25T09:02:42Z</time>
      </trkpt>
      <trkpt lat="47.31922" lon="-1.86032">
        <ele>86</ele>
        <time>2016-09-25T09:02:58Z</time>
      </trkpt>
      <trkpt lat="47.31941" lon="-1.86038">
        <ele>85</ele>
        <time>2016-09-25T09:03:10Z</time>
      </trkpt>
      <trkpt lat="47.31957" lon="-1.8605">
        <ele>89</ele>
        <time>2016-09-25T09:03:23Z</time>
      </trkpt>
      <trkpt lat="47.31977" lon="-1.86071">
        <ele>88</ele>
        <time>2016-09-25T09:03:34Z</time>
      </trkpt>
      <trkpt lat="47.31991" lon="-1.86088">
        <ele>89</ele>
        <time>2016-09-25T09:03:42Z</time>
      </trkpt>
      <trkpt lat="47.32004" lon="-1.86107">
        <ele>92</ele>
        <time>2016-09-25T09:03:51Z</time>
      </trkpt>
      <trkpt lat="47.32021" lon="-1.86128">
        <ele>95</ele>
        <time>2016-09-25T09:04:01Z</time>
      </trkpt>
      <trkpt lat="47.32038" lon="-1.86141">
        <ele>96</ele>
        <time>2016-09-25T09:04:09Z</time>
      </trkpt>
      <trkpt lat="47.32053" lon="-1.8615">
        <ele>97</ele>
        <time>2016-09-25T09:04:15Z</time>
      </trkpt>
      <trkpt lat="47.3207" lon="-1.86163">
        <ele>97</ele>
        <time>2016-09-25T09:04:22Z</time>
      </trkpt>
      <trkpt lat="47.32096" lon="-1.86176">
        <ele>95</ele>
        <time>2016-09-25T09:04:31Z</time>
      </trkpt>
      <trkpt lat="47.32106" lon="-1.86182">
        <ele>98</ele>
        <time>2016-09-25T09:04:37Z</time>
      </trkpt>
      <trkpt lat="47.3213" lon="-1.8619">
        <ele>101</ele>
        <time>2016-09-25T09:04:48Z</time>
      </trkpt>
      <trkpt lat="47.32144" lon="-1.86185">
        <ele>104</ele>
        <time>2016-09-25T09:04:55Z</time>
      </trkpt>
      <trkpt lat="47.32127" lon="-1.86151">
        <ele>106</ele>
        <time>2016-09-25T09:05:05Z</time>
      </trkpt>
      <trkpt lat="47.32115" lon="-1.86126">
        <ele>106</ele>
        <time>2016-09-25T09:05:14Z</time>
      </trkpt>
      <trkpt lat="47.32102" lon="-1.86103">
        <ele>108</ele>
        <time>2016-09-25T09:05:26Z</time>
      </trkpt>
      <trkpt lat="47.32084" lon="-1.86084">
        <ele>113</ele>
        <time>2016-09-25T09:05:34Z</time>
      </trkpt>
      <trkpt lat="47.3207" lon="-1.86072">
        <ele>110</ele>
        <time>2016-09-25T09:05:39Z</time>
      </trkpt>
      <trkpt lat="47.32063" lon="-1.86048">
        <ele>110</ele>
        <time>2016-09-25T09:05:45Z</time>
      </trkpt>
      <trkpt lat="47.32057" lon="-1.8601">
        <ele>114</ele>
        <time>2016-09-25T09:05:54Z</time>
      </trkpt>
      <trkpt lat="47.32042" lon="-1.85998">
        <ele>109</ele>
        <time>2016-09-25T09:06:00Z</time>
      </trkpt>
      <trkpt lat="47.32027" lon="-1.85969">
        <ele>111</ele>
        <time>2016-09-25T09:06:06Z</time>
      </trkpt>
      <trkpt lat="47.3201" lon="-1.85957">
        <ele>111</ele>
        <time>2016-09-25T09:06:11Z</time>
      </trkpt>
      <trkpt lat="47.31999" lon="-1.8594">
        <ele>111</ele>
        <time>2016-09-25T09:06:14Z</time>
      </trkpt>
      <trkpt lat="47.31985" lon="-1.85916">
        <ele>109</ele>
        <time>2016-09-25T09:06:17Z</time>
      </trkpt>
      <trkpt lat="47.31987" lon="-1.85892">
        <ele>107</ele>
        <time>2016-09-25T09:06:24Z</time>
      </trkpt>
      <trkpt lat="47.32" lon="-1.8589">
        <ele>109</ele>
        <time>2016-09-25T09:06:30Z</time>
      </trkpt>
      <trkpt lat="47.32021" lon="-1.85872">
        <ele>110</ele>
        <time>2016-09-25T09:06:40Z</time>
      </trkpt>
      <trkpt lat="47.32011" lon="-1.85813">
        <ele>111</ele>
        <time>2016-09-25T09:06:50Z</time>
      </trkpt>
      <trkpt lat="47.32008" lon="-1.8577">
        <ele>112</ele>
        <time>2016-09-25T09:06:55Z</time>
      </trkpt>
      <trkpt lat="47.32001" lon="-1.85733">
        <ele>110</ele>
        <time>2016-09-25T09:07:01Z</time>
      </trkpt>
      <trkpt lat="47.31997" lon="-1.85695">
        <ele>110</ele>
        <time>2016-09-25T09:07:07Z</time>
      </trkpt>
      <trkpt lat="47.32023" lon="-1.85676">
        <ele>111</ele>
        <time>2016-09-25T09:07:14Z</time>
      </trkpt>
      <trkpt lat="47.3203" lon="-1.8564">
        <ele>111</ele>
        <time>2016-09-25T09:07:21Z</time>
      </trkpt>
      <trkpt lat="47.32022" lon="-1.85591">
        <ele>108</ele>
        <time>2016-09-25T09:07:29Z</time>
      </trkpt>
      <trkpt lat="47.3204" lon="-1.85585">
        <ele>108</ele>
        <time>2016-09-25T09:07:34Z</time>
      </trkpt>
      <trkpt lat="47.32068" lon="-1.85568">
        <ele>107</ele>
        <time>2016-09-25T09:07:40Z</time>
      </trkpt>
      <trkpt lat="47.32085" lon="-1.85548">
        <ele>102</ele>
        <time>2016-09-25T09:07:44Z</time>
      </trkpt>
      <trkpt lat="47.32103" lon="-1.85532">
        <ele>104</ele>
        <time>2016-09-25T09:07:48Z</time>
      </trkpt>
      <trkpt lat="47.32116" lon="-1.85519">
        <ele>107</ele>
        <time>2016-09-25T09:07:52Z</time>
      </trkpt>
      <trkpt lat="47.32138" lon="-1.8551">
        <ele>109</ele>
        <time>2016-09-25T09:07:59Z</time>
      </trkpt>
      <trkpt lat="47.32155" lon="-1.855">
        <ele>112</ele>
        <time>2016-09-25T09:08:06Z</time>
      </trkpt>
      <trkpt lat="47.32178" lon="-1.85492">
        <ele>114</ele>
        <time>2016-09-25T09:08:13Z</time>
      </trkpt>
      <trkpt lat="47.32201" lon="-1.85488">
        <ele>112</ele>
        <time>2016-09-25T09:08:18Z</time>
      </trkpt>
      <trkpt lat="47.32206" lon="-1.85451">
        <ele>110</ele>
        <time>2016-09-25T09:08:24Z</time>
      </trkpt>
      <trkpt lat="47.32197" lon="-1.85423">
        <ele>112</ele>
        <time>2016-09-25T09:08:30Z</time>
      </trkpt>
      <trkpt lat="47.32207" lon="-1.85384">
        <ele>114</ele>
        <time>2016-09-25T09:08:36Z</time>
      </trkpt>
      <trkpt lat="47.32247" lon="-1.85376">
        <ele>109</ele>
        <time>2016-09-25T09:08:42Z</time>
      </trkpt>
      <trkpt lat="47.32275" lon="-1.8537">
        <ele>108</ele>
        <time>2016-09-25T09:08:47Z</time>
      </trkpt>
      <trkpt lat="47.323" lon="-1.85365">
        <ele>110</ele>
        <time>2016-09-25T09:08:52Z</time>
      </trkpt>
      <trkpt lat="47.32306" lon="-1.85335">
        <ele>110</ele>
        <time>2016-09-25T09:08:57Z</time>
      </trkpt>
      <trkpt lat="47.32296" lon="-1.85283">
        <ele>108</ele>
        <time>2016-09-25T09:09:03Z</time>
      </trkpt>
      <trkpt lat="47.323" lon="-1.85255">
        <ele>108</ele>
        <time>2016-09-25T09:09:09Z</time>
      </trkpt>
      <trkpt lat="47.32323" lon="-1.85253">
        <ele>107</ele>
        <time>2016-09-25T09:09:14Z</time>
      </trkpt>
      <trkpt lat="47.32338" lon="-1.8525">
        <ele>106</ele>
        <time>2016-09-25T09:09:17Z</time>
      </trkpt>
      <trkpt lat="47.3235" lon="-1.85239">
        <ele>105</ele>
        <time>2016-09-25T09:09:20Z</time>
      </trkpt>
      <trkpt lat="47.32342" lon="-1.85186">
        <ele>103</ele>
        <time>2016-09-25T09:09:26Z</time>
      </trkpt>
      <trkpt lat="47.32357" lon="-1.8516">
        <ele>103</ele>
        <time>2016-09-25T09:09:32Z</time>
      </trkpt>
      <trkpt lat="47.32382" lon="-1.85144">
        <ele>104</ele>
        <time>2016-09-25T09:09:38Z</time>
      </trkpt>
      <trkpt lat="47.32405" lon="-1.85126">
        <ele>105</ele>
        <time>2016-09-25T09:09:44Z</time>
      </trkpt>
      <trkpt lat="47.32426" lon="-1.85116">
        <ele>106</ele>
        <time>2016-09-25T09:09:50Z</time>
      </trkpt>
      <trkpt lat="47.32437" lon="-1.85075">
        <ele>105</ele>
        <time>2016-09-25T09:09:58Z</time>
      </trkpt>
      <trkpt lat="47.32451" lon="-1.85052">
        <ele>105</ele>
        <time>2016-09-25T09:10:03Z</time>
      </trkpt>
      <trkpt lat="47.32456" lon="-1.85007">
        <ele>104</ele>
        <time>2016-09-25T09:10:09Z</time>
      </trkpt>
      <trkpt lat="47.32433" lon="-1.84961">
        <ele>100</ele>
        <time>2016-09-25T09:10:14Z</time>
      </trkpt>
      <trkpt lat="47.32423" lon="-1.84939">
        <ele>100</ele>
        <time>2016-09-25T09:10:17Z</time>
      </trkpt>
      <trkpt lat="47.3243" lon="-1.84903">
        <ele>99</ele>
        <time>2016-09-25T09:10:21Z</time>
      </trkpt>
      <trkpt lat="47.32461" lon="-1.84841">
        <ele>100</ele>
        <time>2016-09-25T09:10:29Z</time>
      </trkpt>
      <trkpt lat="47.32461" lon="-1.84813">
        <ele>100</ele>
        <time>2016-09-25T09:10:36Z</time>
      </trkpt>
      <trkpt lat="47.32485" lon="-1.8479">
        <ele>104</ele>
        <time>2016-09-25T09:10:42Z</time>
      </trkpt>
      <trkpt lat="47.32512" lon="-1.84767">
        <ele>100</ele>
        <time>2016-09-25T09:10:48Z</time>
      </trkpt>
      <trkpt lat="47.32536" lon="-1.84772">
        <ele>101</ele>
        <time>2016-09-25T09:10:54Z</time>
      </trkpt>
      <trkpt lat="47.32557" lon="-1.84777">
        <ele>102</ele>
        <time>2016-09-25T09:11:02Z</time>
      </trkpt>
      <trkpt lat="47.32581" lon="-1.84783">
        <ele>101</ele>
        <time>2016-09-25T09:11:09Z</time>
      </trkpt>
      <trkpt lat="47.32613" lon="-1.84788">
        <ele>105</ele>
        <time>2016-09-25T09:11:18Z</time>
      </trkpt>
      <trkpt lat="47.32628" lon="-1.84806">
        <ele>108</ele>
        <time>2016-09-25T09:11:24Z</time>
      </trkpt>
      <trkpt lat="47.32651" lon="-1.84815">
        <ele>105</ele>
        <time>2016-09-25T09:11:32Z</time>
      </trkpt>
      <trkpt lat="47.3268" lon="-1.84842">
        <ele>101</ele>
        <time>2016-09-25T09:11:39Z</time>
      </trkpt>
      <trkpt lat="47.32697" lon="-1.84867">
        <ele>103</ele>
        <time>2016-09-25T09:11:45Z</time>
      </trkpt>
      <trkpt lat="47.32714" lon="-1.84895">
        <ele>104</ele>
        <time>2016-09-25T09:11:52Z</time>
      </trkpt>
      <trkpt lat="47.32729" lon="-1.84904">
        <ele>106</ele>
        <time>2016-09-25T09:12:00Z</time>
      </trkpt>
      <trkpt lat="47.32746" lon="-1.84924">
        <ele>109</ele>
        <time>2016-09-25T09:12:12Z</time>
      </trkpt>
      <trkpt lat="47.32763" lon="-1.84933">
        <ele>106</ele>
        <time>2016-09-25T09:12:21Z</time>
      </trkpt>
      <trkpt lat="47.3279" lon="-1.84968">
        <ele>106</ele>
        <time>2016-09-25T09:12:31Z</time>
      </trkpt>
      <trkpt lat="47.32796" lon="-1.84988">
        <ele>105</ele>
        <time>2016-09-25T09:12:37Z</time>
      </trkpt>
      <trkpt lat="47.32799" lon="-1.84989">
        <ele>104</ele>
        <time>2016-09-25T09:12:40Z</time>
      </trkpt>
      <trkpt lat="47.32798" lon="-1.84994">
        <ele>106</ele>
        <time>2016-09-25T09:12:47Z</time>
      </trkpt>
      <trkpt lat="47.32815" lon="-1.85007">
        <ele>106</ele>
        <time>2016-09-25T09:13:13Z</time>
      </trkpt>
      <trkpt lat="47.32823" lon="-1.8502">
        <ele>113</ele>
        <time>2016-09-25T09:13:19Z</time>
      </trkpt>
      <trkpt lat="47.32852" lon="-1.8507">
        <ele>114</ele>
        <time>2016-09-25T09:13:33Z</time>
      </trkpt>
      <trkpt lat="47.32872" lon="-1.85085">
        <ele>116</ele>
        <time>2016-09-25T09:13:40Z</time>
      </trkpt>
      <trkpt lat="47.32887" lon="-1.8512">
        <ele>116</ele>
        <time>2016-09-25T09:13:50Z</time>
      </trkpt>
      <trkpt lat="47.32904" lon="-1.8515">
        <ele>120</ele>
        <time>2016-09-25T09:13:59Z</time>
      </trkpt>
      <trkpt lat="47.32913" lon="-1.85176">
        <ele>120</ele>
        <time>2016-09-25T09:14:05Z</time>
      </trkpt>
      <trkpt lat="47.32921" lon="-1.85209">
        <ele>122</ele>
        <time>2016-09-25T09:14:13Z</time>
      </trkpt>
      <trkpt lat="47.32914" lon="-1.85245">
        <ele>123</ele>
        <time>2016-09-25T09:14:21Z</time>
      </trkpt>
      <trkpt lat="47.32907" lon="-1.85266">
        <ele>122</ele>
        <time>2016-09-25T09:14:26Z</time>
      </trkpt>
      <trkpt lat="47.32913" lon="-1.85293">
        <ele>122</ele>
        <time>2016-09-25T09:14:32Z</time>
      </trkpt>
      <trkpt lat="47.32922" lon="-1.85316">
        <ele>123</ele>
        <time>2016-09-25T09:14:39Z</time>
      </trkpt>
      <trkpt lat="47.32938" lon="-1.85308">
        <ele>120</ele>
        <time>2016-09-25T09:14:45Z</time>
      </trkpt>
      <trkpt lat="47.32943" lon="-1.85307">
        <ele>118</ele>
        <time>2016-09-25T09:14:53Z</time>
      </trkpt>
      <trkpt lat="47.32958" lon="-1.85292">
        <ele>117</ele>
        <time>2016-09-25T09:15:52Z</time>
      </trkpt>
      <trkpt lat="47.32986" lon="-1.85275">
        <ele>114</ele>
        <time>2016-09-25T09:16:00Z</time>
      </trkpt>
      <trkpt lat="47.32998" lon="-1.85308">
        <ele>116</ele>
        <time>2016-09-25T09:16:08Z</time>
      </trkpt>
      <trkpt lat="47.33008" lon="-1.85333">
        <ele>118</ele>
        <time>2016-09-25T09:16:15Z</time>
      </trkpt>
      <trkpt lat="47.33014" lon="-1.85356">
        <ele>122</ele>
        <time>2016-09-25T09:16:22Z</time>
      </trkpt>
      <trkpt lat="47.33025" lon="-1.85379">
        <ele>118</ele>
        <time>2016-09-25T09:16:27Z</time>
      </trkpt>
      <trkpt lat="47.33032" lon="-1.85412">
        <ele>119</ele>
        <time>2016-09-25T09:16:35Z</time>
      </trkpt>
      <trkpt lat="47.3304" lon="-1.8544">
        <ele>120</ele>
        <time>2016-09-25T09:16:42Z</time>
      </trkpt>
      <trkpt lat="47.33049" lon="-1.85481">
        <ele>120</ele>
        <time>2016-09-25T09:16:50Z</time>
      </trkpt>
      <trkpt lat="47.33054" lon="-1.85504">
        <ele>122</ele>
        <time>2016-09-25T09:16:55Z</time>
      </trkpt>
      <trkpt lat="47.33065" lon="-1.85537">
        <ele>119</ele>
        <time>2016-09-25T09:17:01Z</time>
      </trkpt>
      <trkpt lat="47.33077" lon="-1.85564">
        <ele>119</ele>
        <time>2016-09-25T09:17:07Z</time>
      </trkpt>
      <trkpt lat="47.33086" lon="-1.85584">
        <ele>122</ele>
        <time>2016-09-25T09:17:12Z</time>
      </trkpt>
      <trkpt lat="47.33094" lon="-1.85612">
        <ele>124</ele>
        <time>2016-09-25T09:17:18Z</time>
      </trkpt>
      <trkpt lat="47.33108" lon="-1.8565">
        <ele>122</ele>
        <time>2016-09-25T09:17:24Z</time>
      </trkpt>
      <trkpt lat="47.33127" lon="-1.85677">
        <ele>125</ele>
        <time>2016-09-25T09:17:30Z</time>
      </trkpt>
      <trkpt lat="47.33144" lon="-1.85717">
        <ele>125</ele>
        <time>2016-09-25T09:17:36Z</time>
      </trkpt>
      <trkpt lat="47.33163" lon="-1.85756">
        <ele>125</ele>
        <time>2016-09-25T09:17:42Z</time>
      </trkpt>
      <trkpt lat="47.33185" lon="-1.85789">
        <ele>124</ele>
        <time>2016-09-25T09:17:48Z</time>
      </trkpt>
      <trkpt lat="47.33207" lon="-1.85814">
        <ele>121</ele>
        <time>2016-09-25T09:17:53Z</time>
      </trkpt>
      <trkpt lat="47.3322" lon="-1.85825">
        <ele>123</ele>
        <time>2016-09-25T09:17:56Z</time>
      </trkpt>
      <trkpt lat="47.33238" lon="-1.85841">
        <ele>124</ele>
        <time>2016-09-25T09:18:00Z</time>
      </trkpt>
      <trkpt lat="47.33256" lon="-1.85873">
        <ele>124</ele>
        <time>2016-09-25T09:18:06Z</time>
      </trkpt>
      <trkpt lat="47.33259" lon="-1.85908">
        <ele>124</ele>
        <time>2016-09-25T09:18:11Z</time>
      </trkpt>
      <trkpt lat="47.33259" lon="-1.8593">
        <ele>124</ele>
        <time>2016-09-25T09:18:16Z</time>
      </trkpt>
      <trkpt lat="47.33248" lon="-1.8596">
        <ele>125</ele>
        <time>2016-09-25T09:18:23Z</time>
      </trkpt>
      <trkpt lat="47.33227" lon="-1.85963">
        <ele>122</ele>
        <time>2016-09-25T09:18:28Z</time>
      </trkpt>
      <trkpt lat="47.33213" lon="-1.8596">
        <ele>121</ele>
        <time>2016-09-25T09:18:31Z</time>
      </trkpt>
      <trkpt lat="47.33184" lon="-1.85965">
        <ele>119</ele>
        <time>2016-09-25T09:18:36Z</time>
      </trkpt>
      <trkpt lat="47.33152" lon="-1.85972">
        <ele>119</ele>
        <time>2016-09-25T09:18:42Z</time>
      </trkpt>
      <trkpt lat="47.33136" lon="-1.85966">
        <ele>121</ele>
        <time>2016-09-25T09:18:45Z</time>
      </trkpt>
      <trkpt lat="47.33111" lon="-1.85946">
        <ele>121</ele>
        <time>2016-09-25T09:18:50Z</time>
      </trkpt>
      <trkpt lat="47.33094" lon="-1.85946">
        <ele>121</ele>
        <time>2016-09-25T09:18:53Z</time>
      </trkpt>
      <trkpt lat="47.33077" lon="-1.85947">
        <ele>118</ele>
        <time>2016-09-25T09:18:56Z</time>
      </trkpt>
      <trkpt lat="47.33042" lon="-1.85964">
        <ele>115</ele>
        <time>2016-09-25T09:19:02Z</time>
      </trkpt>
      <trkpt lat="47.33027" lon="-1.85974">
        <ele>115</ele>
        <time>2016-09-25T09:19:05Z</time>
      </trkpt>
      <trkpt lat="47.33001" lon="-1.85966">
        <ele>115</ele>
        <time>2016-09-25T09:19:10Z</time>
      </trkpt>
      <trkpt lat="47.32966" lon="-1.85945">
        <ele>113</ele>
        <time>2016-09-25T09:19:17Z</time>
      </trkpt>
      <trkpt lat="47.3294" lon="-1.85918">
        <ele>112</ele>
        <time>2016-09-25T09:19:23Z</time>
      </trkpt>
      <trkpt lat="47.32913" lon="-1.85904">
        <ele>113</ele>
        <time>2016-09-25T09:19:30Z</time>
      </trkpt>
      <trkpt lat="47.32908" lon="-1.85933">
        <ele>113</ele>
        <time>2016-09-25T09:19:36Z</time>
      </trkpt>
      <trkpt lat="47.32919" lon="-1.85997">
        <ele>114</ele>
        <time>2016-09-25T09:19:43Z</time>
      </trkpt>
      <trkpt lat="47.32927" lon="-1.8605">
        <ele>114</ele>
        <time>2016-09-25T09:19:49Z</time>
      </trkpt>
      <trkpt lat="47.32932" lon="-1.86091">
        <ele>115</ele>
        <time>2016-09-25T09:19:54Z</time>
      </trkpt>
      <trkpt lat="47.32937" lon="-1.86131">
        <ele>117</ele>
        <time>2016-09-25T09:20:00Z</time>
      </trkpt>
      <trkpt lat="47.32942" lon="-1.86171">
        <ele>115</ele>
        <time>2016-09-25T09:20:06Z</time>
      </trkpt>
      <trkpt lat="47.32924" lon="-1.86197">
        <ele>114</ele>
        <time>2016-09-25T09:20:12Z</time>
      </trkpt>
      <trkpt lat="47.32888" lon="-1.86208">
        <ele>113</ele>
        <time>2016-09-25T09:20:18Z</time>
      </trkpt>
      <trkpt lat="47.32871" lon="-1.86214">
        <ele>111</ele>
        <time>2016-09-25T09:20:21Z</time>
      </trkpt>
      <trkpt lat="47.32866" lon="-1.86247">
        <ele>110</ele>
        <time>2016-09-25T09:20:27Z</time>
      </trkpt>
      <trkpt lat="47.32872" lon="-1.8628">
        <ele>111</ele>
        <time>2016-09-25T09:20:32Z</time>
      </trkpt>
      <trkpt lat="47.32876" lon="-1.86299">
        <ele>110</ele>
        <time>2016-09-25T09:20:35Z</time>
      </trkpt>
      <trkpt lat="47.3288" lon="-1.86319">
        <ele>110</ele>
        <time>2016-09-25T09:20:38Z</time>
      </trkpt>
      <trkpt lat="47.32885" lon="-1.8634">
        <ele>110</ele>
        <time>2016-09-25T09:20:41Z</time>
      </trkpt>
      <trkpt lat="47.32894" lon="-1.8638">
        <ele>111</ele>
        <time>2016-09-25T09:20:47Z</time>
      </trkpt>
      <trkpt lat="47.32901" lon="-1.86413">
        <ele>113</ele>
        <time>2016-09-25T09:20:52Z</time>
      </trkpt>
      <trkpt lat="47.32911" lon="-1.86458">
        <ele>113</ele>
        <time>2016-09-25T09:20:59Z</time>
      </trkpt>
      <trkpt lat="47.32918" lon="-1.8649">
        <ele>114</ele>
        <time>2016-09-25T09:21:04Z</time>
      </trkpt>
      <trkpt lat="47.32927" lon="-1.86523">
        <ele>114</ele>
        <time>2016-09-25T09:21:09Z</time>
      </trkpt>
      <trkpt lat="47.32946" lon="-1.86536">
        <ele>113</ele>
        <time>2016-09-25T09:21:14Z</time>
      </trkpt>
      <trkpt lat="47.32959" lon="-1.86533">
        <ele>112</ele>
        <time>2016-09-25T09:21:17Z</time>
      </trkpt>
      <trkpt lat="47.32972" lon="-1.8653">
        <ele>113</ele>
        <time>2016-09-25T09:21:20Z</time>
      </trkpt>
      <trkpt lat="47.32984" lon="-1.86542">
        <ele>113</ele>
        <time>2016-09-25T09:21:25Z</time>
      </trkpt>
      <trkpt lat="47.32968" lon="-1.86567">
        <ele>111</ele>
        <time>2016-09-25T09:21:30Z</time>
      </trkpt>
      <trkpt lat="47.3295" lon="-1.86611">
        <ele>107</ele>
        <time>2016-09-25T09:21:35Z</time>
      </trkpt>
      <trkpt lat="47.32939" lon="-1.86642">
        <ele>108</ele>
        <time>2016-09-25T09:21:38Z</time>
      </trkpt>
      <trkpt lat="47.32936" lon="-1.86693">
        <ele>107</ele>
        <time>2016-09-25T09:21:43Z</time>
      </trkpt>
      <trkpt lat="47.32943" lon="-1.86771">
        <ele>104</ele>
        <time>2016-09-25T09:21:50Z</time>
      </trkpt>
      <trkpt lat="47.32927" lon="-1.8682">
        <ele>102</ele>
        <time>2016-09-25T09:21:55Z</time>
      </trkpt>
      <trkpt lat="47.32884" lon="-1.86844">
        <ele>102</ele>
        <time>2016-09-25T09:22:01Z</time>
      </trkpt>
      <trkpt lat="47.32853" lon="-1.86874">
        <ele>97</ele>
        <time>2016-09-25T09:22:06Z</time>
      </trkpt>
      <trkpt lat="47.32824" lon="-1.86918">
        <ele>91</ele>
        <time>2016-09-25T09:22:12Z</time>
      </trkpt>
      <trkpt lat="47.32808" lon="-1.86955">
        <ele>91</ele>
        <time>2016-09-25T09:22:16Z</time>
      </trkpt>
      <trkpt lat="47.32796" lon="-1.87008">
        <ele>89</ele>
        <time>2016-09-25T09:22:21Z</time>
      </trkpt>
      <trkpt lat="47.32762" lon="-1.87037">
        <ele>82</ele>
        <time>2016-09-25T09:22:26Z</time>
      </trkpt>
      <trkpt lat="47.32723" lon="-1.87073">
        <ele>86</ele>
        <time>2016-09-25T09:22:32Z</time>
      </trkpt>
      <trkpt lat="47.32698" lon="-1.87088">
        <ele>84</ele>
        <time>2016-09-25T09:22:38Z</time>
      </trkpt>
      <trkpt lat="47.3266" lon="-1.87115">
        <ele>77</ele>
        <time>2016-09-25T09:22:44Z</time>
      </trkpt>
      <trkpt lat="47.32643" lon="-1.87153">
        <ele>75</ele>
        <time>2016-09-25T09:22:49Z</time>
      </trkpt>
      <trkpt lat="47.32613" lon="-1.87202">
        <ele>80</ele>
        <time>2016-09-25T09:22:56Z</time>
      </trkpt>
      <trkpt lat="47.32592" lon="-1.87257">
        <ele>77</ele>
        <time>2016-09-25T09:23:03Z</time>
      </trkpt>
      <trkpt lat="47.32565" lon="-1.87302">
        <ele>78</ele>
        <time>2016-09-25T09:23:09Z</time>
      </trkpt>
      <trkpt lat="47.32524" lon="-1.8733">
        <ele>73</ele>
        <time>2016-09-25T09:23:15Z</time>
      </trkpt>
      <trkpt lat="47.32519" lon="-1.87355">
        <ele>71</ele>
        <time>2016-09-25T09:23:22Z</time>
      </trkpt>
      <trkpt lat="47.32541" lon="-1.87394">
        <ele>73</ele>
        <time>2016-09-25T09:23:27Z</time>
      </trkpt>
      <trkpt lat="47.3255" lon="-1.87443">
        <ele>70</ele>
        <time>2016-09-25T09:23:34Z</time>
      </trkpt>
      <trkpt lat="47.32561" lon="-1.87475">
        <ele>76</ele>
        <time>2016-09-25T09:23:42Z</time>
      </trkpt>
      <trkpt lat="47.32577" lon="-1.87477">
        <ele>74</ele>
        <time>2016-09-25T09:23:48Z</time>
      </trkpt>
      <trkpt lat="47.32597" lon="-1.87471">
        <ele>73</ele>
        <time>2016-09-25T09:23:56Z</time>
      </trkpt>
      <trkpt lat="47.32612" lon="-1.87469">
        <ele>77</ele>
        <time>2016-09-25T09:24:02Z</time>
      </trkpt>
      <trkpt lat="47.32633" lon="-1.87466">
        <ele>78</ele>
        <time>2016-09-25T09:24:11Z</time>
      </trkpt>
      <trkpt lat="47.3265" lon="-1.87473">
        <ele>81</ele>
        <time>2016-09-25T09:24:20Z</time>
      </trkpt>
      <trkpt lat="47.32675" lon="-1.87485">
        <ele>84</ele>
        <time>2016-09-25T09:24:32Z</time>
      </trkpt>
      <trkpt lat="47.32686" lon="-1.87487">
        <ele>88</ele>
        <time>2016-09-25T09:24:43Z</time>
      </trkpt>
      <trkpt lat="47.32709" lon="-1.87478">
        <ele>89</ele>
        <time>2016-09-25T09:25:00Z</time>
      </trkpt>
      <trkpt lat="47.32709" lon="-1.87478">
        <ele>89</ele>
        <time>2016-09-25T09:25:06Z</time>
      </trkpt>
      <trkpt lat="47.3272" lon="-1.87484">
        <ele>91</ele>
        <time>2016-09-25T09:25:10Z</time>
      </trkpt>
      <trkpt lat="47.32734" lon="-1.87497">
        <ele>99</ele>
        <time>2016-09-25T09:25:22Z</time>
      </trkpt>
      <trkpt lat="47.32743" lon="-1.87505">
        <ele>106</ele>
        <time>2016-09-25T09:25:28Z</time>
      </trkpt>
      <trkpt lat="47.32762" lon="-1.87533">
        <ele>103</ele>
        <time>2016-09-25T09:25:38Z</time>
      </trkpt>
      <trkpt lat="47.32781" lon="-1.87546">
        <ele>98</ele>
        <time>2016-09-25T09:25:45Z</time>
      </trkpt>
      <trkpt lat="47.32795" lon="-1.87555">
        <ele>98</ele>
        <time>2016-09-25T09:25:51Z</time>
      </trkpt>
      <trkpt lat="47.32815" lon="-1.87571">
        <ele>98</ele>
        <time>2016-09-25T09:26:00Z</time>
      </trkpt>
      <trkpt lat="47.32836" lon="-1.87608">
        <ele>95</ele>
        <time>2016-09-25T09:26:09Z</time>
      </trkpt>
      <trkpt lat="47.32849" lon="-1.87618">
        <ele>95</ele>
        <time>2016-09-25T09:26:13Z</time>
      </trkpt>
      <trkpt lat="47.32874" lon="-1.87619">
        <ele>96</ele>
        <time>2016-09-25T09:26:20Z</time>
      </trkpt>
      <trkpt lat="47.32898" lon="-1.87607">
        <ele>98</ele>
        <time>2016-09-25T09:26:27Z</time>
      </trkpt>
      <trkpt lat="47.32921" lon="-1.87615">
        <ele>100</ele>
        <time>2016-09-25T09:26:35Z</time>
      </trkpt>
      <trkpt lat="47.32936" lon="-1.87631">
        <ele>99</ele>
        <time>2016-09-25T09:26:42Z</time>
      </trkpt>
      <trkpt lat="47.32949" lon="-1.87645">
        <ele>102</ele>
        <time>2016-09-25T09:26:48Z</time>
      </trkpt>
      <trkpt lat="47.32962" lon="-1.87655">
        <ele>102</ele>
        <time>2016-09-25T09:26:54Z</time>
      </trkpt>
      <trkpt lat="47.32989" lon="-1.87635">
        <ele>103</ele>
        <time>2016-09-25T09:27:04Z</time>
      </trkpt>
      <trkpt lat="47.33005" lon="-1.87624">
        <ele>103</ele>
        <time>2016-09-25T09:27:10Z</time>
      </trkpt>
      <trkpt lat="47.33027" lon="-1.87617">
        <ele>105</ele>
        <time>2016-09-25T09:27:16Z</time>
      </trkpt>
      <trkpt lat="47.3305" lon="-1.87635">
        <ele>106</ele>
        <time>2016-09-25T09:27:23Z</time>
      </trkpt>
      <trkpt lat="47.33065" lon="-1.87653">
        <ele>108</ele>
        <time>2016-09-25T09:27:29Z</time>
      </trkpt>
      <trkpt lat="47.33081" lon="-1.87673">
        <ele>110</ele>
        <time>2016-09-25T09:27:36Z</time>
      </trkpt>
      <trkpt lat="47.33092" lon="-1.87689">
        <ele>113</ele>
        <time>2016-09-25T09:27:42Z</time>
      </trkpt>
      <trkpt lat="47.3311" lon="-1.87717">
        <ele>116</ele>
        <time>2016-09-25T09:27:51Z</time>
      </trkpt>
      <trkpt lat="47.33123" lon="-1.8773">
        <ele>117</ele>
        <time>2016-09-25T09:27:57Z</time>
      </trkpt>
      <trkpt lat="47.33153" lon="-1.87736">
        <ele>112</ele>
        <time>2016-09-25T09:28:05Z</time>
      </trkpt>
      <trkpt lat="47.33175" lon="-1.87742">
        <ele>116</ele>
        <time>2016-09-25T09:28:11Z</time>
      </trkpt>
      <trkpt lat="47.33192" lon="-1.87749">
        <ele>117</ele>
        <time>2016-09-25T09:28:16Z</time>
      </trkpt>
      <trkpt lat="47.33227" lon="-1.87754">
        <ele>118</ele>
        <time>2016-09-25T09:28:24Z</time>
      </trkpt>
      <trkpt lat="47.33263" lon="-1.87741">
        <ele>116</ele>
        <time>2016-09-25T09:28:30Z</time>
      </trkpt>
      <trkpt lat="47.33303" lon="-1.87734">
        <ele>112</ele>
        <time>2016-09-25T09:28:35Z</time>
      </trkpt>
      <trkpt lat="47.33347" lon="-1.87724">
        <ele>109</ele>
        <time>2016-09-25T09:28:41Z</time>
      </trkpt>
      <trkpt lat="47.33371" lon="-1.87742">
        <ele>108</ele>
        <time>2016-09-25T09:28:46Z</time>
      </trkpt>
      <trkpt lat="47.33377" lon="-1.87764">
        <ele>107</ele>
        <time>2016-09-25T09:28:50Z</time>
      </trkpt>
      <trkpt lat="47.33383" lon="-1.87785">
        <ele>105</ele>
        <time>2016-09-25T09:28:55Z</time>
      </trkpt>
      <trkpt lat="47.33378" lon="-1.87793">
        <ele>105</ele>
        <time>2016-09-25T09:29:05Z</time>
      </trkpt>
      <trkpt lat="47.33356" lon="-1.87808">
        <ele>104</ele>
        <time>2016-09-25T09:29:16Z</time>
      </trkpt>
      <trkpt lat="47.33335" lon="-1.87837">
        <ele>102</ele>
        <time>2016-09-25T09:29:23Z</time>
      </trkpt>
      <trkpt lat="47.33299" lon="-1.87875">
        <ele>103</ele>
        <time>2016-09-25T09:29:30Z</time>
      </trkpt>
      <trkpt lat="47.33266" lon="-1.8795">
        <ele>103</ele>
        <time>2016-09-25T09:29:37Z</time>
      </trkpt>
      <trkpt lat="47.33248" lon="-1.87996">
        <ele>104</ele>
        <time>2016-09-25T09:29:42Z</time>
      </trkpt>
      <trkpt lat="47.33245" lon="-1.8804">
        <ele>104</ele>
        <time>2016-09-25T09:29:47Z</time>
      </trkpt>
      <trkpt lat="47.33228" lon="-1.88097">
        <ele>100</ele>
        <time>2016-09-25T09:29:52Z</time>
      </trkpt>
      <trkpt lat="47.3321" lon="-1.88138">
        <ele>99</ele>
        <time>2016-09-25T09:29:57Z</time>
      </trkpt>
      <trkpt lat="47.33182" lon="-1.88189">
        <ele>91</ele>
        <time>2016-09-25T09:30:03Z</time>
      </trkpt>
      <trkpt lat="47.33145" lon="-1.88217">
        <ele>90</ele>
        <time>2016-09-25T09:30:08Z</time>
      </trkpt>
      <trkpt lat="47.33107" lon="-1.8825">
        <ele>84</ele>
        <time>2016-09-25T09:30:13Z</time>
      </trkpt>
      <trkpt lat="47.33076" lon="-1.88293">
        <ele>79</ele>
        <time>2016-09-25T09:30:18Z</time>
      </trkpt>
      <trkpt lat="47.33046" lon="-1.88353">
        <ele>77</ele>
        <time>2016-09-25T09:30:24Z</time>
      </trkpt>
      <trkpt lat="47.33032" lon="-1.88402">
        <ele>77</ele>
        <time>2016-09-25T09:30:29Z</time>
      </trkpt>
      <trkpt lat="47.33027" lon="-1.88446">
        <ele>77</ele>
        <time>2016-09-25T09:30:35Z</time>
      </trkpt>
      <trkpt lat="47.33021" lon="-1.88482">
        <ele>75</ele>
        <time>2016-09-25T09:30:40Z</time>
      </trkpt>
      <trkpt lat="47.33008" lon="-1.88466">
        <ele>77</ele>
        <time>2016-09-25T09:30:46Z</time>
      </trkpt>
      <trkpt lat="47.32995" lon="-1.88433">
        <ele>73</ele>
        <time>2016-09-25T09:30:52Z</time>
      </trkpt>
      <trkpt lat="47.32987" lon="-1.88399">
        <ele>72</ele>
        <time>2016-09-25T09:31:02Z</time>
      </trkpt>
      <trkpt lat="47.32961" lon="-1.88377">
        <ele>78</ele>
        <time>2016-09-25T09:31:11Z</time>
      </trkpt>
      <trkpt lat="47.32932" lon="-1.88389">
        <ele>71</ele>
        <time>2016-09-25T09:31:16Z</time>
      </trkpt>
      <trkpt lat="47.32911" lon="-1.88358">
        <ele>74</ele>
        <time>2016-09-25T09:31:23Z</time>
      </trkpt>
      <trkpt lat="47.32883" lon="-1.88323">
        <ele>70</ele>
        <time>2016-09-25T09:31:29Z</time>
      </trkpt>
      <trkpt lat="47.32867" lon="-1.88289">
        <ele>66</ele>
        <time>2016-09-25T09:31:34Z</time>
      </trkpt>
      <trkpt lat="47.32864" lon="-1.88257">
        <ele>68</ele>
        <time>2016-09-25T09:31:40Z</time>
      </trkpt>
      <trkpt lat="47.32856" lon="-1.88239">
        <ele>71</ele>
        <time>2016-09-25T09:31:46Z</time>
      </trkpt>
      <trkpt lat="47.3285" lon="-1.88208">
        <ele>71</ele>
        <time>2016-09-25T09:31:52Z</time>
      </trkpt>
      <trkpt lat="47.32844" lon="-1.88173">
        <ele>72</ele>
        <time>2016-09-25T09:32:00Z</time>
      </trkpt>
      <trkpt lat="47.32837" lon="-1.88144">
        <ele>75</ele>
        <time>2016-09-25T09:32:07Z</time>
      </trkpt>
      <trkpt lat="47.32823" lon="-1.88113">
        <ele>75</ele>
        <time>2016-09-25T09:32:14Z</time>
      </trkpt>
      <trkpt lat="47.32814" lon="-1.88089">
        <ele>72</ele>
        <time>2016-09-25T09:32:19Z</time>
      </trkpt>
      <trkpt lat="47.32811" lon="-1.88054">
        <ele>74</ele>
        <time>2016-09-25T09:32:25Z</time>
      </trkpt>
      <trkpt lat="47.32802" lon="-1.88021">
        <ele>74</ele>
        <time>2016-09-25T09:32:32Z</time>
      </trkpt>
      <trkpt lat="47.32792" lon="-1.87987">
        <ele>72</ele>
        <time>2016-09-25T09:32:40Z</time>
      </trkpt>
      <trkpt lat="47.32792" lon="-1.87963">
        <ele>73</ele>
        <time>2016-09-25T09:32:45Z</time>
      </trkpt>
      <trkpt lat="47.32793" lon="-1.87937">
        <ele>75</ele>
        <time>2016-09-25T09:32:51Z</time>
      </trkpt>
      <trkpt lat="47.32793" lon="-1.87937">
        <ele>75</ele>
        <time>2016-09-25T09:32:57Z</time>
      </trkpt>
      <trkpt lat="47.32793" lon="-1.87937">
        <ele>75</ele>
        <time>2016-09-25T09:32:58Z</time>
      </trkpt>
      <trkpt lat="47.32786" lon="-1.87916">
        <ele>80</ele>
        <time>2016-09-25T09:33:06Z</time>
      </trkpt>
      <trkpt lat="47.32776" lon="-1.87883">
        <ele>76</ele>
        <time>2016-09-25T09:33:13Z</time>
      </trkpt>
      <trkpt lat="47.32768" lon="-1.87856">
        <ele>79</ele>
        <time>2016-09-25T09:33:20Z</time>
      </trkpt>
      <trkpt lat="47.32754" lon="-1.87845">
        <ele>78</ele>
        <time>2016-09-25T09:33:25Z</time>
      </trkpt>
      <trkpt lat="47.32742" lon="-1.87822">
        <ele>84</ele>
        <time>2016-09-25T09:33:32Z</time>
      </trkpt>
      <trkpt lat="47.32718" lon="-1.87796">
        <ele>78</ele>
        <time>2016-09-25T09:33:39Z</time>
      </trkpt>
      <trkpt lat="47.32698" lon="-1.8777">
        <ele>79</ele>
        <time>2016-09-25T09:33:45Z</time>
      </trkpt>
      <trkpt lat="47.32678" lon="-1.87736">
        <ele>81</ele>
        <time>2016-09-25T09:33:52Z</time>
      </trkpt>
      <trkpt lat="47.3266" lon="-1.87707">
        <ele>78</ele>
        <time>2016-09-25T09:33:58Z</time>
      </trkpt>
      <trkpt lat="47.32645" lon="-1.87671">
        <ele>81</ele>
        <time>2016-09-25T09:34:04Z</time>
      </trkpt>
      <trkpt lat="47.32623" lon="-1.87646">
        <ele>78</ele>
        <time>2016-09-25T09:34:09Z</time>
      </trkpt>
      <trkpt lat="47.32609" lon="-1.87624">
        <ele>81</ele>
        <time>2016-09-25T09:34:15Z</time>
      </trkpt>
      <trkpt lat="47.3258" lon="-1.8759">
        <ele>75</ele>
        <time>2016-09-25T09:34:20Z</time>
      </trkpt>
      <trkpt lat="47.32577" lon="-1.87585">
        <ele>74</ele>
        <time>2016-09-25T09:34:22Z</time>
      </trkpt>
      <trkpt lat="47.32573" lon="-1.87583">
        <ele>73</ele>
        <time>2016-09-25T09:34:29Z</time>
      </trkpt>
      <trkpt lat="47.32561" lon="-1.87597">
        <ele>77</ele>
        <time>2016-09-25T09:39:06Z</time>
      </trkpt>
      <trkpt lat="47.3255" lon="-1.87612">
        <ele>76</ele>
        <time>2016-09-25T09:39:09Z</time>
      </trkpt>
      <trkpt lat="47.32528" lon="-1.87639">
        <ele>72</ele>
        <time>2016-09-25T09:39:14Z</time>
      </trkpt>
      <trkpt lat="47.32513" lon="-1.87661">
        <ele>71</ele>
        <time>2016-09-25T09:39:17Z</time>
      </trkpt>
      <trkpt lat="47.32487" lon="-1.87704">
        <ele>67</ele>
        <time>2016-09-25T09:39:22Z</time>
      </trkpt>
      <trkpt lat="47.32464" lon="-1.87759">
        <ele>65</ele>
        <time>2016-09-25T09:39:28Z</time>
      </trkpt>
      <trkpt lat="47.32428" lon="-1.8779">
        <ele>63</ele>
        <time>2016-09-25T09:39:33Z</time>
      </trkpt>
      <trkpt lat="47.32405" lon="-1.87808">
        <ele>62</ele>
        <time>2016-09-25T09:39:36Z</time>
      </trkpt>
      <trkpt lat="47.32383" lon="-1.87824">
        <ele>61</ele>
        <time>2016-09-25T09:39:39Z</time>
      </trkpt>
      <trkpt lat="47.32351" lon="-1.87854">
        <ele>60</ele>
        <time>2016-09-25T09:39:44Z</time>
      </trkpt>
      <trkpt lat="47.32339" lon="-1.87867">
        <ele>60</ele>
        <time>2016-09-25T09:39:51Z</time>
      </trkpt>
      <trkpt lat="47.32273" lon="-1.87923">
        <ele>59</ele>
        <time>2016-09-25T09:40:08Z</time>
      </trkpt>
      <trkpt lat="47.3226" lon="-1.87916">
        <ele>60</ele>
        <time>2016-09-25T09:40:13Z</time>
      </trkpt>
      <trkpt lat="47.32243" lon="-1.87867">
        <ele>58</ele>
        <time>2016-09-25T09:40:20Z</time>
      </trkpt>
      <trkpt lat="47.32239" lon="-1.87839">
        <ele>58</ele>
        <time>2016-09-25T09:40:23Z</time>
      </trkpt>
      <trkpt lat="47.32219" lon="-1.87814">
        <ele>59</ele>
        <time>2016-09-25T09:40:28Z</time>
      </trkpt>
      <trkpt lat="47.32181" lon="-1.87821">
        <ele>56</ele>
        <time>2016-09-25T09:40:33Z</time>
      </trkpt>
      <trkpt lat="47.32148" lon="-1.87872">
        <ele>54</ele>
        <time>2016-09-25T09:40:39Z</time>
      </trkpt>
      <trkpt lat="47.32148" lon="-1.87932">
        <ele>51</ele>
        <time>2016-09-25T09:40:44Z</time>
      </trkpt>
      <trkpt lat="47.32128" lon="-1.87978">
        <ele>52</ele>
        <time>2016-09-25T09:40:49Z</time>
      </trkpt>
      <trkpt lat="47.32095" lon="-1.88">
        <ele>52</ele>
        <time>2016-09-25T09:40:54Z</time>
      </trkpt>
      <trkpt lat="47.32064" lon="-1.88011">
        <ele>53</ele>
        <time>2016-09-25T09:40:59Z</time>
      </trkpt>
      <trkpt lat="47.32044" lon="-1.88002">
        <ele>51</ele>
        <time>2016-09-25T09:41:04Z</time>
      </trkpt>
      <trkpt lat="47.32037" lon="-1.87977">
        <ele>50</ele>
        <time>2016-09-25T09:41:07Z</time>
      </trkpt>
      <trkpt lat="47.32025" lon="-1.87933">
        <ele>52</ele>
        <time>2016-09-25T09:41:12Z</time>
      </trkpt>
      <trkpt lat="47.32008" lon="-1.87884">
        <ele>55</ele>
        <time>2016-09-25T09:41:18Z</time>
      </trkpt>
      <trkpt lat="47.31995" lon="-1.87842">
        <ele>55</ele>
        <time>2016-09-25T09:41:23Z</time>
      </trkpt>
      <trkpt lat="47.31981" lon="-1.878">
        <ele>54</ele>
        <time>2016-09-25T09:41:28Z</time>
      </trkpt>
      <trkpt lat="47.31968" lon="-1.87758">
        <ele>55</ele>
        <time>2016-09-25T09:41:33Z</time>
      </trkpt>
      <trkpt lat="47.31955" lon="-1.87715">
        <ele>54</ele>
        <time>2016-09-25T09:41:38Z</time>
      </trkpt>
      <trkpt lat="47.31946" lon="-1.87688">
        <ele>54</ele>
        <time>2016-09-25T09:41:41Z</time>
      </trkpt>
      <trkpt lat="47.31937" lon="-1.87658">
        <ele>53</ele>
        <time>2016-09-25T09:41:44Z</time>
      </trkpt>
      <trkpt lat="47.31928" lon="-1.87627">
        <ele>52</ele>
        <time>2016-09-25T09:41:47Z</time>
      </trkpt>
      <trkpt lat="47.3191" lon="-1.87573">
        <ele>50</ele>
        <time>2016-09-25T09:41:52Z</time>
      </trkpt>
      <trkpt lat="47.31897" lon="-1.87544">
        <ele>51</ele>
        <time>2016-09-25T09:41:55Z</time>
      </trkpt>
      <trkpt lat="47.31882" lon="-1.87492">
        <ele>51</ele>
        <time>2016-09-25T09:42:00Z</time>
      </trkpt>
      <trkpt lat="47.31872" lon="-1.87462">
        <ele>50</ele>
        <time>2016-09-25T09:42:03Z</time>
      </trkpt>
      <trkpt lat="47.31856" lon="-1.87407">
        <ele>49</ele>
        <time>2016-09-25T09:42:09Z</time>
      </trkpt>
      <trkpt lat="47.3183" lon="-1.87403">
        <ele>50</ele>
        <time>2016-09-25T09:42:15Z</time>
      </trkpt>
      <trkpt lat="47.31799" lon="-1.87428">
        <ele>50</ele>
        <time>2016-09-25T09:42:21Z</time>
      </trkpt>
      <trkpt lat="47.3177" lon="-1.8743">
        <ele>50</ele>
        <time>2016-09-25T09:42:26Z</time>
      </trkpt>
      <trkpt lat="47.31759" lon="-1.8739">
        <ele>48</ele>
        <time>2016-09-25T09:42:31Z</time>
      </trkpt>
      <trkpt lat="47.31751" lon="-1.87337">
        <ele>51</ele>
        <time>2016-09-25T09:42:37Z</time>
      </trkpt>
      <trkpt lat="47.31743" lon="-1.87292">
        <ele>51</ele>
        <time>2016-09-25T09:42:42Z</time>
      </trkpt>
      <trkpt lat="47.31737" lon="-1.87265">
        <ele>51</ele>
        <time>2016-09-25T09:42:45Z</time>
      </trkpt>
      <trkpt lat="47.31729" lon="-1.8724">
        <ele>51</ele>
        <time>2016-09-25T09:42:48Z</time>
      </trkpt>
      <trkpt lat="47.31721" lon="-1.872">
        <ele>51</ele>
        <time>2016-09-25T09:42:53Z</time>
      </trkpt>
      <trkpt lat="47.3172" lon="-1.87174">
        <ele>51</ele>
        <time>2016-09-25T09:42:56Z</time>
      </trkpt>
      <trkpt lat="47.31715" lon="-1.87129">
        <ele>51</ele>
        <time>2016-09-25T09:43:02Z</time>
      </trkpt>
      <trkpt lat="47.31702" lon="-1.87107">
        <ele>52</ele>
        <time>2016-09-25T09:43:08Z</time>
      </trkpt>
      <trkpt lat="47.3168" lon="-1.87127">
        <ele>50</ele>
        <time>2016-09-25T09:43:13Z</time>
      </trkpt>
      <trkpt lat="47.3165" lon="-1.87152">
        <ele>49</ele>
        <time>2016-09-25T09:43:19Z</time>
      </trkpt>
      <trkpt lat="47.31627" lon="-1.87172">
        <ele>48</ele>
        <time>2016-09-25T09:43:24Z</time>
      </trkpt>
      <trkpt lat="47.3162" lon="-1.87144">
        <ele>49</ele>
        <time>2016-09-25T09:43:29Z</time>
      </trkpt>
      <trkpt lat="47.31622" lon="-1.87099">
        <ele>49</ele>
        <time>2016-09-25T09:43:35Z</time>
      </trkpt>
      <trkpt lat="47.3161" lon="-1.87081">
        <ele>50</ele>
        <time>2016-09-25T09:43:38Z</time>
      </trkpt>
      <trkpt lat="47.31615" lon="-1.8704">
        <ele>49</ele>
        <time>2016-09-25T09:43:44Z</time>
      </trkpt>
      <trkpt lat="47.31633" lon="-1.86987">
        <ele>48</ele>
        <time>2016-09-25T09:43:51Z</time>
      </trkpt>
      <trkpt lat="47.31648" lon="-1.86947">
        <ele>49</ele>
        <time>2016-09-25T09:43:56Z</time>
      </trkpt>
      <trkpt lat="47.31656" lon="-1.86924">
        <ele>47</ele>
        <time>2016-09-25T09:43:59Z</time>
      </trkpt>
      <trkpt lat="47.31673" lon="-1.86885">
        <ele>48</ele>
        <time>2016-09-25T09:44:04Z</time>
      </trkpt>
      <trkpt lat="47.31682" lon="-1.86863">
        <ele>49</ele>
        <time>2016-09-25T09:44:07Z</time>
      </trkpt>
      <trkpt lat="47.31681" lon="-1.86837">
        <ele>48</ele>
        <time>2016-09-25T09:44:10Z</time>
      </trkpt>
      <trkpt lat="47.31669" lon="-1.86796">
        <ele>49</ele>
        <time>2016-09-25T09:44:15Z</time>
      </trkpt>
      <trkpt lat="47.31658" lon="-1.86758">
        <ele>49</ele>
        <time>2016-09-25T09:44:20Z</time>
      </trkpt>
      <trkpt lat="47.31646" lon="-1.86712">
        <ele>50</ele>
        <time>2016-09-25T09:44:26Z</time>
      </trkpt>
      <trkpt lat="47.31633" lon="-1.8667">
        <ele>51</ele>
        <time>2016-09-25T09:44:32Z</time>
      </trkpt>
      <trkpt lat="47.3162" lon="-1.86627">
        <ele>52</ele>
        <time>2016-09-25T09:44:38Z</time>
      </trkpt>
      <trkpt lat="47.31608" lon="-1.86593">
        <ele>53</ele>
        <time>2016-09-25T09:44:43Z</time>
      </trkpt>
      <trkpt lat="47.31594" lon="-1.86548">
        <ele>53</ele>
        <time>2016-09-25T09:44:49Z</time>
      </trkpt>
      <trkpt lat="47.31581" lon="-1.86509">
        <ele>53</ele>
        <time>2016-09-25T09:44:54Z</time>
      </trkpt>
      <trkpt lat="47.31568" lon="-1.86469">
        <ele>54</ele>
        <time>2016-09-25T09:44:59Z</time>
      </trkpt>
      <trkpt lat="47.31551" lon="-1.86425">
        <ele>54</ele>
        <time>2016-09-25T09:45:05Z</time>
      </trkpt>
      <trkpt lat="47.31539" lon="-1.86419">
        <ele>54</ele>
        <time>2016-09-25T09:45:08Z</time>
      </trkpt>
      <trkpt lat="47.31509" lon="-1.86448">
        <ele>53</ele>
        <time>2016-09-25T09:45:14Z</time>
      </trkpt>
      <trkpt lat="47.31472" lon="-1.86444">
        <ele>54</ele>
        <time>2016-09-25T09:45:20Z</time>
      </trkpt>
      <trkpt lat="47.31437" lon="-1.86438">
        <ele>52</ele>
        <time>2016-09-25T09:45:25Z</time>
      </trkpt>
      <trkpt lat="47.31417" lon="-1.86438">
        <ele>51</ele>
        <time>2016-09-25T09:45:28Z</time>
      </trkpt>
      <trkpt lat="47.31398" lon="-1.86442">
        <ele>49</ele>
        <time>2016-09-25T09:45:31Z</time>
      </trkpt>
      <trkpt lat="47.31377" lon="-1.86438">
        <ele>47</ele>
        <time>2016-09-25T09:45:36Z</time>
      </trkpt>
      <trkpt lat="47.3136" lon="-1.86405">
        <ele>51</ele>
        <time>2016-09-25T09:45:42Z</time>
      </trkpt>
      <trkpt lat="47.31347" lon="-1.86379">
        <ele>57</ele>
        <time>2016-09-25T09:45:48Z</time>
      </trkpt>
      <trkpt lat="47.31333" lon="-1.86344">
        <ele>55</ele>
        <time>2016-09-25T09:45:54Z</time>
      </trkpt>
      <trkpt lat="47.31333" lon="-1.86295">
        <ele>54</ele>
        <time>2016-09-25T09:46:00Z</time>
      </trkpt>
      <trkpt lat="47.31334" lon="-1.86245">
        <ele>53</ele>
        <time>2016-09-25T09:46:06Z</time>
      </trkpt>
      <trkpt lat="47.3132" lon="-1.86215">
        <ele>53</ele>
        <time>2016-09-25T09:46:12Z</time>
      </trkpt>
      <trkpt lat="47.31316" lon="-1.86192">
        <ele>56</ele>
        <time>2016-09-25T09:46:19Z</time>
      </trkpt>
      <trkpt lat="47.31311" lon="-1.86191">
        <ele>54</ele>
        <time>2016-09-25T09:46:24Z</time>
      </trkpt>
      <trkpt lat="47.31309" lon="-1.8619">
        <ele>55</ele>
        <time>2016-09-25T09:46:31Z</time>
      </trkpt>
      <trkpt lat="47.31301" lon="-1.86151">
        <ele>56</ele>
        <time>2016-09-25T09:47:30Z</time>
      </trkpt>
      <trkpt lat="47.31314" lon="-1.86124">
        <ele>53</ele>
        <time>2016-09-25T09:47:35Z</time>
      </trkpt>
      <trkpt lat="47.31322" lon="-1.86105">
        <ele>53</ele>
        <time>2016-09-25T09:47:38Z</time>
      </trkpt>
      <trkpt lat="47.31338" lon="-1.86079">
        <ele>53</ele>
        <time>2016-09-25T09:47:44Z</time>
      </trkpt>
      <trkpt lat="47.31354" lon="-1.86059">
        <ele>53</ele>
        <time>2016-09-25T09:47:49Z</time>
      </trkpt>
      <trkpt lat="47.31371" lon="-1.86042">
        <ele>52</ele>
        <time>2016-09-25T09:47:54Z</time>
      </trkpt>
      <trkpt lat="47.31368" lon="-1.86014">
        <ele>52</ele>
        <time>2016-09-25T09:48:00Z</time>
      </trkpt>
      <trkpt lat="47.31359" lon="-1.85998">
        <ele>52</ele>
        <time>2016-09-25T09:48:03Z</time>
      </trkpt>
      <trkpt lat="47.31342" lon="-1.85967">
        <ele>52</ele>
        <time>2016-09-25T09:48:08Z</time>
      </trkpt>
      <trkpt lat="47.3133" lon="-1.85948">
        <ele>51</ele>
        <time>2016-09-25T09:48:11Z</time>
      </trkpt>
      <trkpt lat="47.31311" lon="-1.85915">
        <ele>51</ele>
        <time>2016-09-25T09:48:16Z</time>
      </trkpt>
      <trkpt lat="47.31285" lon="-1.85875">
        <ele>51</ele>
        <time>2016-09-25T09:48:22Z</time>
      </trkpt>
      <trkpt lat="47.3126" lon="-1.85839">
        <ele>50</ele>
        <time>2016-09-25T09:48:27Z</time>
      </trkpt>
      <trkpt lat="47.31246" lon="-1.85818">
        <ele>50</ele>
        <time>2016-09-25T09:48:30Z</time>
      </trkpt>
      <trkpt lat="47.31236" lon="-1.85801">
        <ele>52</ele>
        <time>2016-09-25T09:48:33Z</time>
      </trkpt>
      <trkpt lat="47.31221" lon="-1.85807">
        <ele>52</ele>
        <time>2016-09-25T09:48:40Z</time>
      </trkpt>
      <trkpt lat="47.31208" lon="-1.85848">
        <ele>53</ele>
        <time>2016-09-25T09:48:48Z</time>
      </trkpt>
      <trkpt lat="47.31196" lon="-1.85882">
        <ele>51</ele>
        <time>2016-09-25T09:48:53Z</time>
      </trkpt>
      <trkpt lat="47.31177" lon="-1.85916">
        <ele>52</ele>
        <time>2016-09-25T09:48:59Z</time>
      </trkpt>
      <trkpt lat="47.31159" lon="-1.85942">
        <ele>49</ele>
        <time>2016-09-25T09:49:04Z</time>
      </trkpt>
      <trkpt lat="47.31146" lon="-1.85974">
        <ele>50</ele>
        <time>2016-09-25T09:49:10Z</time>
      </trkpt>
      <trkpt lat="47.31133" lon="-1.86006">
        <ele>50</ele>
        <time>2016-09-25T09:49:15Z</time>
      </trkpt>
      <trkpt lat="47.31115" lon="-1.86047">
        <ele>50</ele>
        <time>2016-09-25T09:49:21Z</time>
      </trkpt>
      <trkpt lat="47.31099" lon="-1.86082">
        <ele>47</ele>
        <time>2016-09-25T09:49:26Z</time>
      </trkpt>
      <trkpt lat="47.31091" lon="-1.86103">
        <ele>45</ele>
        <time>2016-09-25T09:49:29Z</time>
      </trkpt>
      <trkpt lat="47.31067" lon="-1.86111">
        <ele>47</ele>
        <time>2016-09-25T09:49:34Z</time>
      </trkpt>
      <trkpt lat="47.31041" lon="-1.86112">
        <ele>48</ele>
        <time>2016-09-25T09:49:39Z</time>
      </trkpt>
      <trkpt lat="47.31005" lon="-1.86117">
        <ele>48</ele>
        <time>2016-09-25T09:49:46Z</time>
      </trkpt>
      <trkpt lat="47.30984" lon="-1.86135">
        <ele>47</ele>
        <time>2016-09-25T09:49:51Z</time>
      </trkpt>
      <trkpt lat="47.30961" lon="-1.8616">
        <ele>49</ele>
        <time>2016-09-25T09:49:57Z</time>
      </trkpt>
      <trkpt lat="47.30937" lon="-1.86185">
        <ele>48</ele>
        <time>2016-09-25T09:50:04Z</time>
      </trkpt>
      <trkpt lat="47.30917" lon="-1.86202">
        <ele>49</ele>
        <time>2016-09-25T09:50:09Z</time>
      </trkpt>
      <trkpt lat="47.30904" lon="-1.86214">
        <ele>49</ele>
        <time>2016-09-25T09:50:12Z</time>
      </trkpt>
      <trkpt lat="47.30888" lon="-1.86224">
        <ele>50</ele>
        <time>2016-09-25T09:50:15Z</time>
      </trkpt>
      <trkpt lat="47.30857" lon="-1.86245">
        <ele>49</ele>
        <time>2016-09-25T09:50:21Z</time>
      </trkpt>
      <trkpt lat="47.30849" lon="-1.86287">
        <ele>50</ele>
        <time>2016-09-25T09:50:27Z</time>
      </trkpt>
      <trkpt lat="47.30843" lon="-1.86333">
        <ele>50</ele>
        <time>2016-09-25T09:50:33Z</time>
      </trkpt>
      <trkpt lat="47.30844" lon="-1.86357">
        <ele>49</ele>
        <time>2016-09-25T09:50:36Z</time>
      </trkpt>
      <trkpt lat="47.30847" lon="-1.86383">
        <ele>52</ele>
        <time>2016-09-25T09:50:39Z</time>
      </trkpt>
      <trkpt lat="47.3086" lon="-1.86416">
        <ele>51</ele>
        <time>2016-09-25T09:50:44Z</time>
      </trkpt>
      <trkpt lat="47.3087" lon="-1.86453">
        <ele>51</ele>
        <time>2016-09-25T09:50:49Z</time>
      </trkpt>
      <trkpt lat="47.30877" lon="-1.86513">
        <ele>52</ele>
        <time>2016-09-25T09:50:57Z</time>
      </trkpt>
      <trkpt lat="47.30872" lon="-1.86558">
        <ele>50</ele>
        <time>2016-09-25T09:51:02Z</time>
      </trkpt>
      <trkpt lat="47.30846" lon="-1.86594">
        <ele>49</ele>
        <time>2016-09-25T09:51:08Z</time>
      </trkpt>
      <trkpt lat="47.30816" lon="-1.86616">
        <ele>50</ele>
        <time>2016-09-25T09:51:14Z</time>
      </trkpt>
      <trkpt lat="47.308" lon="-1.86626">
        <ele>49</ele>
        <time>2016-09-25T09:51:17Z</time>
      </trkpt>
      <trkpt lat="47.30784" lon="-1.86636">
        <ele>49</ele>
        <time>2016-09-25T09:51:20Z</time>
      </trkpt>
      <trkpt lat="47.30768" lon="-1.86648">
        <ele>49</ele>
        <time>2016-09-25T09:51:23Z</time>
      </trkpt>
      <trkpt lat="47.3074" lon="-1.86665">
        <ele>49</ele>
        <time>2016-09-25T09:51:28Z</time>
      </trkpt>
      <trkpt lat="47.30712" lon="-1.86684">
        <ele>49</ele>
        <time>2016-09-25T09:51:34Z</time>
      </trkpt>
      <trkpt lat="47.30678" lon="-1.86706">
        <ele>48</ele>
        <time>2016-09-25T09:51:39Z</time>
      </trkpt>
      <trkpt lat="47.30649" lon="-1.86723">
        <ele>49</ele>
        <time>2016-09-25T09:51:45Z</time>
      </trkpt>
      <trkpt lat="47.30612" lon="-1.8673">
        <ele>50</ele>
        <time>2016-09-25T09:51:51Z</time>
      </trkpt>
      <trkpt lat="47.30593" lon="-1.86738">
        <ele>49</ele>
        <time>2016-09-25T09:51:54Z</time>
      </trkpt>
      <trkpt lat="47.30575" lon="-1.86752">
        <ele>47</ele>
        <time>2016-09-25T09:51:57Z</time>
      </trkpt>
      <trkpt lat="47.30559" lon="-1.86766">
        <ele>47</ele>
        <time>2016-09-25T09:52:00Z</time>
      </trkpt>
      <trkpt lat="47.30533" lon="-1.86789">
        <ele>49</ele>
        <time>2016-09-25T09:52:05Z</time>
      </trkpt>
      <trkpt lat="47.30509" lon="-1.86818">
        <ele>48</ele>
        <time>2016-09-25T09:52:10Z</time>
      </trkpt>
      <trkpt lat="47.30496" lon="-1.86835">
        <ele>48</ele>
        <time>2016-09-25T09:52:13Z</time>
      </trkpt>
      <trkpt lat="47.30475" lon="-1.86866">
        <ele>48</ele>
        <time>2016-09-25T09:52:18Z</time>
      </trkpt>
      <trkpt lat="47.3045" lon="-1.86902">
        <ele>49</ele>
        <time>2016-09-25T09:52:24Z</time>
      </trkpt>
      <trkpt lat="47.30437" lon="-1.86922">
        <ele>49</ele>
        <time>2016-09-25T09:52:27Z</time>
      </trkpt>
      <trkpt lat="47.30425" lon="-1.86941">
        <ele>49</ele>
        <time>2016-09-25T09:52:30Z</time>
      </trkpt>
      <trkpt lat="47.30405" lon="-1.86973">
        <ele>49</ele>
        <time>2016-09-25T09:52:35Z</time>
      </trkpt>
      <trkpt lat="47.30388" lon="-1.87018">
        <ele>48</ele>
        <time>2016-09-25T09:52:41Z</time>
      </trkpt>
      <trkpt lat="47.3038" lon="-1.8706">
        <ele>49</ele>
        <time>2016-09-25T09:52:46Z</time>
      </trkpt>
      <trkpt lat="47.30379" lon="-1.87087">
        <ele>49</ele>
        <time>2016-09-25T09:52:49Z</time>
      </trkpt>
      <trkpt lat="47.30372" lon="-1.8712">
        <ele>48</ele>
        <time>2016-09-25T09:52:54Z</time>
      </trkpt>
      <trkpt lat="47.30344" lon="-1.87128">
        <ele>48</ele>
        <time>2016-09-25T09:52:59Z</time>
      </trkpt>
      <trkpt lat="47.30326" lon="-1.87134">
        <ele>48</ele>
        <time>2016-09-25T09:53:02Z</time>
      </trkpt>
      <trkpt lat="47.30296" lon="-1.87144">
        <ele>48</ele>
        <time>2016-09-25T09:53:07Z</time>
      </trkpt>
      <trkpt lat="47.30261" lon="-1.87155">
        <ele>49</ele>
        <time>2016-09-25T09:53:13Z</time>
      </trkpt>
      <trkpt lat="47.30227" lon="-1.87169">
        <ele>49</ele>
        <time>2016-09-25T09:53:19Z</time>
      </trkpt>
      <trkpt lat="47.3021" lon="-1.87172">
        <ele>50</ele>
        <time>2016-09-25T09:53:22Z</time>
      </trkpt>
      <trkpt lat="47.3018" lon="-1.87182">
        <ele>50</ele>
        <time>2016-09-25T09:53:27Z</time>
      </trkpt>
      <trkpt lat="47.3015" lon="-1.87191">
        <ele>49</ele>
        <time>2016-09-25T09:53:32Z</time>
      </trkpt>
      <trkpt lat="47.30133" lon="-1.87197">
        <ele>48</ele>
        <time>2016-09-25T09:53:35Z</time>
      </trkpt>
      <trkpt lat="47.30103" lon="-1.87189">
        <ele>48</ele>
        <time>2016-09-25T09:53:41Z</time>
      </trkpt>
      <trkpt lat="47.30079" lon="-1.87172">
        <ele>48</ele>
        <time>2016-09-25T09:53:47Z</time>
      </trkpt>
      <trkpt lat="47.30069" lon="-1.87207">
        <ele>49</ele>
        <time>2016-09-25T09:53:53Z</time>
      </trkpt>
      <trkpt lat="47.30056" lon="-1.87238">
        <ele>49</ele>
        <time>2016-09-25T09:53:58Z</time>
      </trkpt>
      <trkpt lat="47.30059" lon="-1.8726">
        <ele>48</ele>
        <time>2016-09-25T09:54:03Z</time>
      </trkpt>
      <trkpt lat="47.30073" lon="-1.87292">
        <ele>47</ele>
        <time>2016-09-25T09:54:09Z</time>
      </trkpt>
      <trkpt lat="47.30085" lon="-1.87322">
        <ele>47</ele>
        <time>2016-09-25T09:54:14Z</time>
      </trkpt>
      <trkpt lat="47.30098" lon="-1.87353">
        <ele>48</ele>
        <time>2016-09-25T09:54:19Z</time>
      </trkpt>
      <trkpt lat="47.30111" lon="-1.87382">
        <ele>46</ele>
        <time>2016-09-25T09:54:24Z</time>
      </trkpt>
      <trkpt lat="47.30126" lon="-1.87411">
        <ele>49</ele>
        <time>2016-09-25T09:54:30Z</time>
      </trkpt>
      <trkpt lat="47.30142" lon="-1.87447">
        <ele>50</ele>
        <time>2016-09-25T09:54:36Z</time>
      </trkpt>
      <trkpt lat="47.3015" lon="-1.87461">
        <ele>51</ele>
        <time>2016-09-25T09:54:40Z</time>
      </trkpt>
      <trkpt lat="47.30165" lon="-1.87497">
        <ele>49</ele>
        <time>2016-09-25T09:54:46Z</time>
      </trkpt>
      <trkpt lat="47.30172" lon="-1.87515">
        <ele>47</ele>
        <time>2016-09-25T09:54:49Z</time>
      </trkpt>
      <trkpt lat="47.30162" lon="-1.87547">
        <ele>46</ele>
        <time>2016-09-25T09:54:55Z</time>
      </trkpt>
      <trkpt lat="47.3014" lon="-1.87569">
        <ele>47</ele>
        <time>2016-09-25T09:55:01Z</time>
      </trkpt>
      <trkpt lat="47.30121" lon="-1.87599">
        <ele>46</ele>
        <time>2016-09-25T09:55:07Z</time>
      </trkpt>
      <trkpt lat="47.30104" lon="-1.87603">
        <ele>49</ele>
        <time>2016-09-25T09:55:12Z</time>
      </trkpt>
      <trkpt lat="47.30072" lon="-1.87607">
        <ele>49</ele>
        <time>2016-09-25T09:55:19Z</time>
      </trkpt>
      <trkpt lat="47.30047" lon="-1.87613">
        <ele>51</ele>
        <time>2016-09-25T09:55:24Z</time>
      </trkpt>
      <trkpt lat="47.30034" lon="-1.87613">
        <ele>49</ele>
        <time>2016-09-25T09:55:27Z</time>
      </trkpt>
      <trkpt lat="47.30019" lon="-1.87616">
        <ele>49</ele>
        <time>2016-09-25T09:55:30Z</time>
      </trkpt>
      <trkpt lat="47.29998" lon="-1.87619">
        <ele>50</ele>
        <time>2016-09-25T09:55:34Z</time>
      </trkpt>
      <trkpt lat="47.2997" lon="-1.87623">
        <ele>50</ele>
        <time>2016-09-25T09:55:40Z</time>
      </trkpt>
      <trkpt lat="47.29941" lon="-1.87628">
        <ele>48</ele>
        <time>2016-09-25T09:55:46Z</time>
      </trkpt>
      <trkpt lat="47.29919" lon="-1.87631">
        <ele>48</ele>
        <time>2016-09-25T09:55:53Z</time>
      </trkpt>
      <trkpt lat="47.29903" lon="-1.87664">
        <ele>47</ele>
        <time>2016-09-25T09:56:01Z</time>
      </trkpt>
      <trkpt lat="47.29897" lon="-1.87681">
        <ele>48</ele>
        <time>2016-09-25T09:56:04Z</time>
      </trkpt>
      <trkpt lat="47.2989" lon="-1.87703">
        <ele>47</ele>
        <time>2016-09-25T09:56:08Z</time>
      </trkpt>
      <trkpt lat="47.2988" lon="-1.87735">
        <ele>46</ele>
        <time>2016-09-25T09:56:14Z</time>
      </trkpt>
      <trkpt lat="47.29871" lon="-1.87762">
        <ele>46</ele>
        <time>2016-09-25T09:56:19Z</time>
      </trkpt>
      <trkpt lat="47.29861" lon="-1.87791">
        <ele>47</ele>
        <time>2016-09-25T09:56:24Z</time>
      </trkpt>
      <trkpt lat="47.29848" lon="-1.87826">
        <ele>49</ele>
        <time>2016-09-25T09:56:30Z</time>
      </trkpt>
      <trkpt lat="47.29838" lon="-1.87858">
        <ele>47</ele>
        <time>2016-09-25T09:56:35Z</time>
      </trkpt>
      <trkpt lat="47.29831" lon="-1.87878">
        <ele>48</ele>
        <time>2016-09-25T09:56:38Z</time>
      </trkpt>
      <trkpt lat="47.29817" lon="-1.87907">
        <ele>49</ele>
        <time>2016-09-25T09:56:43Z</time>
      </trkpt>
      <trkpt lat="47.29786" lon="-1.87921">
        <ele>49</ele>
        <time>2016-09-25T09:56:49Z</time>
      </trkpt>
      <trkpt lat="47.29771" lon="-1.87928">
        <ele>49</ele>
        <time>2016-09-25T09:56:52Z</time>
      </trkpt>
      <trkpt lat="47.29755" lon="-1.87934">
        <ele>49</ele>
        <time>2016-09-25T09:56:55Z</time>
      </trkpt>
      <trkpt lat="47.29738" lon="-1.87941">
        <ele>48</ele>
        <time>2016-09-25T09:56:58Z</time>
      </trkpt>
      <trkpt lat="47.29712" lon="-1.87954">
        <ele>48</ele>
        <time>2016-09-25T09:57:03Z</time>
      </trkpt>
      <trkpt lat="47.29696" lon="-1.87961">
        <ele>48</ele>
        <time>2016-09-25T09:57:06Z</time>
      </trkpt>
      <trkpt lat="47.29667" lon="-1.87974">
        <ele>49</ele>
        <time>2016-09-25T09:57:12Z</time>
      </trkpt>
      <trkpt lat="47.29637" lon="-1.87986">
        <ele>50</ele>
        <time>2016-09-25T09:57:18Z</time>
      </trkpt>
      <trkpt lat="47.29601" lon="-1.88003">
        <ele>52</ele>
        <time>2016-09-25T09:57:25Z</time>
      </trkpt>
      <trkpt lat="47.29571" lon="-1.88016">
        <ele>52</ele>
        <time>2016-09-25T09:57:30Z</time>
      </trkpt>
      <trkpt lat="47.29543" lon="-1.88022">
        <ele>52</ele>
        <time>2016-09-25T09:57:35Z</time>
      </trkpt>
      <trkpt lat="47.29514" lon="-1.88032">
        <ele>59</ele>
        <time>2016-09-25T09:57:41Z</time>
      </trkpt>
      <trkpt lat="47.29481" lon="-1.88028">
        <ele>59</ele>
        <time>2016-09-25T09:57:51Z</time>
      </trkpt>
      <trkpt lat="47.29455" lon="-1.88032">
        <ele>59</ele>
        <time>2016-09-25T09:57:58Z</time>
      </trkpt>
      <trkpt lat="47.29431" lon="-1.88036">
        <ele>60</ele>
        <time>2016-09-25T09:58:04Z</time>
      </trkpt>
      <trkpt lat="47.29409" lon="-1.88042">
        <ele>62</ele>
        <time>2016-09-25T09:58:10Z</time>
      </trkpt>
      <trkpt lat="47.29386" lon="-1.88047">
        <ele>63</ele>
        <time>2016-09-25T09:58:16Z</time>
      </trkpt>
      <trkpt lat="47.29359" lon="-1.8807">
        <ele>62</ele>
        <time>2016-09-25T09:58:23Z</time>
      </trkpt>
      <trkpt lat="47.29333" lon="-1.88088">
        <ele>62</ele>
        <time>2016-09-25T09:58:29Z</time>
      </trkpt>
      <trkpt lat="47.2932" lon="-1.88098">
        <ele>62</ele>
        <time>2016-09-25T09:58:32Z</time>
      </trkpt>
      <trkpt lat="47.29307" lon="-1.88107">
        <ele>62</ele>
        <time>2016-09-25T09:58:35Z</time>
      </trkpt>
      <trkpt lat="47.29285" lon="-1.88122">
        <ele>62</ele>
        <time>2016-09-25T09:58:40Z</time>
      </trkpt>
      <trkpt lat="47.29264" lon="-1.88139">
        <ele>62</ele>
        <time>2016-09-25T09:58:45Z</time>
      </trkpt>
      <trkpt lat="47.29252" lon="-1.8815">
        <ele>61</ele>
        <time>2016-09-25T09:58:48Z</time>
      </trkpt>
      <trkpt lat="47.29241" lon="-1.88159">
        <ele>62</ele>
        <time>2016-09-25T09:58:51Z</time>
      </trkpt>
      <trkpt lat="47.29221" lon="-1.88173">
        <ele>63</ele>
        <time>2016-09-25T09:58:56Z</time>
      </trkpt>
      <trkpt lat="47.29197" lon="-1.88191">
        <ele>63</ele>
        <time>2016-09-25T09:59:02Z</time>
      </trkpt>
      <trkpt lat="47.29171" lon="-1.88204">
        <ele>63</ele>
        <time>2016-09-25T09:59:08Z</time>
      </trkpt>
      <trkpt lat="47.29143" lon="-1.88214">
        <ele>63</ele>
        <time>2016-09-25T09:59:15Z</time>
      </trkpt>
      <trkpt lat="47.2914" lon="-1.88242">
        <ele>63</ele>
        <time>2016-09-25T09:59:20Z</time>
      </trkpt>
      <trkpt lat="47.29152" lon="-1.88307">
        <ele>63</ele>
        <time>2016-09-25T09:59:26Z</time>
      </trkpt>
      <trkpt lat="47.29161" lon="-1.88359">
        <ele>61</ele>
        <time>2016-09-25T09:59:32Z</time>
      </trkpt>
      <trkpt lat="47.29136" lon="-1.8838">
        <ele>58</ele>
        <time>2016-09-25T09:59:39Z</time>
      </trkpt>
      <trkpt lat="47.29115" lon="-1.88406">
        <ele>56</ele>
        <time>2016-09-25T09:59:44Z</time>
      </trkpt>
      <trkpt lat="47.2909" lon="-1.88435">
        <ele>55</ele>
        <time>2016-09-25T09:59:50Z</time>
      </trkpt>
      <trkpt lat="47.29076" lon="-1.88449">
        <ele>54</ele>
        <time>2016-09-25T09:59:53Z</time>
      </trkpt>
      <trkpt lat="47.29052" lon="-1.88473">
        <ele>52</ele>
        <time>2016-09-25T09:59:58Z</time>
      </trkpt>
      <trkpt lat="47.29037" lon="-1.88489">
        <ele>52</ele>
        <time>2016-09-25T10:00:01Z</time>
      </trkpt>
      <trkpt lat="47.29023" lon="-1.88504">
        <ele>52</ele>
        <time>2016-09-25T10:00:04Z</time>
      </trkpt>
      <trkpt lat="47.28999" lon="-1.8853">
        <ele>52</ele>
        <time>2016-09-25T10:00:09Z</time>
      </trkpt>
      <trkpt lat="47.28987" lon="-1.88547">
        <ele>52</ele>
        <time>2016-09-25T10:00:12Z</time>
      </trkpt>
      <trkpt lat="47.28975" lon="-1.88586">
        <ele>52</ele>
        <time>2016-09-25T10:00:17Z</time>
      </trkpt>
      <trkpt lat="47.28957" lon="-1.88624">
        <ele>51</ele>
        <time>2016-09-25T10:00:23Z</time>
      </trkpt>
      <trkpt lat="47.28924" lon="-1.88636">
        <ele>51</ele>
        <time>2016-09-25T10:00:29Z</time>
      </trkpt>
      <trkpt lat="47.28907" lon="-1.88641">
        <ele>50</ele>
        <time>2016-09-25T10:00:32Z</time>
      </trkpt>
      <trkpt lat="47.28875" lon="-1.88658">
        <ele>52</ele>
        <time>2016-09-25T10:00:38Z</time>
      </trkpt>
      <trkpt lat="47.2886" lon="-1.88674">
        <ele>53</ele>
        <time>2016-09-25T10:00:41Z</time>
      </trkpt>
      <trkpt lat="47.28831" lon="-1.88706">
        <ele>53</ele>
        <time>2016-09-25T10:00:47Z</time>
      </trkpt>
      <trkpt lat="47.28805" lon="-1.88727">
        <ele>52</ele>
        <time>2016-09-25T10:00:52Z</time>
      </trkpt>
      <trkpt lat="47.28774" lon="-1.88754">
        <ele>52</ele>
        <time>2016-09-25T10:00:58Z</time>
      </trkpt>
      <trkpt lat="47.28747" lon="-1.88787">
        <ele>53</ele>
        <time>2016-09-25T10:01:04Z</time>
      </trkpt>
      <trkpt lat="47.28732" lon="-1.88803">
        <ele>53</ele>
        <time>2016-09-25T10:01:07Z</time>
      </trkpt>
      <trkpt lat="47.28702" lon="-1.88833">
        <ele>54</ele>
        <time>2016-09-25T10:01:13Z</time>
      </trkpt>
      <trkpt lat="47.28677" lon="-1.88855">
        <ele>53</ele>
        <time>2016-09-25T10:01:18Z</time>
      </trkpt>
      <trkpt lat="47.28647" lon="-1.88883">
        <ele>51</ele>
        <time>2016-09-25T10:01:24Z</time>
      </trkpt>
      <trkpt lat="47.28628" lon="-1.88901">
        <ele>51</ele>
        <time>2016-09-25T10:01:28Z</time>
      </trkpt>
      <trkpt lat="47.28613" lon="-1.88914">
        <ele>51</ele>
        <time>2016-09-25T10:01:31Z</time>
      </trkpt>
      <trkpt lat="47.28598" lon="-1.88926">
        <ele>52</ele>
        <time>2016-09-25T10:01:34Z</time>
      </trkpt>
      <trkpt lat="47.28582" lon="-1.88938">
        <ele>51</ele>
        <time>2016-09-25T10:01:37Z</time>
      </trkpt>
      <trkpt lat="47.28566" lon="-1.88951">
        <ele>51</ele>
        <time>2016-09-25T10:01:40Z</time>
      </trkpt>
      <trkpt lat="47.28536" lon="-1.8898">
        <ele>52</ele>
        <time>2016-09-25T10:01:47Z</time>
      </trkpt>
      <trkpt lat="47.28504" lon="-1.89004">
        <ele>53</ele>
        <time>2016-09-25T10:01:52Z</time>
      </trkpt>
      <trkpt lat="47.28477" lon="-1.89023">
        <ele>53</ele>
        <time>2016-09-25T10:01:57Z</time>
      </trkpt>
      <trkpt lat="47.28463" lon="-1.89039">
        <ele>52</ele>
        <time>2016-09-25T10:02:00Z</time>
      </trkpt>
      <trkpt lat="47.28451" lon="-1.89061">
        <ele>50</ele>
        <time>2016-09-25T10:02:03Z</time>
      </trkpt>
      <trkpt lat="47.28441" lon="-1.89085">
        <ele>50</ele>
        <time>2016-09-25T10:02:06Z</time>
      </trkpt>
      <trkpt lat="47.28428" lon="-1.89098">
        <ele>50</ele>
        <time>2016-09-25T10:02:09Z</time>
      </trkpt>
      <trkpt lat="47.28426" lon="-1.89074">
        <ele>51</ele>
        <time>2016-09-25T10:02:15Z</time>
      </trkpt>
      <trkpt lat="47.28439" lon="-1.89038">
        <ele>51</ele>
        <time>2016-09-25T10:02:21Z</time>
      </trkpt>
      <trkpt lat="47.28435" lon="-1.89017">
        <ele>51</ele>
        <time>2016-09-25T10:02:24Z</time>
      </trkpt>
      <trkpt lat="47.28433" lon="-1.88988">
        <ele>53</ele>
        <time>2016-09-25T10:02:29Z</time>
      </trkpt>
      <trkpt lat="47.28423" lon="-1.88948">
        <ele>52</ele>
        <time>2016-09-25T10:02:34Z</time>
      </trkpt>
      <trkpt lat="47.28404" lon="-1.88927">
        <ele>54</ele>
        <time>2016-09-25T10:02:39Z</time>
      </trkpt>
      <trkpt lat="47.28386" lon="-1.88878">
        <ele>53</ele>
        <time>2016-09-25T10:02:45Z</time>
      </trkpt>
      <trkpt lat="47.2838" lon="-1.88851">
        <ele>52</ele>
        <time>2016-09-25T10:02:48Z</time>
      </trkpt>
      <trkpt lat="47.28369" lon="-1.88802">
        <ele>52</ele>
        <time>2016-09-25T10:02:54Z</time>
      </trkpt>
      <trkpt lat="47.28354" lon="-1.88763">
        <ele>52</ele>
        <time>2016-09-25T10:02:59Z</time>
      </trkpt>
      <trkpt lat="47.28344" lon="-1.88716">
        <ele>51</ele>
        <time>2016-09-25T10:03:05Z</time>
      </trkpt>
      <trkpt lat="47.28327" lon="-1.88683">
        <ele>52</ele>
        <time>2016-09-25T10:03:10Z</time>
      </trkpt>
      <trkpt lat="47.28308" lon="-1.88639">
        <ele>52</ele>
        <time>2016-09-25T10:03:16Z</time>
      </trkpt>
      <trkpt lat="47.283" lon="-1.88616">
        <ele>52</ele>
        <time>2016-09-25T10:03:19Z</time>
      </trkpt>
      <trkpt lat="47.28292" lon="-1.88592">
        <ele>52</ele>
        <time>2016-09-25T10:03:22Z</time>
      </trkpt>
      <trkpt lat="47.28285" lon="-1.8857">
        <ele>52</ele>
        <time>2016-09-25T10:03:25Z</time>
      </trkpt>
      <trkpt lat="47.2828" lon="-1.88545">
        <ele>51</ele>
        <time>2016-09-25T10:03:28Z</time>
      </trkpt>
      <trkpt lat="47.28274" lon="-1.8852">
        <ele>52</ele>
        <time>2016-09-25T10:03:31Z</time>
      </trkpt>
      <trkpt lat="47.28261" lon="-1.88484">
        <ele>50</ele>
        <time>2016-09-25T10:03:37Z</time>
      </trkpt>
      <trkpt lat="47.28275" lon="-1.88445">
        <ele>51</ele>
        <time>2016-09-25T10:03:42Z</time>
      </trkpt>
      <trkpt lat="47.28303" lon="-1.88437">
        <ele>51</ele>
        <time>2016-09-25T10:03:48Z</time>
      </trkpt>
      <trkpt lat="47.28332" lon="-1.88421">
        <ele>50</ele>
        <time>2016-09-25T10:03:54Z</time>
      </trkpt>
      <trkpt lat="47.28349" lon="-1.8841">
        <ele>49</ele>
        <time>2016-09-25T10:03:57Z</time>
      </trkpt>
      <trkpt lat="47.28359" lon="-1.884">
        <ele>50</ele>
        <time>2016-09-25T10:04:03Z</time>
      </trkpt>
      <trkpt lat="47.28374" lon="-1.88356">
        <ele>52</ele>
        <time>2016-09-25T10:04:18Z</time>
      </trkpt>
      <trkpt lat="47.28391" lon="-1.88326">
        <ele>52</ele>
        <time>2016-09-25T10:04:25Z</time>
      </trkpt>
      <trkpt lat="47.28412" lon="-1.88308">
        <ele>54</ele>
        <time>2016-09-25T10:04:32Z</time>
      </trkpt>
      <trkpt lat="47.28416" lon="-1.88306">
        <ele>55</ele>
        <time>2016-09-25T10:04:34Z</time>
      </trkpt>
      <trkpt lat="47.28423" lon="-1.88301">
        <ele>55</ele>
        <time>2016-09-25T10:04:44Z</time>
      </trkpt>
      <trkpt lat="47.28426" lon="-1.88296">
        <ele>57</ele>
        <time>2016-09-25T10:04:49Z</time>
      </trkpt>
      <trkpt lat="47.28431" lon="-1.88285">
        <ele>59</ele>
        <time>2016-09-25T10:05:03Z</time>
      </trkpt>
      <trkpt lat="47.28431" lon="-1.88285">
        <ele>4</ele>
        <time>2016-09-25T10:06:38Z</time>
      </trkpt>
      <trkpt lat="47.28431" lon="-1.88285">
        <ele>4</ele>
        <time>2016-09-25T10:06:40Z</time>
      </trkpt>
    </trkseg>
  </trk>
</gpx>